[[{"header":{"parameterUnit":"m.s-1","parameterCategory":1,"la1":30.6,"la2":29.2853,"lo1":-89.7004,"lo2":-87.6739,"dy":0.0162,"dx":0.0183,"nx":112,"ny":82,"refTime":"2023-11-10T06:00:00:Z","depth":0,"parameterNumber":2,"parameterNumberName":"U-component_of_WINDS"},"data":[0.0,0.0,0.0,0.0,0.0,0.0,0.0,0.0,0.0,0.0,0.0,0.0,0.0,0.0,0.0,0.0,0.0,0.0,0.0,0.0,0.0,0.0,0.0,0.0,0.0,0.0,0.0,0.0,0.0,0.0,0.0,0.0,0.0,0.0,0.0,0.0,0.0,0.0,0.0,0.0,0.0,0.0,0.0,0.0,0.0,0.0,0.0,0.0,0.0,0.0,0.0,0.0,0.0,0.0,0.0,0.0,0.0,0.0,0.0,0.0,0.0,0.0,0.0,0.0,0.0,0.0,0.0,0.0,0.0,0.0,0.0,0.0,0.0,0.0,0.0,0.0,0.0,0.0,0.0,0.0,0.0,0.0,0.0,0.0,0.0,0.0,0.0,0.0,0.0,0.0,2.1245,2.3012,2.7155,2.9591,2.9082,2.8806,2.6414,2.1157,0.0,0.0,0.0,0.0,0.0,0.0,0.0,0.0,0.0,0.0,0.0,0.0,0.0,0.0,0.0,0.0,0.0,0.0,0.0,0.0,0.0,0.0,0.0,0.0,0.0,0.0,0.0,0.0,0.0,0.0,0.0,0.0,0.0,0.0,0.0,0.0,0.0,0.0,0.0,0.0,0.0,0.0,0.0,0.0,0.0,0.0,0.0,0.0,0.0,0.0,0.0,0.0,0.0,0.0,0.0,0.0,0.0,0.0,0.0,0.0,0.0,0.0,0.0,0.0,0.0,0.0,0.0,0.0,0.0,0.0,0.0,0.0,0.0,0.0,0.0,0.0,0.0,0.0,0.0,0.0,0.0,0.0,0.0,0.0,0.0,0.0,0.0,0.0,0.0,0.0,0.0,0.0,0.0,0.0,0.0,0.0,0.0,0.0,0.0,0.0,0.0,0.0,0.0,0.0,2.1807,2.6703,2.8762,2.9754,2.9666,2.8348,2.5791,2.1645,0.0,0.0,0.0,0.0,0.0,0.0,0.0,0.0,0.0,0.0,0.0,0.0,0.0,0.0,0.0,0.0,0.0,0.0,0.0,0.0,0.0,0.0,0.0,0.0,0.0,0.0,0.0,0.0,0.0,0.0,0.0,0.0,0.0,0.0,0.0,0.0,0.0,0.0,0.0,0.0,0.0,0.0,0.0,0.0,0.0,0.0,0.0,0.0,0.0,0.0,0.0,0.0,0.0,0.0,0.0,0.0,0.0,0.0,0.0,0.0,0.0,0.0,0.0,0.0,0.0,0.0,0.0,0.0,0.0,0.0,0.0,0.0,0.0,0.0,0.0,0.0,0.0,0.0,0.0,0.0,0.0,0.0,0.0,0.0,0.0,0.0,0.0,0.0,0.0,0.0,0.0,0.0,0.0,0.0,0.0,0.0,0.0,0.0,0.0,0.0,0.0,0.0,0.0,2.0037,2.2949,2.7607,2.9114,2.9792,2.9792,2.8524,2.5937,2.1757,2.0691,0.0,0.0,0.0,0.0,0.0,0.0,0.0,0.0,0.0,0.0,0.0,0.0,0.0,0.0,0.0,0.0,0.0,0.0,0.0,0.0,0.0,0.0,0.0,0.0,0.0,0.0,0.0,0.0,0.0,0.0,0.0,0.0,0.0,0.0,0.0,0.0,0.0,0.0,0.0,0.0,0.0,0.0,0.0,0.0,0.0,0.0,0.0,0.0,0.0,0.0,0.0,0.0,0.0,0.0,0.0,0.0,0.0,0.0,0.0,0.0,0.0,0.0,0.0,0.0,0.0,0.0,0.0,0.0,0.0,0.0,0.0,0.0,0.0,0.0,0.0,0.0,0.0,0.0,0.0,0.0,0.0,0.0,0.0,0.0,0.0,0.0,0.0,0.0,0.0,0.0,0.0,0.0,0.0,0.0,0.0,0.0,0.0,0.0,0.0,0.0,0.0,0.0,2.2347,2.4415,2.7934,2.9202,2.9741,2.9603,2.8197,2.5661,2.1758,2.0062,0.0,0.0,0.0,0.0,0.0,0.0,0.0,0.0,0.0,0.0,0.0,0.0,0.0,0.0,0.0,0.0,0.0,0.0,0.0,0.0,0.0,0.0,0.0,0.0,0.0,0.0,0.0,0.0,0.0,0.0,0.0,0.0,0.0,0.0,0.0,0.0,0.0,0.0,0.0,0.0,0.0,0.0,0.0,0.0,0.0,0.0,0.0,0.0,0.0,0.0,0.0,0.0,0.0,0.0,0.0,0.0,0.0,0.0,0.0,0.0,0.0,0.0,0.0,0.0,0.0,0.0,0.0,0.0,0.0,0.0,0.0,0.0,0.0,0.0,0.0,0.0,0.0,0.0,0.0,0.0,0.0,0.0,0.0,0.0,0.0,0.0,0.0,0.0,0.0,0.0,0.0,0.0,0.0,0.0,0.0,0.0,0.0,0.0,0.0,0.0,0.0,0.0,2.3454,2.6264,2.8587,2.9428,2.9578,2.9019,2.6548,2.4014,2.1658,1.9032,0.0,0.0,0.0,0.0,0.0,0.0,0.0,0.0,0.0,0.0,0.0,0.0,0.0,0.0,0.0,0.0,0.0,0.0,0.0,0.0,0.0,0.0,0.0,0.0,0.0,0.0,0.0,0.0,0.0,0.0,0.0,0.0,0.0,0.0,0.0,0.0,0.0,0.0,0.0,0.0,0.0,0.0,0.0,0.0,0.0,0.0,0.0,0.0,0.0,0.0,0.0,0.0,0.0,0.0,0.0,0.0,0.0,0.0,0.0,0.0,0.0,0.0,0.0,0.0,0.0,0.0,0.0,0.0,0.0,0.0,0.0,0.0,0.0,0.0,0.0,0.0,0.0,0.0,0.0,0.0,0.0,0.0,0.0,0.0,0.0,0.0,0.0,0.0,0.0,0.0,0.0,0.0,0.0,0.0,0.0,0.0,0.0,0.0,0.0,0.0,0.0,0.0,2.2749,2.5448,2.767,2.8693,2.9007,2.8442,2.6485,2.4217,2.1658,0.0,0.0,0.0,0.0,0.0,0.0,0.0,0.0,0.0,0.0,0.0,0.0,0.0,0.0,0.0,0.0,0.0,0.0,0.0,0.0,0.0,0.0,0.0,0.0,0.0,0.0,0.0,0.0,0.0,0.0,0.0,0.0,0.0,0.0,0.0,0.0,0.0,0.0,0.0,0.0,0.0,0.0,0.0,0.0,0.0,0.0,0.0,0.0,0.0,0.0,0.0,0.0,0.0,0.0,0.0,0.0,0.0,0.0,0.0,0.0,0.0,0.0,0.0,0.0,0.0,0.0,0.0,0.0,0.0,0.0,0.0,0.0,0.0,0.0,0.0,0.0,0.0,0.0,0.0,0.0,0.0,0.0,0.0,0.0,0.0,0.0,0.0,0.0,0.0,0.0,0.0,0.0,0.0,0.0,0.0,0.0,0.0,0.0,0.0,0.0,0.0,0.0,1.9836,2.2661,2.5238,2.7097,2.8109,2.8355,2.7645,2.5724,2.3618,2.1382,0.0,0.0,0.0,0.0,0.0,0.0,0.0,0.0,0.0,0.0,0.0,0.0,0.0,0.0,0.0,0.0,0.0,0.0,0.0,0.0,0.0,0.0,0.0,0.0,0.0,0.0,0.0,0.0,0.0,0.0,0.0,0.0,0.0,0.0,0.0,0.0,0.0,0.0,0.0,0.0,0.0,0.0,0.0,0.0,0.0,0.0,0.0,0.0,0.0,0.0,0.0,0.0,0.0,0.0,0.0,0.0,0.0,0.0,0.0,0.0,0.0,0.0,0.0,0.0,0.0,0.0,0.0,0.0,0.0,0.0,0.0,0.0,0.0,0.0,0.0,0.0,0.0,0.0,0.0,0.0,0.0,0.0,0.0,0.0,0.0,0.0,0.0,0.0,0.0,0.0,0.0,0.0,0.0,0.0,0.0,0.0,0.0,0.0,0.0,0.0,0.0,0.0,2.0553,2.3567,2.6042,2.7173,2.7758,2.7663,2.6562,2.3904,2.1832,0.0,0.0,0.0,0.0,0.0,0.0,0.0,0.0,0.0,0.0,0.0,0.0,0.0,0.0,0.0,0.0,0.0,0.0,0.0,0.0,0.0,0.0,0.0,0.0,0.0,0.0,0.0,0.0,0.0,0.0,0.0,0.0,0.0,0.0,0.0,0.0,0.0,0.0,0.0,0.0,0.0,0.0,0.0,0.0,0.0,0.0,0.0,0.0,0.0,0.0,0.0,0.0,0.0,0.0,0.0,0.0,0.0,0.0,0.0,0.0,0.0,0.0,0.0,0.0,0.0,0.0,0.0,0.0,0.0,0.0,0.0,0.0,0.0,0.0,0.0,0.0,0.0,0.0,0.0,0.0,0.0,0.0,0.0,0.0,0.0,0.0,0.0,0.0,0.0,0.0,0.0,0.0,0.0,0.0,0.0,0.0,0.0,0.0,0.0,0.0,0.0,0.0,0.0,2.0553,2.3241,2.5473,2.6608,2.6889,2.652,2.5398,2.3464,2.1655,2.0163,0.0,0.0,0.0,0.0,0.0,0.0,0.0,0.0,0.0,0.0,0.0,0.0,0.0,0.0,0.0,0.0,0.0,0.0,0.0,0.0,0.0,0.0,0.0,0.0,0.0,0.0,0.0,0.0,0.0,0.0,0.0,0.0,0.0,0.0,0.0,0.0,0.0,0.0,0.0,0.0,0.0,0.0,0.0,0.0,0.0,0.0,0.0,0.0,0.0,0.0,0.0,0.0,0.0,0.0,0.0,0.0,0.0,0.0,0.0,0.0,0.0,0.0,0.0,0.0,0.0,0.0,0.0,0.0,0.0,0.0,0.0,0.0,0.0,0.0,0.0,0.0,0.0,0.0,0.0,0.0,0.0,0.0,0.0,0.0,0.0,0.0,0.0,0.0,0.0,0.0,0.0,0.0,0.0,0.0,0.0,0.0,0.0,0.0,0.0,0.0,0.0,0.0,2.0841,2.305,2.4908,2.6017,2.6147,2.5603,2.4239,2.301,2.158,1.9911,0.0,0.0,0.0,0.0,0.0,0.0,0.0,0.0,0.0,0.0,0.0,0.0,0.0,0.0,0.0,0.0,0.0,0.0,0.0,0.0,0.0,0.0,0.0,0.0,0.0,0.0,0.0,0.0,0.0,0.0,0.0,0.0,0.0,0.0,0.0,0.0,0.0,0.0,0.0,0.0,0.0,0.0,0.0,0.0,0.0,0.0,0.0,0.0,0.0,0.0,0.0,0.0,0.0,0.0,0.0,0.0,0.0,0.0,0.0,0.0,0.0,0.0,0.0,0.0,0.0,0.0,0.0,0.0,0.0,0.0,0.0,0.0,0.0,0.0,0.0,0.0,0.0,0.0,0.0,0.0,0.0,0.0,0.0,0.0,0.0,0.0,0.0,0.0,0.0,0.0,0.0,0.0,0.0,0.0,0.0,0.0,0.0,0.0,0.0,0.0,0.0,0.0,2.128,2.2912,2.4356,2.5473,2.5498,2.4763,2.3067,2.2489,2.1462,1.9642,0.0,0.0,0.0,0.0,0.0,0.0,0.0,0.0,0.0,0.0,0.0,0.0,0.0,0.0,0.0,0.0,0.0,0.0,0.0,0.0,0.0,0.0,0.0,0.0,0.0,0.0,0.0,0.0,0.0,0.0,0.0,0.0,0.0,0.0,0.0,0.0,0.0,0.0,0.0,0.0,0.0,0.0,0.0,0.0,0.0,0.0,0.0,0.0,0.0,0.0,0.0,0.0,0.0,0.0,0.0,0.0,0.0,0.0,0.0,0.0,2.2104,0.0,0.0,0.0,0.0,0.0,0.0,0.0,0.0,0.0,0.0,0.0,0.0,0.0,0.0,0.0,0.0,0.0,0.0,0.0,0.0,0.0,0.0,0.0,0.0,0.0,0.0,0.0,0.0,0.0,0.0,0.0,0.0,0.0,0.0,0.0,0.0,0.0,0.0,0.0,0.0,0.0,2.128,2.2546,2.3888,2.5435,2.4833,2.3611,2.1759,2.1654,2.0462,1.7629,1.7328,0.0,0.0,0.0,0.0,0.0,0.0,0.0,0.0,0.0,0.0,0.0,0.0,0.0,0.0,0.0,0.0,0.0,0.0,0.0,0.0,0.0,0.0,0.0,0.0,0.0,0.0,0.0,0.0,0.0,0.0,0.0,0.0,0.0,0.0,0.0,0.0,0.0,0.0,0.0,0.0,0.0,0.0,0.0,0.0,0.0,0.0,0.0,0.0,0.0,0.0,0.0,0.0,0.0,0.0,0.0,0.0,0.0,0.0,0.0,0.0,2.3834,0.0,0.0,0.0,0.0,0.0,0.0,0.0,0.0,0.0,0.0,0.0,0.0,0.0,0.0,0.0,0.0,0.0,0.0,0.0,0.0,0.0,0.0,0.0,0.0,0.0,0.0,0.0,0.0,0.0,0.0,0.0,0.0,0.0,0.0,0.0,0.0,0.0,0.0,0.0,0.0,2.136,2.1777,2.2412,2.374,2.303,2.185,2.0323,2.0109,1.9242,1.7319,1.7013,0.0,0.0,0.0,0.0,0.0,0.0,0.0,0.0,0.0,0.0,0.0,0.0,0.0,0.0,0.0,0.0,0.0,0.0,0.0,0.0,0.0,0.0,0.0,0.0,0.0,0.0,0.0,0.0,0.0,0.0,0.0,0.0,0.0,0.0,0.0,0.0,0.0,0.0,0.0,0.0,0.0,0.0,0.0,0.0,0.0,0.0,0.0,0.0,0.0,0.0,0.0,0.0,0.0,3.1758,3.2002,3.2033,3.1674,3.1419,3.124,2.9997,2.8588,2.6973,2.5087,0.0,0.0,0.0,0.0,0.0,0.0,0.0,0.0,0.0,0.0,0.0,0.0,0.0,0.0,0.0,0.0,0.0,0.0,0.0,0.0,0.0,0.0,0.0,0.0,2.5435,2.5089,2.2601,0.0,0.0,0.0,0.0,0.0,0.0,0.0,0.0,0.0,0.0,0.0,2.1233,2.101,2.1033,2.1912,2.1318,2.0369,1.9113,1.8754,1.8248,1.7386,1.6958,1.6467,0.0,0.0,0.0,0.0,0.0,0.0,0.0,0.0,0.0,0.0,0.0,0.0,0.0,0.0,0.0,0.0,0.0,0.0,0.0,0.0,0.0,0.0,0.0,0.0,0.0,0.0,0.0,0.0,0.0,0.0,0.0,0.0,2.5354,2.6702,0.0,0.0,0.0,0.0,0.0,0.0,0.0,0.0,0.0,0.0,0.0,0.0,0.0,3.0319,3.1742,3.3758,3.5065,3.5708,3.7972,3.8759,3.824,3.8751,3.8661,3.806,3.73,0.0,2.9084,2.766,0.0,0.0,0.0,0.0,0.0,0.0,0.0,0.0,0.0,0.0,0.0,0.0,0.0,0.0,0.0,0.0,0.0,0.0,0.0,0.0,0.0,0.0,2.5996,2.6223,2.6336,2.6004,0.0,2.3368,2.2538,2.2733,2.1131,0.0,0.0,0.0,0.0,0.0,0.0,0.0,2.0418,2.09,2.1353,2.1945,2.1492,2.0473,1.8807,1.8879,1.8238,1.6407,1.6448,1.6229,1.5496,1.5529,0.0,0.0,0.0,0.0,0.0,0.0,0.0,0.0,0.0,0.0,0.0,0.0,0.0,0.0,0.0,0.0,0.0,0.0,0.0,0.0,0.0,0.0,0.0,0.0,0.0,0.0,0.0,0.0,0.0,2.6586,2.857,2.9346,2.9571,2.8975,0.0,0.0,0.0,0.0,0.0,0.0,0.0,0.0,0.0,3.4069,3.4577,3.5308,3.637,3.8362,3.9712,4.04,4.1504,4.2068,4.2143,4.2068,4.1874,4.156,4.0905,3.8963,3.5955,3.2392,3.0087,2.854,0.0,0.0,0.0,0.0,2.4239,2.4751,2.5063,2.5544,2.5913,2.5235,0.0,0.0,0.0,0.0,0.0,0.0,0.0,0.0,0.0,0.0,2.6159,2.681,2.6726,2.6276,2.5429,2.4299,2.3222,0.0,2.2243,2.1876,2.093,0.0,0.0,0.0,0.0,1.9378,2.037,2.0295,2.0214,2.0458,1.9834,1.9008,1.8013,1.7821,1.7277,1.617,1.6208,1.6128,1.5811,1.5796,1.5796,0.0,0.0,0.0,0.0,0.0,0.0,0.0,0.0,0.0,0.0,0.0,0.0,0.0,0.0,0.0,0.0,0.0,0.0,0.0,0.0,0.0,0.0,0.0,0.0,0.0,0.0,0.0,0.0,2.9392,3.1151,3.1398,3.2322,3.1943,0.0,0.0,0.0,0.0,0.0,0.0,3.5328,3.5707,3.6906,3.9199,3.9836,4.0487,4.1156,4.2641,4.3663,4.4137,4.4087,4.4341,4.479,4.4296,4.3962,4.3788,4.3349,4.2594,4.131,3.6658,3.3769,3.202,2.9507,2.8268,2.7768,2.703,2.7026,2.7431,2.7867,2.8156,2.8286,2.7723,2.6779,2.5619,2.4352,0.0,0.0,0.0,0.0,2.5097,2.6203,2.6372,2.638,2.6952,2.6792,2.6289,2.5552,2.5078,2.4332,0.0,2.2999,2.2865,2.1096,0.0,0.0,0.0,0.0,1.9469,2.0301,1.9844,1.9404,1.9315,1.8721,1.8125,1.7604,1.7025,1.6576,1.6265,1.604,1.5977,1.61,1.6202,1.6304,1.6427,0.0,0.0,0.0,0.0,0.0,0.0,0.0,0.0,0.0,0.0,0.0,0.0,0.0,0.0,0.0,0.0,0.0,0.0,0.0,0.0,0.0,0.0,0.0,0.0,0.0,0.0,0.0,0.0,0.0,3.1492,3.5323,0.0,0.0,0.0,0.0,3.4015,3.5186,3.6859,3.9019,3.9748,4.1557,4.4792,4.4936,4.5274,4.5956,4.6046,4.6121,4.6151,4.6151,4.6166,4.6196,4.6166,4.5792,4.52,4.517,4.4101,4.2133,3.931,3.7719,3.6733,3.3623,3.2397,3.2167,3.0352,2.9707,2.9715,2.9694,2.9315,2.9032,3.0068,2.9622,2.8392,2.6809,2.5904,0.0,0.0,2.6306,2.7042,2.6621,2.7228,2.7718,2.6776,2.6522,2.6192,2.5073,2.566,2.6043,0.0,2.2863,2.1574,2.2258,0.0,1.9869,1.9844,1.9523,1.9458,1.988,1.9902,1.9708,1.9344,1.9266,1.8887,1.803,1.72,1.6687,1.6668,1.5893,1.5649,1.6075,1.6475,1.6879,1.7331,1.735,0.0,0.0,0.0,0.0,0.0,0.0,0.0,0.0,0.0,0.0,0.0,0.0,0.0,0.0,0.0,0.0,0.0,0.0,0.0,0.0,0.0,0.0,0.0,0.0,0.0,0.0,0.0,0.0,3.5881,3.8905,0.0,3.7121,3.7488,3.7994,3.8211,3.9817,4.1678,4.3728,4.4481,4.5768,4.781,4.787,4.7989,4.8244,4.7803,4.7593,4.7578,4.716,4.6929,4.6929,4.6929,4.6815,4.6518,4.5256,4.432,4.3523,4.1326,3.9282,3.7343,3.4842,3.3854,3.3699,3.2442,3.2191,3.2422,3.2055,3.1783,3.1436,3.0419,2.9546,2.8787,2.8217,2.7878,2.7707,2.7667,2.7949,2.8123,2.7447,2.7038,2.6649,2.5958,2.5259,2.4557,2.3861,2.4038,2.4193,2.378,2.3381,2.291,2.2216,2.1341,2.0634,2.0364,2.0207,2.0077,1.9913,2.0156,2.0185,1.9736,1.9443,1.9043,1.8449,1.7864,1.7425,1.7168,1.6855,1.6764,1.692,1.707,1.7353,1.7773,1.7793,1.7519,0.0,0.0,0.0,0.0,0.0,0.0,0.0,0.0,0.0,0.0,0.0,0.0,0.0,0.0,0.0,0.0,0.0,0.0,0.0,0.0,0.0,0.0,0.0,0.0,0.0,3.5171,3.8553,3.9314,4.2167,4.3254,4.1246,4.1664,4.2252,4.2701,4.4347,4.6091,4.7856,4.8364,4.9134,5.025,5.028,5.007,4.9598,4.9164,4.873,4.8282,4.7848,4.7519,4.7309,4.7309,4.7062,4.6587,4.5284,4.4237,4.3342,4.1863,4.0026,3.7975,3.6757,3.6148,3.5869,3.486,3.4462,3.4352,3.3822,3.3508,3.3102,3.1457,3.0507,2.9895,2.9305,2.9145,2.908,2.8812,2.8719,2.8545,2.7668,2.6909,2.6161,2.5279,2.4416,2.3711,2.3396,2.3198,2.3091,2.3091,2.3483,2.3408,2.2118,2.1641,2.125,2.0674,2.0459,2.0263,1.9932,2.0166,2.0185,1.9746,1.9453,1.9111,1.8637,1.7954,1.7529,1.7409,1.7116,1.7086,1.7389,1.7246,1.7363,1.7793,1.7803,1.764,1.734,0.0,0.0,0.0,0.0,0.0,0.0,0.0,0.0,0.0,0.0,0.0,0.0,0.0,0.0,0.0,0.0,0.0,0.0,0.0,0.0,0.0,0.0,0.0,3.4192,3.7988,4.0831,4.1568,4.508,4.6696,4.4751,4.6322,4.7459,4.7459,4.8678,4.9965,5.1191,5.1251,5.155,5.2217,5.2217,5.1588,5.0293,5.0211,4.9576,4.8334,4.8319,4.7938,4.7309,4.7251,4.6572,4.5403,4.532,4.3882,4.1551,4.0997,4.0041,3.8982,3.9538,3.9365,3.8699,3.7605,3.6496,3.5445,3.4916,3.4377,3.3859,3.3329,3.2721,3.1879,3.0188,2.964,2.9446,2.8755,2.8567,2.832,2.716,2.6861,2.6447,2.4809,2.4121,2.3851,2.3809,2.3445,2.311,2.311,2.311,2.2859,2.206,2.1944,2.1651,2.0791,2.0264,0.0,1.9942,1.9932,1.9795,1.9375,1.9344,1.915,1.8656,1.7486,1.6966,1.7389,1.6633,1.6545,1.738,1.6986,1.6966,1.7429,1.7438,1.7832,1.8617,0.0,0.0,0.0,0.0,0.0,0.0,0.0,0.0,0.0,0.0,0.0,0.0,0.0,0.0,0.0,0.0,0.0,0.0,0.0,0.0,0.0,3.5009,3.7409,3.7925,4.1434,4.4756,4.6867,4.9314,5.0646,5.0077,5.0526,5.0855,5.0855,5.1633,5.2285,5.2621,5.2636,5.2725,5.2929,5.2441,5.2022,5.1663,5.0697,4.98,4.9022,4.8543,4.7938,4.7287,4.6344,4.5734,4.5298,4.3456,4.2241,4.1517,4.0437,3.9804,3.9422,3.8739,3.8149,3.7629,3.7318,3.6771,3.608,3.5481,3.5169,3.4979,3.4427,3.3284,3.2049,3.1559,3.0504,2.9229,2.8174,2.787,2.76,2.6343,2.6042,2.5837,2.5085,2.4818,2.4652,2.4316,2.3906,2.3613,2.3613,2.3337,2.3023,2.281,2.2771,2.2586,2.206,2.1875,0.0,2.0917,2.083,2.0684,2.0283,2.0234,1.9931,1.917,1.8789,1.8369,1.7871,1.7607,1.7588,1.7832,1.7708,1.7844,1.8264,1.8274,1.8547,0.0,0.0,0.0,0.0,0.0,0.0,0.0,0.0,0.0,0.0,0.0,0.0,0.0,0.0,0.0,0.0,0.0,0.0,0.0,0.0,0.0,0.0,3.9469,4.2442,4.4102,4.5858,4.7959,5.0609,5.1941,5.2725,5.301,5.3039,5.292,5.2636,5.3234,5.3608,5.3608,5.3608,5.3608,5.3608,5.3234,5.277,5.2202,5.1415,5.0578,4.9673,4.9037,4.8082,4.6889,4.5872,4.4826,4.374,4.2241,4.1294,4.0743,4.0006,3.9697,0.0,0.0,0.0,0.0,0.0,3.6658,3.6344,3.5994,3.5344,3.4605,3.4286,3.2857,3.1125,3.0614,2.9613,2.8389,2.7149,2.6802,2.6644,2.5902,2.5693,2.565,2.541,2.5229,2.5024,2.4746,2.4355,2.4053,2.4053,2.3711,0.0,2.3386,2.3093,2.2713,2.2314,2.2079,2.1776,2.1279,2.119,2.1045,2.0635,2.0605,2.0312,1.9609,1.9219,0.0,0.0,0.0,1.8254,1.8254,1.8254,0.0,0.0,0.0,1.9015,1.9843,0.0,0.0,0.0,1.9415,1.9249,0.0,0.0,0.0,0.0,0.0,0.0,0.0,0.0,0.0,0.0,0.0,0.0,0.0,0.0,0.0,0.0,4.3823,4.7294,5.1101,5.0601,5.0714,5.3049,5.3378,5.3677,5.4266,5.4386,5.4147,5.3483,5.4042,5.4401,5.4326,5.4326,0.0,0.0,0.0,5.3593,5.2321,5.2232,5.1434,4.9958,4.9423,4.8132,4.6125,4.5404,4.3796,4.1604,4.1455,4.0743,3.9697,3.9697,3.9697,3.9685,3.9622,3.8944,3.7889,3.6859,3.636,3.6156,3.6156,0.0,0.0,3.3361,3.1823,2.9771,2.8699,2.7983,2.7294,2.6103,2.5815,2.581,2.5737,2.5747,2.5776,2.5703,2.543,2.517,2.517,2.4795,2.4492,2.4492,2.4111,2.3789,2.3789,2.3115,2.2461,2.209,2.1679,2.1395,2.1346,2.1337,2.1171,2.0713,0.0,0.0,1.9942,1.9249,1.8957,1.9286,1.8908,1.8695,1.8744,1.8792,1.8859,1.889,1.8939,1.957,2.0752,2.0752,2.1133,2.1876,2.0684,2.0342,0.0,0.0,0.0,0.0,0.0,0.0,0.0,0.0,0.0,0.0,0.0,0.0,0.0,0.0,0.0,4.4551,4.7916,5.1094,5.4012,5.3743,5.3443,5.3952,5.4476,5.485,5.4985,5.5504,5.5549,5.485,5.5444,5.5593,5.5029,5.4999,5.4999,5.4999,5.4491,5.3817,5.3019,5.2471,5.0985,4.86,0.0,0.0,4.4667,4.3511,4.2475,4.153,4.0503,3.9929,3.9697,3.9697,3.9697,3.9647,3.922,3.863,3.7927,3.7286,3.6097,3.4775,3.4775,3.3801,3.2522,3.2522,3.1282,2.9714,2.9474,2.8328,0.0,2.6432,2.6514,2.6586,2.5893,2.5971,2.6172,2.5796,2.565,2.5581,2.5581,2.5264,2.4965,2.4965,2.4339,2.3789,2.3789,2.3337,2.2967,2.2888,2.2779,2.2625,2.2284,2.2245,2.1952,2.1171,2.1416,2.1162,1.9991,2.0078,1.995,1.9344,1.9209,1.9316,1.964,2.001,2.0361,2.0683,2.1074,2.1387,2.1651,2.1651,2.1739,2.1896,2.1621,2.1553,0.0,0.0,0.0,0.0,0.0,0.0,0.0,0.0,0.0,0.0,0.0,3.6355,3.7706,0.0,4.5813,4.8775,5.1753,5.4266,5.5912,5.6152,5.5782,5.482,5.5284,5.5578,5.5224,5.5818,5.5923,5.5239,5.5519,5.5564,5.5209,5.5194,5.5194,5.5194,5.488,5.4206,5.3213,5.2884,5.1339,4.871,4.8369,4.681,4.4224,4.2979,4.1925,4.1003,4.0107,3.9697,3.9697,3.9697,3.9697,3.9608,3.8587,3.8136,3.7939,3.7387,3.6002,3.441,3.441,3.303,3.1301,3.1301,3.0116,2.8706,2.8706,2.79,2.6973,2.6758,2.683,2.6889,2.6459,2.6508,2.665,2.6401,2.6352,2.6293,2.6079,2.5889,2.5688,2.5449,2.4896,2.4457,2.4457,2.4062,2.361,2.3159,2.3091,2.3023,2.283,2.2801,2.2566,2.1923,2.207,2.1846,2.0977,2.1123,2.1065,2.0635,2.0605,2.0684,2.0889,2.1133,2.1348,2.1553,2.1777,2.2013,2.2197,2.2197,2.2305,2.2488,2.1871,2.1809,0.0,0.0,0.0,0.0,0.0,0.0,0.0,3.2332,3.4532,3.5579,3.8736,4.1818,4.3424,4.6867,5.0212,5.2591,5.489,5.6596,5.7214,5.7663,5.7289,5.5583,5.5983,5.6117,5.5474,5.5998,5.6057,5.5254,5.5314,5.5354,5.5209,5.5194,5.5194,5.5194,5.5194,5.4421,5.2817,5.2802,5.1306,4.8375,4.7726,4.6091,4.3611,4.2514,4.1402,4.0311,3.9885,3.9697,3.9697,3.9697,3.953,3.9155,3.7967,3.7429,3.7255,3.6739,3.534,3.3739,3.3635,3.1963,2.9911,2.9911,2.8965,2.7809,2.7809,2.7539,2.7246,2.7168,2.7197,2.7201,2.7025,2.708,2.7119,2.7006,2.6986,2.6898,2.6582,2.6514,2.6406,2.603,2.5625,2.5346,2.5346,2.4961,2.4362,2.3471,2.3298,2.324,2.324,2.3171,2.2957,2.2537,2.2488,2.2344,2.1924,2.1905,2.1905,2.1905,2.1905,2.1831,2.167,2.1898,2.1832,2.1449,2.1889,2.2053,2.1921,2.2145,2.2308,2.2381,2.1396,2.1423,2.6854,2.6479,2.7258,2.9505,3.0628,3.2706,0.0,4.0146,4.1089,4.3499,4.6238,4.8259,4.8506,5.1259,5.4027,5.5519,5.6462,5.7229,5.789,5.7543,5.6915,5.6177,5.6641,5.6776,5.6147,5.6656,5.6496,5.5284,5.5758,5.5833,5.5224,5.5194,5.5194,5.5194,5.5194,5.3964,5.1367,5.1327,4.9352,4.5475,4.4915,4.3585,4.1607,4.0988,4.0368,3.9785,3.9722,3.9697,3.9697,3.9697,3.8947,3.7743,3.7545,3.6395,3.4755,3.432,3.2974,3.1322,3.0896,2.9791,2.8521,2.8521,2.8385,2.8223,2.8223,2.8193,2.8076,2.7721,2.7888,2.7978,2.7217,2.7305,2.7526,2.7109,2.6986,2.6976,2.6953,2.6918,2.6934,2.6859,2.6533,2.624,2.624,2.5879,2.5269,2.4381,2.3955,2.3721,2.3721,2.3357,2.2957,2.2537,2.2488,2.2344,2.1924,2.1905,2.1905,2.1905,2.1905,2.1593,2.0859,2.1859,2.159,1.9794,2.1866,2.1929,1.9847,2.0918,2.0922,1.9906,1.977,2.0324,3.121,3.1494,3.2302,3.4532,3.6477,3.8751,4.2282,4.4606,4.6298,4.7406,5.0354,5.2615,5.2217,5.4521,5.6634,5.7214,5.7842,5.8366,5.865,5.7767,5.6896,5.6267,5.6087,5.5882,5.5653,5.6207,5.6207,5.5269,5.5474,5.5504,5.5209,5.4381,5.3912,5.3912,5.3054,5.1695,4.9842,4.9802,4.819,4.4994,4.4771,4.3838,4.2258,4.1365,4.0487,3.9697,3.9697,3.9697,3.9633,3.8765,3.8046,3.7332,3.5595,3.4411,3.3673,3.4027,3.2964,3.1324,3.1135,3.0181,2.9061,2.9061,2.8867,2.8662,2.8662,2.8486,2.8252,2.8112,2.8181,2.8213,2.7851,2.7891,2.8015,2.7803,2.7764,2.7685,2.7467,2.7418,2.7314,2.706,2.6875,2.6758,2.6758,2.6602,2.6332,2.5962,2.5137,2.4466,2.4189,2.3971,2.3796,2.361,2.3601,2.3447,2.3049,2.302,2.2891,2.2615,2.1935,2.1398,2.1071,2.0859,2.036,1.9511,2.0494,2.0517,1.9497,2.0011,1.9988,1.9474,1.8772,1.8726,3.4143,3.5251,3.6582,3.8918,4.1777,4.4412,4.5873,4.8641,5.0923,5.0923,5.3498,5.5463,5.464,5.6316,5.7816,5.7816,5.8396,5.877,5.8575,5.7558,5.6492,5.5489,5.4785,5.4371,5.4371,5.5324,5.5728,5.5224,5.5194,5.5027,5.4601,5.3571,5.2804,5.2375,5.1123,4.9789,4.8367,4.8176,4.6867,4.4454,4.4285,4.3626,4.2484,4.1365,4.0424,3.9697,3.9697,3.9465,3.9025,3.794,3.7026,3.6058,3.3929,3.2861,3.2574,3.3191,3.249,3.1196,3.11,3.0419,2.9598,2.9598,2.9355,2.9082,2.8928,2.8789,2.8621,2.8359,2.8379,2.8467,2.8467,2.8467,2.8379,2.8052,2.7972,2.7777,2.7032,2.6876,2.6755,2.6345,2.627,2.6364,2.6679,2.639,2.6222,2.6498,2.5421,2.4673,2.4911,2.4746,2.459,2.459,2.4492,2.4126,2.3475,2.34,2.3074,2.2259,2.1397,2.0725,2.0328,1.9784,1.9177,1.8488,1.9154,1.9169,1.8488,1.8833,1.881,1.8465,1.7584,1.7178,3.4143,3.5878,3.8138,4.1452,4.522,4.8611,5.0548,5.3084,5.5014,5.5014,5.6092,5.666,5.5388,5.6241,5.7124,5.7124,5.7708,5.789,5.7244,5.6626,5.5504,5.3528,5.2695,5.2291,5.2291,5.4072,5.5209,5.5194,5.5194,5.4575,5.3136,5.3016,5.2307,5.0809,5.0215,4.8982,4.6983,4.6387,4.5054,4.3045,4.2544,4.1949,4.1327,4.0249,3.9722,3.9697,3.9697,3.8882,3.7545,3.7518,3.5813,3.3208,3.3134,3.2236,3.0976,3.1015,3.0692,3.0202,2.9791,2.9626,2.9598,2.9598,2.9588,2.95,2.9053,2.9209,2.9383,2.8552,2.8584,2.8869,2.8869,2.8869,2.8582,2.7402,2.7152,2.6705,2.5123,2.4795,2.4717,2.4448,2.4382,2.4746,2.5936,2.4905,2.4245,2.5299,2.4191,2.3988,2.6066,2.56,2.5072,2.5072,2.4668,2.3863,2.2539,2.2445,2.174,2.0103,1.9961,1.9301,1.7862,1.891,1.8372,1.5967,1.828,1.8326,1.592,1.7154,1.7131,1.592,1.5872,1.5855,3.7165,3.9828,4.2791,4.6133,4.9277,5.1851,5.295,5.4895,5.5957,5.4231,5.3847,5.3309,5.1597,5.1642,5.2345,5.3638,5.479,5.5748,5.6417,5.5953,5.4446,5.155,5.1385,5.1035,4.9733,5.1394,5.3099,5.4446,5.3206,5.258,5.2973,5.1113,4.9776,4.9266,4.7764,4.6455,4.5387,4.4824,4.4023,4.3002,4.2449,4.1708,4.075,4.0413,4.0036,3.9645,3.8661,3.7967,3.7358,3.5387,3.4158,3.3382,3.2128,3.1503,3.1269,3.0996,3.0791,3.0635,3.0527,3.0449,3.0449,3.0449,3.0263,2.9781,2.8529,2.8048,2.7646,2.628,2.6005,2.6109,2.6109,2.6109,2.6021,2.5603,2.5522,2.5368,2.4816,2.4699,2.4666,2.4572,2.4585,2.468,2.5101,2.4598,2.4174,2.4325,2.3426,2.3008,2.3713,2.3557,2.3321,2.3119,2.298,2.2485,2.1561,2.147,2.1116,2.0293,1.9437,1.8672,1.7997,1.7758,1.7053,1.5808,1.7008,1.7039,1.5808,1.645,1.645,1.5808,1.5808,1.5808,3.9697,4.3218,4.6875,5.0235,5.2675,5.4456,5.5089,5.5852,5.5658,5.3025,5.1588,5.0085,4.7645,4.7181,4.7915,5.0092,5.1379,5.28,5.4845,5.4326,5.298,5.0817,5.0277,4.9646,4.8643,4.9024,5.0301,5.2595,5.1419,5.0758,5.1105,4.9442,4.8255,4.7727,4.6065,4.4995,4.4589,4.3878,4.3225,4.27,4.216,4.1392,4.0487,4.0312,3.975,3.8856,3.7914,3.6892,3.5786,3.3873,3.3036,3.28,3.1583,3.1377,3.1719,3.1445,3.125,3.1094,3.0947,3.0889,3.0889,3.0889,3.0287,2.9323,2.8148,2.7284,2.6416,2.5094,2.4789,2.4917,2.4917,2.4917,2.4802,2.4406,2.4319,2.414,2.3541,2.3398,2.339,2.3305,2.3282,2.3415,2.3852,2.366,2.3236,2.2482,2.1813,2.1783,2.2839,2.2832,2.2669,2.2519,2.2327,2.1825,2.0767,2.0694,2.0262,1.9313,1.848,1.7903,1.7612,1.7015,1.6526,1.6128,1.6513,1.652,1.6122,1.6333,1.6326,1.6122,1.6122,1.6122,4.1838,4.6043,5.0217,5.3479,5.5254,5.6312,5.6735,5.5837,5.4117,5.1355,4.9164,4.6762,4.3544,4.3015,4.3973,4.6666,4.7833,4.9561,5.2839,5.219,5.1336,5.1216,4.9373,4.8311,4.8833,4.7145,4.711,4.9764,4.98,4.9118,4.7827,4.8155,4.7743,4.6293,4.5167,4.4577,4.4552,4.3514,4.2725,4.22,4.1605,4.1026,4.0474,3.9858,3.883,3.7492,3.7355,3.5699,3.3106,3.3073,3.2466,3.1553,3.1553,3.1816,3.2228,3.2107,3.1764,3.1306,3.0839,3.0723,3.0772,3.0791,2.9667,2.8197,2.7741,2.6798,2.5685,2.4768,2.4787,2.5098,2.5098,2.5098,2.4806,2.3739,2.3481,2.3052,2.145,2.1109,2.1029,2.0786,2.0733,2.1088,2.2206,2.2142,2.1459,2.0021,1.9579,2.0421,2.3215,2.323,2.299,2.2974,2.2584,2.1703,2.0154,2.0003,1.9218,1.7357,1.7233,1.7066,1.674,1.674,1.6734,1.6707,1.6734,1.6734,1.6707,1.672,1.672,1.6707,1.6707,1.6707,4.6615,4.9718,5.2015,5.4966,5.5953,5.5713,5.3862,5.2091,4.9771,4.6076,4.2577,3.9469,3.7182,3.7943,4.0109,4.3728,4.7362,5.0877,5.4206,5.423,5.3138,5.1132,5.0251,4.9118,4.7389,4.6704,4.6502,4.6813,4.6785,4.7215,4.8241,4.7368,4.6505,4.574,4.4995,4.4401,4.4016,4.3353,4.2725,4.22,4.1605,4.1026,4.0435,3.8827,3.7861,3.7409,3.548,3.4082,3.3073,3.2619,3.2275,3.2032,3.2032,3.2296,3.2434,3.0797,2.9987,2.9498,2.8057,2.8201,2.9085,2.9449,2.8231,2.6362,2.5073,2.4447,2.3893,2.2446,2.2088,2.2182,2.2182,2.2182,2.211,2.18,2.1727,2.1632,2.1204,2.1109,2.1089,2.1009,2.0995,2.1027,2.1125,2.1094,2.0818,2.0184,1.9873,1.9899,2.0464,2.0415,2.0281,2.0012,1.9892,1.9556,1.8961,1.8672,1.8319,1.7829,1.7602,1.7367,1.7073,1.7267,1.7154,1.6714,1.7134,1.7141,1.6707,1.6953,1.6946,1.6707,1.6707,1.6707,4.9902,5.2592,5.3928,5.5008,5.5526,5.4679,5.0504,4.8282,4.5723,4.0872,3.7642,3.4996,3.2751,3.4188,3.6896,4.0543,4.4249,4.8327,5.3206,5.2836,5.2092,5.2108,5.0574,4.8953,4.7525,4.6584,4.6022,4.5958,4.5755,4.6054,4.7137,4.6628,4.605,4.551,4.492,4.4242,4.3451,4.3165,4.2725,4.2213,4.1844,4.1029,3.9773,3.8611,3.7294,3.5752,0.0,3.3406,3.238,3.2266,3.2306,3.2472,3.2472,3.2243,3.1756,3.0519,2.9359,2.8268,2.7475,2.6963,2.6786,2.7496,2.6463,2.4778,2.3876,2.3084,2.231,2.1355,2.1109,2.1109,2.1109,2.1109,2.1109,2.1109,2.1109,2.1109,2.1109,2.1109,2.1109,2.1109,2.1109,2.1056,2.0895,2.0793,2.0652,2.0454,2.018,1.9927,1.9766,1.9555,1.9334,1.9132,1.9118,1.8998,1.8704,1.8496,1.8349,1.8223,1.7929,1.7716,1.7549,1.7569,1.7428,1.7094,1.7441,1.7422,1.7088,1.7287,1.728,1.7088,1.7088,1.7088,5.2072,5.4404,5.5132,5.4209,5.4333,5.308,4.6966,4.4364,4.1649,3.6013,3.3634,3.1913,2.9743,3.1479,3.4427,3.8063,4.0687,4.46,5.1235,5.0117,4.9801,5.297,5.0375,4.8319,4.824,4.6708,4.5874,4.6276,4.5861,4.5598,4.5598,4.605,4.6024,4.5397,4.4744,4.3953,4.3014,4.3002,4.2763,4.2286,4.2018,4.0872,3.8994,3.8521,3.6657,3.3806,3.4082,3.3192,3.1641,3.2169,3.2519,3.2803,3.2861,3.2021,3.0771,3.0545,2.9071,2.7214,2.7367,2.5967,2.4287,2.549,2.4734,2.3329,2.3329,2.2282,2.1109,2.1109,2.1109,2.1109,2.1109,2.1109,2.1109,2.1109,2.1109,2.1109,2.1109,2.1109,2.1109,2.1109,2.1109,2.1109,2.1109,2.0902,2.0766,2.0766,2.0481,2.0264,2.0264,1.978,1.9455,1.9455,1.9421,1.9294,1.8976,1.8916,1.879,1.8564,1.8243,1.8076,1.8076,1.7842,1.7709,1.7642,1.7642,1.7648,1.7608,1.7608,1.7608,1.7608,1.7608,1.7608,5.2905,5.3822,5.3135,5.3385,5.2666,5.0201,4.3712,3.9958,3.6628,3.2273,2.946,2.7827,2.7929,3.0088,3.3664,3.9155,4.1805,4.5251,5.1197,5.0104,4.9253,5.0727,4.9166,4.78,4.7369,4.7013,4.6672,4.6338,4.6225,4.6175,4.6175,4.6263,4.5836,4.4778,4.379,4.3203,4.3002,4.3002,4.2951,4.2823,4.1046,4.0025,3.954,3.6549,3.4859,3.423,3.3427,0.0,3.2149,3.2881,3.3037,3.2832,3.3174,3.2267,3.0642,2.9181,2.731,2.5295,2.3885,2.2983,2.2747,2.4627,2.3742,2.1945,2.1945,2.1558,2.1109,2.1109,2.1109,2.1109,2.1109,2.1109,2.1109,2.1109,2.1109,2.1109,2.1109,2.1109,2.1109,2.1109,2.1109,2.1109,2.1109,2.1069,2.1036,2.1036,2.0788,2.0601,2.0601,2.0087,1.9726,1.9726,1.9542,1.9374,1.9321,1.9065,1.8876,1.8823,1.8577,1.841,1.841,1.8364,1.8217,1.7942,1.7936,1.7816,1.7608,1.7608,1.7608,1.7608,1.7608,1.7608,5.295,5.2925,5.1321,5.1207,4.9859,4.6691,3.9458,3.6321,3.3604,2.8921,2.6946,2.6078,2.6048,2.8743,3.199,3.511,3.7787,4.1344,4.6641,4.6181,4.6334,4.9141,4.8274,4.7375,4.7124,4.7099,4.6873,4.6351,4.6547,4.6584,4.6326,4.5748,4.5154,4.4614,4.3551,4.3002,4.3002,4.3002,4.3002,4.2974,4.1108,3.9781,3.889,3.6289,3.4559,3.3558,3.323,3.2881,3.2579,3.3164,3.3301,3.3144,3.3308,3.1771,2.9344,2.8501,2.6413,2.3834,2.2944,2.2592,2.2627,2.3624,2.2969,2.1783,2.1629,2.1489,2.1309,2.1156,2.1109,2.1109,2.1109,2.1109,2.1109,2.1109,2.1109,2.1109,2.1109,2.1109,2.1109,2.1109,2.1109,2.1109,2.1109,2.1109,2.1109,2.1109,2.0989,2.0902,2.0902,2.0528,2.0194,2.004,1.99,1.982,1.982,1.9546,1.9379,1.9379,1.8958,1.8718,1.8718,1.8571,1.8424,1.8249,1.8096,1.7942,1.7796,1.7796,1.7742,1.7615,1.7929,1.7909,5.1933,5.1531,4.9701,4.8777,4.6889,4.3327,3.5973,3.3296,3.1072,2.6529,2.515,2.4763,2.4813,2.7371,2.9906,3.12,3.3387,3.6667,4.1717,4.1897,4.3057,4.732,4.7198,4.6798,4.691,4.7036,4.6873,4.6351,4.6685,4.6735,4.6338,4.5347,4.4778,4.4778,4.3727,4.3178,4.3178,4.3065,4.2821,4.2472,4.0954,3.9333,3.7626,3.6126,3.4521,3.2949,3.325,3.3232,3.2949,3.3281,3.3386,3.3386,3.3386,3.1281,2.8205,2.8205,2.5953,2.2893,2.2893,2.2893,2.2893,2.2893,2.2499,2.1977,2.1749,2.1589,2.1442,2.1176,2.1109,2.1109,2.1109,2.1109,2.1109,2.1109,2.1109,2.1109,2.1109,2.1162,2.1189,2.1122,2.1162,2.1182,2.1122,2.1109,2.1109,2.1109,2.1109,2.1109,2.1109,2.0909,2.0675,2.0417,2.0277,2.0204,2.0204,2.0027,1.9867,1.9806,1.9366,1.9056,1.9018,1.8798,1.8651,1.8584,1.8329,1.8149,1.8116,1.8116,1.7989,1.7789,1.827,1.8264,4.8996,4.9308,4.8312,4.6833,4.4325,4.0714,3.4984,3.1089,2.8092,2.6024,2.3704,2.2769,2.5076,2.585,2.745,3.147,3.1878,3.3712,3.9401,3.9626,4.0642,4.4518,4.5372,4.5836,4.6338,4.681,4.6873,4.6351,4.6363,4.6333,4.6313,4.5736,4.5409,4.5409,4.4317,4.3727,4.3727,4.3253,4.2263,4.0817,3.9611,3.7984,3.597,3.4805,3.3929,3.3369,3.3377,3.3367,0.0,3.3377,3.3386,3.3386,3.3386,3.1281,2.8205,2.8205,2.5953,2.2893,2.2893,2.2893,2.2893,2.2893,2.2499,2.2017,2.1984,2.1577,2.1142,2.1116,2.1109,2.1109,2.1109,2.1109,2.1109,2.1109,2.1109,2.1109,2.1109,2.1355,2.1462,2.1162,2.1361,2.1462,2.1156,2.1109,2.1109,2.1109,2.1109,2.1109,2.1109,2.1089,2.1056,2.1029,2.0517,2.0204,2.0204,2.0177,2.005,1.982,1.9746,1.9599,1.9368,1.9328,1.9158,1.8856,1.883,1.8711,1.845,1.845,1.8437,1.841,1.8464,1.8464,4.524,4.6662,4.7054,4.5514,4.2871,3.9296,3.4113,3.045,2.7428,2.4918,2.3288,2.2604,2.3604,2.3854,2.4761,2.7386,2.766,2.9138,3.3666,3.4619,3.6671,4.1541,4.2936,4.4258,4.6125,4.7061,4.7657,4.7782,4.7179,4.6772,4.6772,4.5962,4.5334,4.4982,4.4204,4.3639,4.3313,4.3115,4.2194,4.0563,3.917,3.753,3.5745,3.4322,3.3584,3.3386,3.3386,3.3386,0.0,3.3386,3.3386,3.3292,3.2228,3.036,2.8073,2.6972,2.502,2.2893,2.2893,2.2893,2.2867,2.2652,2.2438,2.2211,2.2038,2.1824,2.1563,2.1209,2.1236,2.1408,2.1408,2.1408,2.1408,2.1408,2.1236,2.1156,2.1368,2.1502,2.1495,2.1169,2.149,2.1756,2.1462,2.1516,2.1577,2.1435,2.1408,2.1341,2.1129,2.1109,2.1109,2.1109,2.0902,2.0731,2.0731,2.0601,2.0454,2.0365,2.016,1.9927,1.9639,1.9626,1.9486,1.9199,1.899,1.8836,1.8751,1.8751,1.8657,1.8497,1.8879,1.8859,4.1593,4.3519,4.461,4.3519,4.0783,3.7278,3.3204,2.9612,2.6468,2.4097,2.2831,2.2172,2.2303,2.2528,2.3054,2.4232,2.4938,2.645,2.9649,3.1303,3.3887,3.8479,4.0312,4.2298,4.5058,4.6891,4.8222,4.8994,4.7845,4.7174,4.7324,4.6175,4.5296,4.4895,4.4342,4.3777,4.3253,4.2603,4.1488,3.9884,3.8399,3.6769,3.5067,3.4062,3.3545,3.3386,3.3386,3.3386,0.0,3.3386,3.3092,3.2524,3.1272,2.94,2.7238,2.5979,2.4392,2.2893,2.2893,2.2893,2.286,2.2619,2.2432,2.2251,2.2044,2.1924,2.1803,2.1356,2.1482,2.1709,2.1709,2.1649,2.1609,2.1696,2.1489,2.1323,2.1649,2.1783,2.1756,2.143,2.177,2.2024,2.1763,2.1883,2.195,2.1743,2.1709,2.1636,2.1396,2.1296,2.1236,2.1236,2.1162,2.1109,2.1109,2.0922,2.0768,2.0712,2.0481,2.0234,1.994,1.9846,1.97,1.9528,1.9205,1.9052,1.9052,1.9052,1.8951,1.8792,1.9201,1.9174,3.8202,3.9735,4.0551,4.0538,3.7613,3.4218,3.2168,2.819,2.4681,2.3778,2.2123,2.1004,2.1592,2.2192,2.2762,2.3244,2.4771,2.6593,2.8629,3.0814,3.3034,3.5282,3.755,4.0012,4.2776,4.5987,4.8372,4.9502,4.8027,4.7324,4.787,4.6363,4.5485,4.5485,4.492,4.4326,4.3802,4.1686,3.9826,3.8223,3.7073,3.5435,3.3437,3.3899,3.3828,3.3386,3.3386,3.3386,0.0,3.3386,3.2397,3.0836,3.0803,2.864,2.5517,2.5517,2.4392,2.2893,2.2893,2.2893,2.2893,2.2893,2.2499,2.1991,2.1984,2.1816,2.1589,2.1614,2.179,2.2017,2.2017,2.1803,2.1656,2.1943,2.179,2.1662,2.195,2.2205,2.2325,2.2031,2.2211,2.2318,2.2031,2.2017,2.1984,2.2017,2.2017,2.1977,2.1977,2.1756,2.1582,2.1582,2.1289,2.1109,2.1109,2.1109,2.0982,2.0726,2.0706,2.0541,2.021,1.9953,1.98,1.98,1.9542,1.9395,1.9395,1.9395,1.9388,1.9388,1.9395,1.9395,3.2315,3.4704,3.6402,3.4695,3.3206,3.1468,2.8767,2.6184,2.384,2.2005,2.1171,2.0839,2.0991,2.0836,2.1498,2.392,2.4473,2.5478,2.7989,3.0269,3.2893,3.6257,4.1304,4.5158,4.6808,4.7518,4.8222,4.9007,4.7857,4.7174,4.7337,4.6175,4.5309,4.4907,4.4355,4.3279,4.1629,4.0947,3.9247,3.6558,3.6179,3.5086,3.3396,3.3564,3.3555,3.3386,3.3386,3.3386,3.3386,3.3386,3.2355,3.0674,2.9474,2.7594,2.5349,2.4155,2.3359,2.2893,2.2893,2.2893,2.286,2.2625,2.2572,2.2546,2.2137,2.1816,2.1622,2.183,2.2058,2.2231,2.2038,2.2064,2.2164,2.2258,2.2064,2.1964,2.2218,2.2352,2.2331,2.2044,2.2418,2.2625,2.2331,2.2452,2.2546,2.2311,2.2278,2.2211,2.2011,2.1937,2.1803,2.1609,2.1502,2.1361,2.1129,2.1109,2.1069,2.0982,2.0969,2.0842,2.0548,2.0254,2.0,1.9806,1.9542,1.9395,1.9395,1.9395,1.9395,1.9395,1.9395,1.9395,2.7989,3.047,3.215,3.0795,2.9872,2.8704,2.6401,2.4607,2.2931,2.1078,2.0759,2.0714,2.0407,2.0238,2.0892,2.3188,2.3816,2.4732,2.6854,2.9603,3.3002,3.7336,4.2585,4.6225,4.7117,4.7832,4.8297,4.8435,4.7443,4.6798,4.6798,4.5573,4.4681,4.4301,4.3978,4.2778,4.0633,4.0001,3.8379,3.5806,3.518,3.4373,3.3386,3.3386,3.3386,3.3386,3.3386,3.3386,0.0,3.3386,3.2005,2.9694,2.8624,2.6681,2.4385,2.3297,2.2893,2.2893,2.2893,2.2893,2.2867,2.2645,2.2639,2.2605,2.2131,2.1937,2.193,2.1964,2.2278,2.2545,2.2365,2.2365,2.2411,2.2559,2.2365,2.2225,2.2525,2.2585,2.2532,2.2385,2.2646,2.284,2.2619,2.2773,2.2833,2.2612,2.2585,2.2519,2.2372,2.2218,2.2078,2.193,2.1716,2.1509,2.1296,2.1169,2.1109,2.1109,2.1109,2.1029,2.0848,2.0555,2.0314,2.0134,1.9846,1.9639,1.9562,1.9448,1.9395,1.9395,1.9395,1.9455,0.0,2.6721,2.7677,2.8191,2.718,2.582,2.4757,2.3345,0.0,2.085,2.0695,2.056,2.0015,2.0352,2.093,2.162,2.3062,2.4481,2.5561,2.9264,3.3693,3.8555,4.2057,4.4267,4.4677,4.7117,4.8422,4.7845,4.6841,4.6238,4.6188,4.4669,4.3802,4.3802,4.3638,4.2557,4.0448,3.8846,3.7224,3.5622,3.4101,3.3386,3.3386,3.3386,3.3386,0.0,3.3386,3.3386,3.3386,3.3386,3.1355,2.8205,2.8205,2.602,2.2893,2.2893,2.2893,2.2893,2.2893,2.2893,2.2893,2.2893,2.2672,2.2398,2.2104,2.2205,2.2358,2.2091,2.2459,2.2893,2.2893,2.2659,2.2519,2.2833,2.2652,2.2525,2.284,2.2893,2.2893,2.2893,2.2893,2.2893,2.2893,2.2893,2.2893,2.2893,2.2893,2.2893,2.2893,2.2619,2.2438,2.2385,2.195,2.1609,2.1582,2.1276,2.1109,2.1109,2.1109,2.1109,2.1109,2.0828,2.0706,2.0706,2.0381,2.007,1.9826,1.9589,1.9448,1.9428,1.9448,1.9582,1.9748,0.0,2.2476,2.2588,2.2338,2.1986,0.0,2.1367,2.0891,2.0151,2.0028,2.0244,2.0969,2.088,2.1433,2.365,2.4707,2.5611,2.6746,3.2403,3.7676,4.1017,4.4681,4.6677,4.5987,4.686,4.7262,4.6728,4.6062,4.5485,4.5016,4.4254,4.3802,4.3802,4.2217,4.0508,3.8787,3.7164,3.5571,3.3955,3.3566,3.3386,3.3386,3.3386,3.3386,3.3386,3.3386,3.3386,3.3386,3.3386,3.1355,2.8205,2.8205,2.602,2.2893,2.2893,2.2893,2.2893,2.2893,2.2893,2.2893,2.2893,2.2847,2.2706,2.2405,2.2365,2.2405,2.2338,2.2579,2.2893,2.2893,2.2847,2.2813,2.288,2.2847,2.2813,2.288,2.2893,2.2893,2.2893,2.2893,2.2893,2.2893,2.2893,2.2893,2.2893,2.2893,2.2893,2.2893,2.2833,2.2672,2.2445,2.2098,2.183,2.1602,2.1276,2.1109,2.1109,2.1109,2.1109,2.1109,2.0828,2.0706,2.0706,2.0381,2.017,2.0104,2.003,1.9913,1.97,1.9927,1.9826,1.7677,1.9246,2.0705,2.0705,2.088,2.1069,2.1069,2.0666,2.0188,1.9861,1.9798,2.0075,2.0967,2.1106,2.1809,2.4079,2.531,2.711,3.0244,3.4914,3.9233,4.2549,4.5208,4.6765,4.6672,4.6936,4.6772,4.5987,4.5409,4.4844,4.4251,4.3727,4.309,4.2369,4.0503,3.9082,3.8223,3.6589,3.4995,3.3386,3.3191,3.3135,3.3135,3.3135,3.3027,3.2861,3.3047,3.3135,3.3135,3.3135,3.1189,2.8205,2.8205,2.5921,2.2672,2.2847,2.2813,2.2679,2.2847,2.2893,2.2893,2.2893,2.2893,2.2867,2.2672,2.2619,2.2592,2.2452,2.2632,2.2893,2.2893,2.2893,2.2893,2.2893,2.2893,2.2893,2.2893,2.2893,2.2893,2.2893,2.2893,2.2619,2.1769,2.1631,2.1314,2.0403,2.0294,2.0294,2.0294,2.0294,2.0211,2.0029,1.978,1.9561,1.9425,1.9031,1.9124,1.9846,1.9903,1.9546,1.8768,1.8568,1.8497,1.8497,1.8204,1.8043,1.8043,1.7888,1.7733,1.7598,1.7739,1.7746,1.7449,1.9208,2.0754,2.0503,2.1042,2.1583,2.1419,2.069,2.0062,2.0062,2.0062,2.0326,2.1169,2.1696,2.2613,2.4456,2.6293,2.9334,3.459,3.7324,3.9986,4.3288,4.4957,4.6087,4.666,4.6885,4.6522,4.5434,4.4895,4.4313,4.3714,4.3266,4.2338,4.0887,3.9055,3.8067,3.797,3.6207,3.4665,3.3289,3.29,3.2734,3.2793,3.2725,3.2531,3.2218,0.0,0.0,3.2695,3.2695,3.0905,2.8081,2.8064,2.5754,2.2512,2.2753,2.2665,2.2525,2.2806,2.2893,2.2893,2.2893,2.2893,2.2893,2.2893,2.2893,2.2847,2.2559,2.2665,2.2893,2.2893,2.2893,2.2893,2.2893,2.2893,2.2825,2.2544,2.2475,2.2372,2.2091,2.2016,2.1527,1.9912,1.9669,1.9112,1.7463,1.7218,1.7218,1.7218,1.7218,1.7218,1.7218,1.6971,1.6796,1.6796,1.64,1.6602,1.7675,1.7978,1.7441,1.5946,1.5913,1.5913,1.5913,1.5667,1.5572,1.5572,1.5291,1.5118,1.5088,1.5123,1.5235,1.8343,2.0049,2.1042,1.961,2.0726,2.1945,2.1031,2.1043,2.1243,2.1243,2.1243,2.1832,2.38,2.4239,2.5143,2.7727,3.0357,3.353,3.7675,4.0565,4.2462,4.3065,4.5723,4.6878,4.5141,4.5844,4.5944,4.4803,4.464,4.4179,4.319,4.3052,4.2677,4.1968,3.9184,3.7435,3.6951,3.4499,3.3129,3.2891,3.2492,3.2482,3.2783,3.2452,3.2257,3.2208,0.0,3.2296,3.2296,3.2296,3.0429,2.7579,2.7347,2.5454,2.2806,2.2565,2.2619,2.2833,2.288,2.2893,2.2893,2.2893,2.2893,2.2893,2.2893,2.2893,2.2887,2.284,2.286,2.2893,2.2893,2.2893,2.2893,2.2893,2.2893,2.2475,2.0859,2.0513,2.0057,1.8374,1.8054,1.7989,1.7709,1.7639,1.7534,1.7253,1.7218,1.7218,1.7218,1.7218,1.7218,1.7218,1.6971,1.6796,1.6796,1.6536,1.5764,1.437,1.5567,1.6172,1.5913,1.5913,1.5913,1.5913,1.5851,1.5835,1.5835,1.58,1.5652,1.5413,1.5662,1.5503,1.744,1.9321,2.0879,2.0113,2.1581,2.3,2.2184,2.197,2.202,2.2307,2.2357,2.2947,2.4879,2.5958,2.7984,3.2252,3.4798,3.7173,3.9823,4.1582,4.2889,4.3765,4.4945,4.5648,4.5547,4.5447,4.5154,4.464,4.4313,4.3827,4.3052,4.2166,4.1092,3.9758,3.7484,3.5529,3.392,3.2695,3.2217,3.2482,3.2021,3.1914,3.21,3.1904,3.1816,3.1836,0.0,3.2325,3.2531,3.2531,3.1233,2.9189,2.8123,2.6224,2.396,2.2828,2.2605,2.2893,2.2893,2.2893,2.2893,2.2893,2.2893,2.2893,2.2893,2.2893,2.2893,2.2893,2.2893,2.2893,2.2893,2.2893,2.2893,2.2893,2.2893,2.2407,2.0513,2.0091,1.953,1.7569,1.7218,1.6866,1.5875,1.5703,1.5349,1.4334,1.416,1.416,1.416,1.416,1.416,1.416,1.4042,1.3992,1.3992,1.3823,1.3634,1.3524,1.3232,1.3095,1.3095,1.3095,1.3095,1.3095,1.3095,1.3095,1.3095,1.3095,1.3021,1.2909,1.3025,1.2943,1.7176,1.8856,2.0515,2.0654,2.2361,2.4001,2.4076,2.3763,2.3725,2.4662,2.485,2.5293,2.6703,2.8518,3.1323,3.5841,3.8316,4.0212,4.1854,4.2698,4.363,4.484,4.4656,4.4844,4.5999,4.5208,4.4539,4.4414,4.3915,4.3363,4.2838,4.1173,3.9501,3.7805,3.5894,3.3909,3.1909,3.1535,3.1592,3.2042,3.1572,3.1426,3.1514,3.1416,3.1367,3.1387,3.1758,3.2081,3.2353,3.2451,3.1702,3.0373,2.9045,2.714,2.4874,2.3151,2.2665,2.2893,2.2893,2.2893,2.2893,2.2893,2.2893,2.2893,2.2893,2.2893,2.2893,2.2893,2.2893,2.2893,2.2893,2.2893,2.2791,2.2338,2.2229,2.1596,1.9281,1.8753,1.8194,1.6268,1.5884,1.5425,1.3978,1.3729,1.3274,1.1832,1.1584,1.1584,1.1584,1.1584,1.1584,1.1584,1.1584,1.1584,1.1584,1.148,1.1862,1.2887,1.1583,1.0725,1.0688,1.0688,1.0688,1.0688,1.0688,1.0688,1.0688,1.0688,1.0688,1.0688,1.0688,1.0688,1.9158,1.971,2.0,2.0553,2.2361,2.4519,2.6545,2.6972,2.7519,2.9622,3.0061,3.0256,3.0859,3.316,3.5443,3.6921,3.9848,4.2524,4.4125,4.5292,4.605,4.6175,4.615,4.5974,4.5585,4.4982,4.4376,4.3903,4.335,4.2826,4.2301,4.033,3.8892,3.8259,3.5496,3.3681,3.2988,3.1625,3.1152,3.1562,3.1133,3.1143,3.1474,3.1113,3.0937,3.0937,3.0976,3.0996,3.1055,3.1455,3.081,2.9587,2.9587,2.7753,2.4904,2.3425,2.288,2.2893,2.2893,2.2893,2.2893,2.2893,2.2893,2.2893,2.2893,2.2893,2.2893,2.2893,2.2893,2.2893,2.2893,2.2893,2.2475,2.0721,2.03,1.9281,1.5628,1.4818,1.4259,1.2359,1.2008,1.1972,1.1832,1.1796,1.176,1.1619,1.1584,1.1584,1.1584,1.1584,1.1584,1.1584,1.1584,1.1584,1.1584,1.148,1.1391,1.1362,1.1046,1.0833,1.0724,1.0688,1.0688,1.0688,1.0688,1.0688,1.0688,1.0688,1.0688,1.0688,1.0688,1.0688,1.804,1.956,2.1168,2.2437,2.3879,2.5297,2.6537,2.7864,2.9377,3.1223,3.1888,3.2416,3.3294,3.5418,3.7526,3.9019,4.1467,4.3639,4.497,4.5535,4.5799,4.5799,4.5183,4.4807,4.4932,4.4129,4.3652,4.379,4.3002,4.2399,4.2213,4.0137,3.8358,3.6987,3.4875,3.3118,3.1749,3.117,3.0976,3.1123,3.0967,3.0976,3.1123,3.0967,3.1035,3.1279,3.1279,3.1435,3.1729,3.1855,3.1783,3.1376,2.9508,2.7377,2.5145,2.3522,2.2893,2.2893,2.2893,2.2893,2.2893,2.2893,2.2893,2.2893,2.2893,2.2893,2.2893,2.2893,2.2057,2.1142,2.1142,2.1142,2.0686,1.8758,1.8304,1.7564,1.496,1.4397,1.3836,1.1972,1.1584,1.1584,1.1584,1.1584,1.1584,1.1584,1.1584,1.1584,1.1584,1.1584,1.1584,1.1584,1.1584,1.1584,1.1584,1.1565,1.1467,1.1314,1.1046,1.0846,1.0694,1.0688,1.0688,1.0688,1.0688,1.0688,1.0688,1.0688,1.0688,1.0688,1.0688,1.0688,1.75,1.9271,2.1331,2.2824,2.4808,2.6716,2.8002,2.9484,3.1273,3.3796,3.4487,3.4813,3.5391,3.6872,3.8504,4.0011,4.2396,4.433,4.5108,4.5372,4.5422,4.5234,4.438,4.3953,4.4301,4.3363,4.2901,4.3278,4.2286,4.1658,4.1658,3.964,3.766,3.5887,3.4328,3.2676,3.0918,3.0889,3.0889,3.0889,3.0889,3.0889,3.0889,3.0889,3.1055,3.1318,3.1318,3.1484,3.1807,3.1944,3.2285,3.2471,2.9239,2.7307,2.608,2.3761,2.2893,2.2893,2.2893,2.2893,2.2914,2.3014,2.3041,2.3061,2.3154,2.3181,2.3042,2.2391,2.1297,2.0017,1.8766,1.8833,1.8727,1.6928,1.6451,1.5925,1.4062,1.3682,1.3292,1.201,1.1721,1.1651,1.1651,1.1614,1.1584,1.1584,1.1584,1.1584,1.1584,1.1584,1.1584,1.1584,1.1584,1.1584,1.1584,1.1584,1.1535,1.1366,1.1128,1.0914,1.0765,1.0715,1.0688,1.0688,1.0688,1.0688,1.0688,1.0688,1.0688,1.0688,1.0688,1.0688,1.8066,1.9007,2.0112,2.1268,2.4858,2.885,3.1579,3.2206,3.3495,3.7977,3.8417,3.7864,3.7336,3.7663,3.8391,3.9521,4.2459,4.4577,4.4589,4.5108,4.5259,4.4652,4.4116,4.3777,4.3777,4.2813,4.22,4.22,4.1141,4.0487,4.0487,3.8613,3.6838,3.5354,3.3884,3.2397,3.0918,3.0889,3.0889,3.0889,3.0889,3.0889,3.0889,3.0889,3.0889,3.0889,3.0889,3.0889,3.0928,3.1318,3.1991,3.2391,2.8872,2.7776,2.7735,2.4188,2.2893,2.2893,2.2893,2.2893,2.2947,2.322,2.3292,2.3345,2.3674,2.3768,2.3327,2.127,2.0682,1.9773,1.5897,1.6007,1.6762,1.5222,1.4778,1.4196,1.2469,1.2098,1.2098,1.2098,1.1938,1.1793,1.1793,1.1675,1.1584,1.1584,1.1584,1.1584,1.1584,1.1584,1.1584,1.1584,1.1584,1.1584,1.1584,1.1584,1.1491,1.122,1.12,1.1097,1.0917,1.0769,1.0688,1.0688,1.0688,1.0688,1.0688,1.0688,1.0688,1.0688,1.0688,1.0688,1.8819,2.0412,2.2583,2.4522,2.7173,3.0018,3.2767,3.3696,3.4914,3.8215,3.9346,3.9583,3.9044,3.9408,3.9885,4.0224,4.207,4.3601,4.3991,4.4192,4.4091,4.3526,4.3002,4.2524,4.208,4.1741,4.1553,4.1553,4.0888,4.0487,4.0487,3.957,3.7899,3.5371,3.4875,3.3445,3.0918,3.0889,3.0889,3.0889,3.0889,3.0889,3.0889,3.0889,3.0889,3.0889,3.0889,3.0889,3.0928,3.1318,3.1001,2.9993,2.8003,2.6729,2.5736,2.3407,2.2713,2.2893,2.2893,2.2893,2.2914,2.3,2.3034,2.3053,2.3367,2.2448,2.1256,2.0815,1.8747,1.6365,1.5333,1.435,1.3515,1.303,1.2907,1.2741,1.2199,1.2098,1.2098,1.2098,1.1938,1.1793,1.1793,1.1675,1.1584,1.1584,1.1584,1.1584,1.1584,1.1584,1.1584,1.1584,1.1584,1.1584,1.1584,1.1584,1.1582,1.1491,1.1382,1.1162,1.0769,1.0711,1.0688,1.0688,1.0688,1.0688,1.0688,1.0688,1.0688,1.0688,1.0688,1.0688,1.9585,2.1529,2.4101,2.6779,2.9308,3.1896,3.4851,3.6447,3.7927,4.0087,4.0852,4.1128,4.1042,4.0739,4.0664,4.1091,4.2371,4.335,4.3463,4.3476,4.3291,4.275,4.2198,4.1706,4.1352,4.1114,4.0989,4.0989,4.0501,4.0187,4.0187,3.9873,3.8346,3.5398,3.5288,3.3798,3.0644,3.0615,3.0537,3.0371,3.0371,3.0371,3.0409,3.0732,3.0889,3.0889,3.0889,3.0889,3.0908,3.1162,3.0397,2.8948,2.7433,2.612,2.4866,2.3068,2.2605,2.2893,2.2893,2.2893,2.292,2.3006,2.3046,2.31,2.3414,2.216,2.0533,1.9837,1.7448,1.4915,1.4241,1.3121,1.2207,1.2261,1.2183,1.2115,1.2176,1.2142,1.2098,1.2098,1.1938,1.1793,1.1793,1.1675,1.1584,1.1584,1.1584,1.1584,1.1584,1.1584,1.1584,1.1584,1.1584,1.1584,1.1584,1.1584,1.1592,1.1535,1.1443,1.1243,1.0911,1.0809,1.0779,1.0779,1.0718,1.0718,1.0779,1.0718,1.0688,1.0688,1.0688,1.0688,2.0352,2.2424,2.4958,2.8292,3.1348,3.4371,3.7513,3.9859,4.1641,4.2572,4.2499,4.2411,4.2914,4.1706,4.1003,4.2085,4.3052,4.3476,4.3002,4.2889,4.265,4.2097,4.1568,4.1214,4.1164,4.0713,4.0411,4.0411,3.9973,3.9697,3.9697,3.9697,3.8346,3.5398,3.5437,3.3775,3.0224,3.0328,3.0122,2.9598,2.9598,2.9598,2.9627,3.0429,3.0791,3.083,3.0869,3.0889,3.0889,3.0733,2.9943,2.8646,2.6842,2.5572,2.4587,2.2926,2.2545,2.2853,2.2853,2.2873,2.294,2.3193,2.3252,2.3305,2.3457,2.2251,2.0447,1.8388,1.6474,1.462,1.2923,1.2386,1.2338,1.2454,1.2315,1.2156,1.2244,1.2196,1.2098,1.2098,1.1948,1.181,1.1797,1.1688,1.1597,1.1584,1.1584,1.1584,1.1584,1.1584,1.1584,1.1584,1.1584,1.1584,1.1584,1.1584,1.1558,1.1419,1.1413,1.1345,1.1223,1.1046,1.0934,1.0934,1.0799,1.0789,1.0914,1.0789,1.0755,1.0708,1.0755,1.0755,2.1118,2.3253,2.6151,2.9917,3.3922,3.7487,3.9509,4.1015,4.1833,4.1178,4.1982,4.2864,4.2977,4.2361,4.2047,4.2713,4.2663,4.2499,4.2374,4.1957,4.1465,4.094,4.0764,4.0499,4.0086,3.9936,3.9873,3.9873,3.976,3.9697,3.9697,3.9697,3.8346,3.5398,3.6433,3.4839,3.0224,3.1345,3.1149,2.9598,2.9598,2.9598,2.9608,2.9794,3.0058,3.0361,3.0732,3.0889,3.0791,2.9462,2.8044,2.6496,2.4858,2.3452,2.2315,2.1932,2.2071,2.2512,2.2512,2.2665,2.2907,2.2974,2.3,2.2771,2.1556,1.9838,1.7934,1.6218,1.4383,1.2825,1.233,1.2305,1.2437,1.2355,1.2288,1.2254,1.2169,1.2121,1.2098,1.2098,1.2074,1.1972,1.1817,1.1769,1.1712,1.1636,1.1584,1.1584,1.1584,1.1584,1.1584,1.1584,1.1584,1.1584,1.1584,1.1584,1.1606,1.1572,1.1569,1.1501,1.1348,1.1196,1.1152,1.1152,1.1118,1.1026,1.0914,1.1029,1.1009,1.087,1.1016,1.1006,2.183,2.4104,2.7211,3.2118,3.5918,3.8781,4.0187,4.0953,4.1279,4.0951,4.2007,4.2926,4.2663,4.216,4.1856,4.2145,4.1957,4.1769,4.1769,4.1291,4.0813,4.0524,4.0261,4.0011,3.9722,3.9697,3.9697,3.9697,3.9697,3.9697,3.9697,3.9697,3.8551,3.606,3.6714,3.5016,3.0643,3.1353,3.0809,2.8992,2.8992,2.8992,2.9002,2.9412,2.9823,3.0205,3.0449,3.0684,3.083,2.9962,2.8179,2.5915,2.5077,2.3455,2.1582,2.1582,2.1863,2.2231,2.2372,2.2519,2.2536,2.1799,2.1562,2.1236,1.9474,1.7638,1.5989,1.5121,1.3547,1.2071,1.2101,1.2121,1.2179,1.2182,1.2182,1.2196,1.2118,1.1989,1.185,1.185,1.185,1.1823,1.1705,1.1695,1.1668,1.1594,1.1584,1.1584,1.1584,1.1584,1.1584,1.1584,1.1584,1.1584,1.1584,1.1584,1.1584,1.1584,1.1584,1.1586,1.1504,1.1355,1.1305,1.1305,1.1234,1.1159,1.105,1.1056,1.0985,1.0809,1.0917,1.0948,2.213,2.4971,2.8517,3.4013,3.7073,3.9007,4.0011,4.0375,4.0587,4.0951,4.1856,4.2474,4.211,4.1568,4.1175,4.1263,4.1227,4.1139,4.1039,4.0549,4.0199,4.0073,3.9772,3.9546,3.9546,3.9634,3.9647,3.9559,3.9634,3.9647,3.9585,3.9546,3.8679,3.6756,3.6843,3.5014,3.1047,3.1249,3.0351,2.8291,2.8291,2.8252,2.8213,2.9021,2.9608,2.998,3.0049,3.0351,3.0742,3.0159,2.8393,2.5946,2.5367,2.3653,2.1509,2.1509,2.1696,2.1984,2.2245,2.2137,2.171,2.0492,1.9877,1.9252,1.7283,1.5751,1.4597,1.4244,1.3038,1.1824,1.2026,1.1945,1.1904,1.207,1.2081,1.206,1.206,1.183,1.1614,1.1587,1.1584,1.1626,1.1614,1.1636,1.1584,1.1584,1.1584,1.1584,1.1584,1.1584,1.1584,1.1584,1.1584,1.1584,1.1584,1.1584,1.1584,1.1584,1.1584,1.1584,1.1584,1.1497,1.143,1.143,1.1315,1.121,1.1159,1.1026,1.0901,1.0728,1.0785,1.0863,2.1217,2.5787,3.0834,3.4013,3.6472,3.8291,3.8969,3.9835,4.04,3.9998,4.04,4.0938,4.1352,4.0964,4.075,4.1213,4.0913,4.0437,3.9986,3.9433,3.8931,3.8404,3.8743,3.9007,3.9007,3.9446,3.9522,3.9044,3.9446,3.9484,3.9032,3.9007,3.8309,3.6744,3.7437,3.5615,3.1047,3.2274,3.1357,2.8291,2.8291,2.8132,2.78,2.8269,2.8691,2.9111,2.9492,2.9921,3.0073,2.7211,2.6026,2.5733,2.2882,2.1495,2.1169,2.1169,2.1356,2.1689,2.1977,2.1151,1.9989,2.0078,1.8967,1.7248,1.5349,1.4627,1.4118,1.2463,1.1913,1.18,1.182,1.1945,1.2074,1.2094,1.1959,1.1824,1.1824,1.1793,1.1729,1.1607,1.1584,1.1621,1.1746,1.1665,1.1584,1.1584,1.1584,1.1584,1.1584,1.1584,1.1584,1.1584,1.1584,1.1584,1.1584,1.1584,1.1584,1.1584,1.1584,1.1584,1.1584,1.1563,1.1553,1.1553,1.144,1.1233,1.0945,1.1216,1.1154,1.0887,1.1046,1.1149,2.2196,2.5762,2.9478,3.2554,3.4728,3.6483,3.7675,3.8542,3.9132,3.9245,3.9446,3.976,4.0286,4.0224,4.0136,4.0375,3.9961,3.9509,3.9296,3.8768,3.8291,3.804,3.8228,3.8391,3.8391,3.8605,3.8655,3.8404,3.8605,3.8642,3.8404,3.8391,3.7954,3.6996,3.7356,3.5679,3.177,3.2145,3.0744,2.7578,2.7578,2.748,2.7314,2.777,2.8301,2.8898,2.9121,2.9453,2.9712,2.7587,2.6283,2.5395,2.3306,2.1947,2.1109,2.1109,2.1189,2.1343,2.1676,2.0724,1.9257,1.8501,1.7072,1.5278,1.3416,1.2817,1.2678,1.1828,1.1627,1.1675,1.1675,1.1823,1.1952,1.2077,1.2047,1.1962,1.1962,1.183,1.1658,1.1597,1.1584,1.1604,1.1665,1.1624,1.1584,1.1584,1.1584,1.1584,1.1584,1.1584,1.1584,1.1584,1.1584,1.1584,1.1584,1.1584,1.1584,1.1584,1.1584,1.1584,1.1584,1.1538,1.1491,1.1491,1.1508,1.1413,1.1196,1.124,1.1155,1.0917,1.0978,1.1043,2.2611,2.477,2.6992,3.0168,3.2307,3.4126,3.5943,3.6998,3.7764,3.8354,3.858,3.8806,3.9182,3.9383,3.9433,3.9283,3.8919,3.863,3.8492,3.8065,3.7751,3.76,3.7713,3.7801,3.7801,3.7927,3.7952,3.7814,3.7927,3.7952,3.7801,3.7801,3.7613,3.7223,3.691,3.5272,3.2188,3.105,2.9287,2.6855,2.6937,2.6963,2.6875,2.7448,2.8034,2.8603,2.8711,2.8784,2.8773,2.7515,2.6105,2.4613,2.3432,2.2191,2.1109,2.1109,2.1109,2.1086,2.0986,1.9823,1.815,1.6582,1.4967,1.3381,1.1984,1.1589,1.1584,1.1584,1.1584,1.1594,1.1627,1.1715,1.1834,1.206,1.2098,1.2087,1.2013,1.1803,1.1584,1.1584,1.1584,1.1584,1.1584,1.1584,1.1584,1.1584,1.1584,1.1584,1.1584,1.1584,1.1584,1.1584,1.1584,1.1584,1.1584,1.1584,1.1584,1.1584,1.1584,1.1584,1.1584,1.1511,1.145,1.145,1.1562,1.1525,1.1335,1.1291,1.1145,1.0968,1.0968,1.0988,2.1294,2.2472,2.3998,2.6859,2.9202,3.1378,3.3571,3.5328,3.6646,3.7185,3.7688,3.8065,3.809,3.8567,3.8756,3.8191,3.8065,3.7864,3.7374,3.7273,3.706,3.6532,3.6934,3.7248,3.7248,3.7701,3.7789,3.7286,3.7713,3.7776,3.7286,3.7248,3.7235,3.721,3.6146,3.4362,3.1757,2.8759,2.6978,2.6426,2.6826,2.6807,2.6455,2.7311,2.7712,2.778,2.8181,2.7787,2.675,2.5424,2.4198,2.308,2.1759,2.1172,2.1109,2.1109,2.1109,2.092,1.9597,1.7878,1.6042,1.4613,1.2962,1.154,1.1438,1.1504,1.1584,1.1584,1.1584,1.1614,1.1749,1.179,1.1834,1.206,1.2098,1.2057,1.1874,1.1688,1.1584,1.1584,1.1584,1.1584,1.1584,1.1584,1.1584,1.1584,1.1584,1.1584,1.1584,1.1584,1.1584,1.1584,1.1584,1.1584,1.1584,1.1584,1.1584,1.1584,1.1584,1.1584,1.1584,1.1577,1.1606,1.1606,1.1616,1.147,1.121,1.1346,1.1336,1.1186,1.1186,1.1264,2.0779,2.152,2.2661,2.5096,2.7105,2.8963,3.0834,3.2541,3.3972,3.4889,3.5516,3.5983,3.6334,3.7462,3.8253,3.804,3.7713,3.7436,3.7235,3.6896,3.6607,3.643,3.6581,3.6683,3.6683,3.6521,3.6472,3.667,3.6508,3.6472,3.667,3.632,3.6108,3.6108,3.538,3.3622,3.0768,2.8757,2.7175,2.5952,2.6098,2.6089,2.5962,2.6582,2.7018,2.7214,2.6675,2.6388,2.6215,2.4949,2.3768,2.2594,2.1321,2.0949,2.1109,2.1109,2.0392,1.9361,1.8843,1.6819,1.4343,1.3852,1.2658,1.1392,1.1392,1.1497,1.1584,1.1584,1.1584,1.1597,1.1648,1.1726,1.1807,1.1901,1.1915,1.1874,1.1728,1.1617,1.1584,1.1584,1.1584,1.1584,1.1584,1.1584,1.1584,1.1584,1.1584,1.1584,1.1584,1.1584,1.1584,1.1584,1.1584,1.1584,1.1584,1.1584,1.1584,1.1584,1.1584,1.1584,1.1584,1.1584,1.1584,1.1584,1.1584,1.1565,1.1457,1.1413,1.1362,1.1342,1.1342,1.1322,2.0302,2.0653,2.1455,2.3687,2.5067,2.6427,2.8486,3.0218,3.1662,3.2604,3.3671,3.454,3.4904,3.602,3.6873,3.6873,3.6723,3.6634,3.6634,3.6157,3.5904,3.6092,3.5942,3.5828,3.5828,3.5456,3.5393,3.5803,3.5456,3.5406,3.5816,3.5443,3.5144,3.4979,3.3817,3.2143,2.9946,2.8211,2.6806,2.5693,2.5693,2.5693,2.5728,2.6191,2.6621,2.6929,2.5878,2.537,2.5241,2.404,2.2829,2.1645,2.0839,2.0762,2.1096,2.1002,1.9922,1.841,1.7827,1.5786,1.3348,1.2753,1.2013,1.1314,1.1314,1.1457,1.1584,1.1584,1.1617,1.1644,1.1597,1.1688,1.1807,1.1898,1.1867,1.1766,1.1675,1.1617,1.1584,1.1584,1.1584,1.1584,1.1584,1.1584,1.1584,1.1584,1.1584,1.1584,1.1584,1.1584,1.1584,1.1584,1.1584,1.1584,1.1584,1.1584,1.1584,1.1584,1.1584,1.1584,1.1584,1.1584,1.1584,1.1584,1.1584,1.1584,1.1584,1.1518,1.1467,1.1467,1.1467,1.1413,0.0,0.0,0.0,2.2506,2.3083,2.3822,2.6608,2.8504,2.9829,3.04,3.2252,3.3759,3.3796,3.4239,3.4615,3.4603,3.5082,3.547,3.547,3.5042,3.4891,3.5408,3.5029,3.4703,3.4703,3.469,3.4678,3.4703,3.469,3.4678,3.4703,3.4665,3.4424,3.3872,3.1469,2.9914,2.9362,2.6952,2.5713,2.5645,2.5698,2.5684,2.5708,2.6172,2.6576,2.6878,2.5781,2.4703,2.3651,2.2462,2.1272,2.019,2.019,2.0544,2.1049,2.0775,1.9726,1.8174,1.6496,1.4716,1.2935,1.124,1.0917,1.1193,1.1196,1.1372,1.1577,1.1616,1.1682,1.1756,1.1617,1.1685,1.1827,1.205,1.1935,1.1786,1.1786,1.1678,1.1584,1.1584,1.1584,1.1584,1.1584,1.1584,1.1584,1.1584,1.1584,1.1584,1.1584,1.1584,1.1584,1.1584,1.1584,1.1584,1.1584,1.1584,1.1584,1.1584,1.1584,1.1584,1.1584,1.1584,1.1584,1.1584,1.1584,1.1584,1.1584,1.1584,1.1584,1.1584,1.1584,1.1584,1.9798,0.0,0.0,0.0,0.0,0.0,2.513,2.6151,2.7143,2.8511,2.9584,3.0538,3.1353,3.2256,3.2758,3.2378,3.3775,3.4929,3.4929,3.4791,3.4753,3.4904,3.4791,3.4703,3.4703,3.4339,3.4276,3.4665,3.4327,3.4276,3.4678,3.396,3.3269,3.2692,3.0879,2.9391,2.8343,2.716,2.5963,2.4771,2.5406,2.5542,2.5273,2.5689,2.5716,2.5324,2.392,2.289,2.2173,2.1847,2.1009,1.992,1.992,2.0117,2.0464,2.0628,1.8843,1.6275,1.5987,1.3938,1.1339,1.085,1.0816,1.1026,1.1166,1.1336,1.1477,1.1589,1.1647,1.1634,1.1594,1.1614,1.1651,1.1731,1.1711,1.1677,1.1677,1.1647,1.1584,1.1584,1.1584,1.1584,1.1584,1.1584,1.1584,1.1584,1.1584,1.1584,1.1584,1.1584,1.1584,1.1584,1.1584,1.1584,1.1584,1.1584,1.1584,1.1584,1.1584,1.1584,1.1584,1.1584,1.1584,1.1584,1.1584,1.1584,1.1584,1.1584,1.1584,1.1584,1.1584,1.1584,0.0,0.0,0.0,2.192,0.0,0.0,2.4202,2.4879,2.5611,2.6804,2.7682,2.8493,2.9383,3.0061,3.0545,3.0696,3.1813,3.2884,3.3561,3.3461,3.3398,3.3624,3.3448,3.3332,3.3332,3.3043,3.2993,3.3307,3.3031,3.2993,3.3319,3.2717,3.2013,3.1204,2.9756,2.8426,2.725,2.632,2.5367,2.4401,2.4918,2.5146,2.5102,2.5342,2.5127,2.4508,2.2999,2.196,2.1348,2.0721,2.0204,1.9786,1.9666,1.9873,2.0133,1.961,1.775,1.5429,1.497,1.2997,1.0688,1.0688,1.0789,1.0931,1.105,1.1223,1.1409,1.1497,1.1569,1.1597,1.1655,1.1627,1.1584,1.1584,1.1584,1.1584,1.1584,1.1584,1.1584,1.1584,1.1584,1.1584,1.1584,1.1584,1.1584,1.1584,1.1584,1.1584,1.1584,1.1584,1.1584,1.1584,1.1584,1.1607,1.1665,1.1617,1.1607,1.1668,1.1617,1.1584,1.1584,1.1584,1.1584,1.1584,1.1584,1.1584,1.1584,1.1584,1.1584,1.1584,1.1584,1.1584,0.0,0.0,0.0,0.0,2.2782,0.0,2.3791,2.4365,2.4854,2.5398,2.6314,2.7198,2.772,2.7883,2.8247,2.9283,2.9478,3.0131,3.1876,3.17,3.1574,3.2043,3.1687,3.1406,3.1406,3.1406,3.1406,3.1406,3.1406,3.1406,3.1406,3.1336,3.0877,2.992,2.8494,2.7282,2.6326,2.5005,2.4303,2.4254,2.4342,2.4619,2.5024,2.4921,2.4577,2.3954,2.2523,2.1457,2.0707,1.9387,1.9219,1.9726,1.9495,1.9591,1.9674,1.8148,1.6547,1.5013,1.3711,1.2138,1.0688,1.0688,1.0779,1.089,1.0911,1.1097,1.1348,1.1382,1.1501,1.1647,1.1739,1.1678,1.1584,1.1584,1.1584,1.1584,1.1584,1.1584,1.1584,1.1584,1.1584,1.1584,1.1584,1.1584,1.1584,1.1584,1.1584,1.1584,1.1584,1.1584,1.1584,1.1584,1.1584,1.1634,1.1759,1.1668,1.1661,1.1786,1.1692,1.167,1.167,1.167,1.166,1.1607,1.1594,1.1584,1.1584,1.1584,1.1584,1.1584,1.1584,1.1584,0.0,0.0,0.0,0.0,2.3386,0.0,2.4054,2.4079,2.4318,2.4842,2.513,2.5444,2.5988,2.6482,2.6889,2.7115,2.7517,2.868,3.1198,3.1482,3.1436,3.1537,3.1449,3.1406,3.1406,3.1406,3.1406,3.1406,3.1406,3.1406,3.1406,3.0997,3.0658,3.0445,2.8069,2.668,2.6459,2.4768,2.374,2.3354,2.4059,2.444,2.4504,2.3751,2.31,2.2446,2.1089,1.9938,1.8974,1.871,1.8918,1.9475,1.9421,1.8683,1.7624,1.7469,1.5647,1.3257,1.3157,1.2071,1.0688,1.0688,1.0708,1.0752,1.0877,1.0955,1.1049,1.1324,1.1501,1.1626,1.1617,1.1604,1.1584,1.1584,1.1584,1.1584,1.1584,1.1584,1.1584,1.1584,1.1584,1.1584,1.1584,1.1584,1.1584,1.1584,1.1584,1.1584,1.1584,1.1584,1.1584,1.1584,1.1584,1.1594,1.1621,1.1702,1.1763,1.1793,1.1921,1.2013,1.2013,1.2013,1.1918,1.1756,1.1641,1.1584,1.1584,1.1584,1.1584,1.1584,1.1584,1.1584,0.0,0.0,0.0,2.306,0.0,0.0,0.0,2.3778,2.3712,2.4277,2.4164,2.4139,2.4707,2.4795,2.4983,2.5565,2.5875,2.6728,2.868,2.9422,2.9741,2.9741,2.9741,2.9741,2.9741,3.0005,3.0156,3.0156,2.9905,2.9867,3.0136,2.9898,2.9626,2.936,2.749,2.6224,2.5662,2.4196,2.3337,2.3101,2.353,2.3874,2.4066,2.2991,2.2153,2.1482,2.0195,1.9125,1.8243,1.8243,1.8531,1.8973,1.9085,1.8164,1.6704,1.6272,1.4596,1.2474,1.1905,1.1217,1.0605,1.0605,1.066,1.0701,1.0779,1.0904,1.1101,1.1328,1.1501,1.1584,1.1584,1.1584,1.1584,1.1584,1.1584,1.1584,1.1584,1.1558,1.1528,1.1606,1.1558,1.1531,1.1606,1.1584,1.1584,1.1584,1.1584,1.1584,1.1584,1.1584,1.1584,1.1584,1.1584,1.1681,1.183,1.1833,1.1861,1.205,1.206,1.2098,1.2098,1.2098,1.2026,1.1797,1.1722,1.1655,1.1584,1.1584,1.1584,1.1584,1.1584,1.1584,0.0,0.0,0.0,0.0,0.0,2.3609,0.0,0.0,0.0,2.3738,2.3449,2.3246,2.3738,2.3421,2.3371,2.4189,2.4503,2.4879,2.5577,2.6633,2.7431,2.7745,2.7783,2.7833,2.7934,2.843,2.8756,2.8756,2.8342,2.8279,2.8731,2.8643,2.8402,2.7969,2.6805,2.5734,2.4808,2.3681,2.3091,2.3091,2.3091,2.3205,2.3419,2.2153,2.1212,2.049,1.9237,1.8348,1.7762,1.7762,1.7774,1.7846,1.8244,1.7436,1.5901,1.4689,1.3278,1.1785,1.0629,1.0331,1.0456,1.0483,1.0595,1.0688,1.0688,1.0907,1.1148,1.127,1.1436,1.1575,1.1575,1.1596,1.1584,1.1584,1.1584,1.1573,1.1582,1.1501,1.1463,1.1558,1.1501,1.1474,1.1563,1.1584,1.1584,1.1584,1.1584,1.1584,1.1584,1.1584,1.1584,1.1584,1.1584,1.1728,1.2033,1.1932,1.1993,1.2274,1.2237,1.2183,1.2183,1.2159,1.2047,1.1884,1.1854,1.1806,1.1624,1.1624,1.1647,1.1584,1.1584,1.1584,0.0,0.0,0.0,0.0,2.4657,0.0,0.0,0.0,2.3778,2.3296,0.0,2.312,2.3195,0.0,0.0,2.2633,2.3424,2.3791,2.2899,2.3753,2.5025,2.6512,2.6688,2.6876,2.7349,2.7871,2.8197,2.8197,2.8134,2.8134,2.8197,2.7747,2.7463,2.7394,2.5825,2.4935,2.4808,2.3681,2.3091,2.3091,2.3091,2.2796,2.2162,2.0757,1.9709,1.8897,1.7558,1.6938,1.686,1.686,1.6273,1.5478,1.6288,1.571,1.4284,1.2854,1.146,1.0236,1.0101,1.0175,1.0324,1.0453,1.0595,1.0688,1.0688,1.0806,1.0945,1.0961,1.1168,1.1416,1.1416,1.1518,1.1584,1.1584,1.1584,1.1582,1.1447,1.1511,1.1558,1.144,1.1511,1.1563,1.1616,1.1584,1.1584,1.1584,1.1584,1.1584,1.1584,1.1584,1.1584,1.1584,1.1584,1.1648,1.1807,1.1969,1.2145,1.2281,1.2393,1.2454,1.2454,1.2332,1.2257,1.224,1.2142,1.1962,1.1769,1.1769,1.1705,1.1584,1.1584,1.1584,0.0,0.0,0.0,0.0,0.0,0.0,2.385,0.0,2.3411,0.0,0.0,0.0,0.0,0.0,0.0,0.0,2.2696,2.2749,2.1945,2.2261,2.3037,2.4368,2.4531,2.4883,2.5762,2.5456,2.5481,2.6134,2.6184,2.6086,2.5859,2.6207,2.6311,2.6089,2.5029,2.4461,2.4461,2.3551,2.3091,2.3091,2.3091,2.2574,2.1563,2.0271,1.92,1.8275,1.7029,1.6553,1.6707,1.6707,1.5973,1.4827,1.4419,1.3611,1.2587,1.2155,1.1096,0.9886,0.9886,0.9988,1.0185,1.0415,1.0595,1.0688,1.0688,1.0792,1.0914,1.0914,1.1097,1.1295,1.1295,1.1342,1.1355,1.1355,1.1423,1.147,1.1406,1.1443,1.1494,1.1518,1.1504,1.1514,1.1603,1.1584,1.1584,1.1584,1.1584,1.1584,1.1584,1.1584,1.1584,1.1584,1.1584,1.1641,1.1783,1.1891,1.1993,1.2186,1.2251,1.2288,1.2376,1.2322,1.2291,1.2291,1.2176,1.1986,1.1793,1.1712,1.1677,1.1584,1.1584,1.1584,2.4567,0.0,0.0,0.0,0.0,0.0,0.0,0.0,0.0,0.0,0.0,0.0,0.0,0.0,0.0,0.0,0.0,2.1994,2.1142,2.1181,2.1619,2.2558,2.2782,2.3208,2.4039,2.3496,2.3357,2.3991,2.4025,2.3863,2.3502,2.4194,2.4511,2.434,2.3824,2.3577,2.3577,2.3141,2.2947,2.2925,2.2717,2.1965,2.0778,1.9557,1.8443,1.7423,1.6549,1.6273,1.6442,1.6442,1.5538,1.405,1.3065,1.1955,1.0893,1.1184,1.0628,0.9737,0.9775,0.992,1.0116,1.0365,1.0565,1.0688,1.0688,1.0765,1.0853,1.0853,1.0992,1.1104,1.1104,1.1166,1.1196,1.1196,1.1281,1.1318,1.1277,1.1301,1.1362,1.147,1.144,1.144,1.1592,1.1584,1.1584,1.1584,1.1584,1.1584,1.1584,1.1584,1.1584,1.1584,1.1584,1.1641,1.1783,1.1793,1.1898,1.2087,1.2139,1.2213,1.2284,1.2328,1.2349,1.2349,1.2237,1.205,1.1894,1.1748,1.1621,1.1584,1.1584,1.1584,0.0,0.0,0.0,2.6191,0.0,0.0,0.0,0.0,2.3816,0.0,0.0,0.0,0.0,0.0,0.0,0.0,0.0,0.0,0.0,2.0365,2.093,2.1495,2.202,2.2332,2.237,2.2822,2.282,2.2142,2.2096,2.1981,2.1699,2.1593,2.1718,2.2096,2.203,2.1966,2.1966,2.2345,2.2518,2.2518,2.1735,2.0733,1.9519,1.8303,1.7068,1.5862,1.5821,1.5821,1.5835,1.5835,1.4502,1.2479,1.2433,1.1139,0.9291,0.9446,0.9541,0.9635,0.9744,1.0019,1.0276,1.0315,1.0483,1.0688,1.0688,1.0691,1.0694,1.0694,1.0803,1.0921,1.0921,1.106,1.1196,1.1196,1.12,1.1166,1.0958,1.107,1.1206,1.121,1.1329,1.144,1.1592,1.1584,1.1584,1.1584,1.1584,1.1584,1.1584,1.1584,1.1584,1.1584,1.1584,1.1641,1.1783,1.1793,1.1898,1.2087,1.2237,1.2284,1.2291,1.2423,1.2494,1.2494,1.2355,1.2244,1.2091,1.1901,1.1715,1.1584,1.1584,1.1584,0.0,0.0,2.4978,2.5726,0.0,0.0,0.0,0.0,0.0,0.0,0.0,0.0,0.0,0.0,0.0,0.0,0.0,0.0,0.0,1.9974,2.0175,2.0351,2.0539,2.0803,2.1193,2.1041,2.079,2.044,2.0743,2.0533,1.9603,2.0468,2.0889,2.0627,2.1145,2.1435,2.1435,2.1885,2.2236,2.2488,2.1413,2.0421,1.9474,1.8249,1.699,1.5808,1.5808,1.5808,1.573,1.4902,1.3639,1.2193,1.1394,1.0159,0.8903,0.9281,0.9479,0.9632,0.9741,0.9923,1.0113,1.0246,1.0412,1.0588,1.0657,1.0688,1.0688,1.0688,1.0725,1.0765,1.0765,1.0833,1.087,1.087,1.0948,1.0972,1.0924,1.1141,1.1314,1.1314,1.1436,1.1558,1.1573,1.1584,1.1584,1.1584,1.1584,1.1584,1.1584,1.1584,1.1584,1.1584,1.1584,1.1604,1.1651,1.1655,1.1714,1.1765,1.1816,1.1935,1.2169,1.2224,1.2301,1.2498,1.2362,1.2264,1.2213,1.1955,1.1769,1.1719,1.1627,1.1584,2.4102,2.4157,0.0,2.5394,2.47,0.0,2.4454,0.0,2.4007,0.0,0.0,0.0,0.0,0.0,0.0,0.0,0.0,0.0,0.0,1.9798,1.9798,1.9798,1.9798,1.9949,2.0352,1.9655,1.9114,1.8889,1.8827,1.8511,1.7886,1.9096,1.9771,1.9686,2.0537,2.0996,2.0996,2.1435,2.1649,2.1591,2.0522,1.961,1.8818,1.7584,1.6574,1.5808,1.5808,1.5808,1.5706,1.4435,1.3272,1.2147,1.0883,0.9735,0.8811,0.9235,0.951,0.9696,0.9758,0.989,1.0042,1.0229,1.0375,1.0521,1.0673,1.0688,1.0688,1.0688,1.0688,1.0688,1.0688,1.0688,1.0688,1.0688,1.0762,1.0833,1.0833,1.1026,1.125,1.1301,1.1433,1.1555,1.1573,1.1584,1.1584,1.1584,1.1584,1.1584,1.1584,1.1584,1.1584,1.1584,1.1584,1.1584,1.1584,1.1584,1.1584,1.1584,1.1631,1.1779,1.1972,1.207,1.2237,1.2494,1.2254,1.2179,1.2291,1.1932,1.1719,1.1715,1.1624,1.1584]},{"header":{"parameterUnit":"m.s-1","parameterCategory":1,"la1":30.6,"la2":29.2853,"lo1":-89.7004,"lo2":-87.6739,"dy":0.0162,"dx":0.0183,"nx":112,"ny":82,"refTime":"2023-11-10T06:00:00:Z","depth":0,"parameterNumber":3,"parameterNumberName":"V-component_of_WINDS"},"data":[0.0,0.0,0.0,0.0,0.0,0.0,0.0,0.0,0.0,0.0,0.0,0.0,0.0,0.0,0.0,0.0,0.0,0.0,0.0,0.0,0.0,0.0,0.0,0.0,0.0,0.0,0.0,0.0,0.0,0.0,0.0,0.0,0.0,0.0,0.0,0.0,0.0,0.0,0.0,0.0,0.0,0.0,0.0,0.0,0.0,0.0,0.0,0.0,0.0,0.0,0.0,0.0,0.0,0.0,0.0,0.0,0.0,0.0,0.0,0.0,0.0,0.0,0.0,0.0,0.0,0.0,0.0,0.0,0.0,0.0,0.0,0.0,0.0,0.0,0.0,0.0,0.0,0.0,0.0,0.0,0.0,0.0,0.0,0.0,0.0,0.0,0.0,0.0,0.0,0.0,2.5262,2.7425,3.2362,3.5265,3.4697,3.4368,3.148,2.5158,0.0,0.0,0.0,0.0,0.0,0.0,0.0,0.0,0.0,0.0,0.0,0.0,0.0,0.0,0.0,0.0,0.0,0.0,0.0,0.0,0.0,0.0,0.0,0.0,0.0,0.0,0.0,0.0,0.0,0.0,0.0,0.0,0.0,0.0,0.0,0.0,0.0,0.0,0.0,0.0,0.0,0.0,0.0,0.0,0.0,0.0,0.0,0.0,0.0,0.0,0.0,0.0,0.0,0.0,0.0,0.0,0.0,0.0,0.0,0.0,0.0,0.0,0.0,0.0,0.0,0.0,0.0,0.0,0.0,0.0,0.0,0.0,0.0,0.0,0.0,0.0,0.0,0.0,0.0,0.0,0.0,0.0,0.0,0.0,0.0,0.0,0.0,0.0,0.0,0.0,0.0,0.0,0.0,0.0,0.0,0.0,0.0,0.0,0.0,0.0,0.0,0.0,0.0,0.0,2.5989,3.1824,3.4277,3.5459,3.5355,3.3784,3.0702,2.5767,0.0,0.0,0.0,0.0,0.0,0.0,0.0,0.0,0.0,0.0,0.0,0.0,0.0,0.0,0.0,0.0,0.0,0.0,0.0,0.0,0.0,0.0,0.0,0.0,0.0,0.0,0.0,0.0,0.0,0.0,0.0,0.0,0.0,0.0,0.0,0.0,0.0,0.0,0.0,0.0,0.0,0.0,0.0,0.0,0.0,0.0,0.0,0.0,0.0,0.0,0.0,0.0,0.0,0.0,0.0,0.0,0.0,0.0,0.0,0.0,0.0,0.0,0.0,0.0,0.0,0.0,0.0,0.0,0.0,0.0,0.0,0.0,0.0,0.0,0.0,0.0,0.0,0.0,0.0,0.0,0.0,0.0,0.0,0.0,0.0,0.0,0.0,0.0,0.0,0.0,0.0,0.0,0.0,0.0,0.0,0.0,0.0,0.0,0.0,0.0,0.0,0.0,0.0,2.3879,2.735,3.2901,3.4696,3.5504,3.5504,3.3993,3.0911,2.5929,2.4631,0.0,0.0,0.0,0.0,0.0,0.0,0.0,0.0,0.0,0.0,0.0,0.0,0.0,0.0,0.0,0.0,0.0,0.0,0.0,0.0,0.0,0.0,0.0,0.0,0.0,0.0,0.0,0.0,0.0,0.0,0.0,0.0,0.0,0.0,0.0,0.0,0.0,0.0,0.0,0.0,0.0,0.0,0.0,0.0,0.0,0.0,0.0,0.0,0.0,0.0,0.0,0.0,0.0,0.0,0.0,0.0,0.0,0.0,0.0,0.0,0.0,0.0,0.0,0.0,0.0,0.0,0.0,0.0,0.0,0.0,0.0,0.0,0.0,0.0,0.0,0.0,0.0,0.0,0.0,0.0,0.0,0.0,0.0,0.0,0.0,0.0,0.0,0.0,0.0,0.0,0.0,0.0,0.0,0.0,0.0,0.0,0.0,0.0,0.0,0.0,0.0,0.0,2.6632,2.9129,3.329,3.4801,3.5444,3.528,3.3604,3.0582,2.5902,2.3909,0.0,0.0,0.0,0.0,0.0,0.0,0.0,0.0,0.0,0.0,0.0,0.0,0.0,0.0,0.0,0.0,0.0,0.0,0.0,0.0,0.0,0.0,0.0,0.0,0.0,0.0,0.0,0.0,0.0,0.0,0.0,0.0,0.0,0.0,0.0,0.0,0.0,0.0,0.0,0.0,0.0,0.0,0.0,0.0,0.0,0.0,0.0,0.0,0.0,0.0,0.0,0.0,0.0,0.0,0.0,0.0,0.0,0.0,0.0,0.0,0.0,0.0,0.0,0.0,0.0,0.0,0.0,0.0,0.0,0.0,0.0,0.0,0.0,0.0,0.0,0.0,0.0,0.0,0.0,0.0,0.0,0.0,0.0,0.0,0.0,0.0,0.0,0.0,0.0,0.0,0.0,0.0,0.0,0.0,0.0,0.0,0.0,0.0,0.0,0.0,0.0,0.0,2.7921,3.13,3.4144,3.507,3.525,3.4622,3.1674,2.865,2.5782,2.2657,0.0,0.0,0.0,0.0,0.0,0.0,0.0,0.0,0.0,0.0,0.0,0.0,0.0,0.0,0.0,0.0,0.0,0.0,0.0,0.0,0.0,0.0,0.0,0.0,0.0,0.0,0.0,0.0,0.0,0.0,0.0,0.0,0.0,0.0,0.0,0.0,0.0,0.0,0.0,0.0,0.0,0.0,0.0,0.0,0.0,0.0,0.0,0.0,0.0,0.0,0.0,0.0,0.0,0.0,0.0,0.0,0.0,0.0,0.0,0.0,0.0,0.0,0.0,0.0,0.0,0.0,0.0,0.0,0.0,0.0,0.0,0.0,0.0,0.0,0.0,0.0,0.0,0.0,0.0,0.0,0.0,0.0,0.0,0.0,0.0,0.0,0.0,0.0,0.0,0.0,0.0,0.0,0.0,0.0,0.0,0.0,0.0,0.0,0.0,0.0,0.0,0.0,2.7111,3.0328,3.2976,3.4233,3.4607,3.3934,3.1599,2.8861,2.5782,0.0,0.0,0.0,0.0,0.0,0.0,0.0,0.0,0.0,0.0,0.0,0.0,0.0,0.0,0.0,0.0,0.0,0.0,0.0,0.0,0.0,0.0,0.0,0.0,0.0,0.0,0.0,0.0,0.0,0.0,0.0,0.0,0.0,0.0,0.0,0.0,0.0,0.0,0.0,0.0,0.0,0.0,0.0,0.0,0.0,0.0,0.0,0.0,0.0,0.0,0.0,0.0,0.0,0.0,0.0,0.0,0.0,0.0,0.0,0.0,0.0,0.0,0.0,0.0,0.0,0.0,0.0,0.0,0.0,0.0,0.0,0.0,0.0,0.0,0.0,0.0,0.0,0.0,0.0,0.0,0.0,0.0,0.0,0.0,0.0,0.0,0.0,0.0,0.0,0.0,0.0,0.0,0.0,0.0,0.0,0.0,0.0,0.0,0.0,0.0,0.0,0.0,2.364,2.7006,3.0044,3.2258,3.3499,3.3829,3.2946,3.0657,2.8115,2.5453,0.0,0.0,0.0,0.0,0.0,0.0,0.0,0.0,0.0,0.0,0.0,0.0,0.0,0.0,0.0,0.0,0.0,0.0,0.0,0.0,0.0,0.0,0.0,0.0,0.0,0.0,0.0,0.0,0.0,0.0,0.0,0.0,0.0,0.0,0.0,0.0,0.0,0.0,0.0,0.0,0.0,0.0,0.0,0.0,0.0,0.0,0.0,0.0,0.0,0.0,0.0,0.0,0.0,0.0,0.0,0.0,0.0,0.0,0.0,0.0,0.0,0.0,0.0,0.0,0.0,0.0,0.0,0.0,0.0,0.0,0.0,0.0,0.0,0.0,0.0,0.0,0.0,0.0,0.0,0.0,0.0,0.0,0.0,0.0,0.0,0.0,0.0,0.0,0.0,0.0,0.0,0.0,0.0,0.0,0.0,0.0,0.0,0.0,0.0,0.0,0.0,0.0,2.444,2.8055,3.1002,3.2347,3.308,3.2931,3.1585,2.8487,2.6019,0.0,0.0,0.0,0.0,0.0,0.0,0.0,0.0,0.0,0.0,0.0,0.0,0.0,0.0,0.0,0.0,0.0,0.0,0.0,0.0,0.0,0.0,0.0,0.0,0.0,0.0,0.0,0.0,0.0,0.0,0.0,0.0,0.0,0.0,0.0,0.0,0.0,0.0,0.0,0.0,0.0,0.0,0.0,0.0,0.0,0.0,0.0,0.0,0.0,0.0,0.0,0.0,0.0,0.0,0.0,0.0,0.0,0.0,0.0,0.0,0.0,0.0,0.0,0.0,0.0,0.0,0.0,0.0,0.0,0.0,0.0,0.0,0.0,0.0,0.0,0.0,0.0,0.0,0.0,0.0,0.0,0.0,0.0,0.0,0.0,0.0,0.0,0.0,0.0,0.0,0.0,0.0,0.0,0.0,0.0,0.0,0.0,0.0,0.0,0.0,0.0,0.0,0.0,2.444,2.7667,3.0357,3.1675,3.1974,3.157,3.0268,2.7964,2.5836,2.4003,0.0,0.0,0.0,0.0,0.0,0.0,0.0,0.0,0.0,0.0,0.0,0.0,0.0,0.0,0.0,0.0,0.0,0.0,0.0,0.0,0.0,0.0,0.0,0.0,0.0,0.0,0.0,0.0,0.0,0.0,0.0,0.0,0.0,0.0,0.0,0.0,0.0,0.0,0.0,0.0,0.0,0.0,0.0,0.0,0.0,0.0,0.0,0.0,0.0,0.0,0.0,0.0,0.0,0.0,0.0,0.0,0.0,0.0,0.0,0.0,0.0,0.0,0.0,0.0,0.0,0.0,0.0,0.0,0.0,0.0,0.0,0.0,0.0,0.0,0.0,0.0,0.0,0.0,0.0,0.0,0.0,0.0,0.0,0.0,0.0,0.0,0.0,0.0,0.0,0.0,0.0,0.0,0.0,0.0,0.0,0.0,0.0,0.0,0.0,0.0,0.0,0.0,2.481,2.747,2.9684,3.0972,3.1092,3.0478,2.8919,2.7452,2.5746,2.3729,0.0,0.0,0.0,0.0,0.0,0.0,0.0,0.0,0.0,0.0,0.0,0.0,0.0,0.0,0.0,0.0,0.0,0.0,0.0,0.0,0.0,0.0,0.0,0.0,0.0,0.0,0.0,0.0,0.0,0.0,0.0,0.0,0.0,0.0,0.0,0.0,0.0,0.0,0.0,0.0,0.0,0.0,0.0,0.0,0.0,0.0,0.0,0.0,0.0,0.0,0.0,0.0,0.0,0.0,0.0,0.0,0.0,0.0,0.0,0.0,0.0,0.0,0.0,0.0,0.0,0.0,0.0,0.0,0.0,0.0,0.0,0.0,0.0,0.0,0.0,0.0,0.0,0.0,0.0,0.0,0.0,0.0,0.0,0.0,0.0,0.0,0.0,0.0,0.0,0.0,0.0,0.0,0.0,0.0,0.0,0.0,0.0,0.0,0.0,0.0,0.0,0.0,2.536,2.7305,2.9026,3.0357,3.0387,2.9577,2.7735,2.692,2.5691,2.3775,0.0,0.0,0.0,0.0,0.0,0.0,0.0,0.0,0.0,0.0,0.0,0.0,0.0,0.0,0.0,0.0,0.0,0.0,0.0,0.0,0.0,0.0,0.0,0.0,0.0,0.0,0.0,0.0,0.0,0.0,0.0,0.0,0.0,0.0,0.0,0.0,0.0,0.0,0.0,0.0,0.0,0.0,0.0,0.0,0.0,0.0,0.0,0.0,0.0,0.0,0.0,0.0,0.0,0.0,0.0,0.0,0.0,0.0,0.0,0.0,1.8506,0.0,0.0,0.0,0.0,0.0,0.0,0.0,0.0,0.0,0.0,0.0,0.0,0.0,0.0,0.0,0.0,0.0,0.0,0.0,0.0,0.0,0.0,0.0,0.0,0.0,0.0,0.0,0.0,0.0,0.0,0.0,0.0,0.0,0.0,0.0,0.0,0.0,0.0,0.0,0.0,0.0,2.536,2.6899,2.85,3.0313,2.9594,2.8579,2.7539,2.6445,2.5325,2.4153,2.3768,0.0,0.0,0.0,0.0,0.0,0.0,0.0,0.0,0.0,0.0,0.0,0.0,0.0,0.0,0.0,0.0,0.0,0.0,0.0,0.0,0.0,0.0,0.0,0.0,0.0,0.0,0.0,0.0,0.0,0.0,0.0,0.0,0.0,0.0,0.0,0.0,0.0,0.0,0.0,0.0,0.0,0.0,0.0,0.0,0.0,0.0,0.0,0.0,0.0,0.0,0.0,0.0,0.0,0.0,0.0,0.0,0.0,0.0,0.0,0.0,1.9999,0.0,0.0,0.0,0.0,0.0,0.0,0.0,0.0,0.0,0.0,0.0,0.0,0.0,0.0,0.0,0.0,0.0,0.0,0.0,0.0,0.0,0.0,0.0,0.0,0.0,0.0,0.0,0.0,0.0,0.0,0.0,0.0,0.0,0.0,0.0,0.0,0.0,0.0,0.0,0.0,2.6733,2.7873,2.911,3.0799,2.9743,2.8507,2.7433,2.6445,2.5534,2.4734,2.4353,0.0,0.0,0.0,0.0,0.0,0.0,0.0,0.0,0.0,0.0,0.0,0.0,0.0,0.0,0.0,0.0,0.0,0.0,0.0,0.0,0.0,0.0,0.0,0.0,0.0,0.0,0.0,0.0,0.0,0.0,0.0,0.0,0.0,0.0,0.0,0.0,0.0,0.0,0.0,0.0,0.0,0.0,0.0,0.0,0.0,0.0,0.0,0.0,0.0,0.0,0.0,0.0,0.0,2.546,2.6089,2.6909,2.6548,2.6335,2.6184,2.5143,2.3935,2.2608,2.1028,0.0,0.0,0.0,0.0,0.0,0.0,0.0,0.0,0.0,0.0,0.0,0.0,0.0,0.0,0.0,0.0,0.0,0.0,0.0,0.0,0.0,0.0,0.0,0.0,3.0313,2.9966,2.7386,0.0,0.0,0.0,0.0,0.0,0.0,0.0,0.0,0.0,0.0,0.0,2.8435,2.9252,3.0074,3.1366,3.0304,2.8989,2.7745,2.6877,2.6182,2.5685,2.4936,2.4702,0.0,0.0,0.0,0.0,0.0,0.0,0.0,0.0,0.0,0.0,0.0,0.0,0.0,0.0,0.0,0.0,0.0,0.0,0.0,0.0,0.0,0.0,0.0,0.0,0.0,0.0,0.0,0.0,0.0,0.0,0.0,0.0,1.7898,1.9002,0.0,0.0,0.0,0.0,0.0,0.0,0.0,0.0,0.0,0.0,0.0,0.0,0.0,2.4225,2.6283,2.7952,2.9099,2.9731,3.1651,3.2415,3.2123,3.2516,3.2441,3.1972,3.1298,0.0,2.4377,2.3158,0.0,0.0,0.0,0.0,0.0,0.0,0.0,0.0,0.0,0.0,0.0,0.0,0.0,0.0,0.0,0.0,0.0,0.0,0.0,0.0,0.0,0.0,3.0913,3.1182,3.1316,3.144,0.0,3.042,2.8815,2.7455,2.7631,0.0,0.0,0.0,0.0,0.0,0.0,0.0,2.9193,2.9952,3.0637,3.1414,3.0801,2.9963,2.903,2.7858,2.723,2.7442,2.6387,2.5971,2.6438,2.6396,0.0,0.0,0.0,0.0,0.0,0.0,0.0,0.0,0.0,0.0,0.0,0.0,0.0,0.0,0.0,0.0,0.0,0.0,0.0,0.0,0.0,0.0,0.0,0.0,0.0,0.0,0.0,0.0,0.0,1.8144,1.9912,2.098,2.0899,2.0218,0.0,0.0,0.0,0.0,0.0,0.0,0.0,0.0,0.0,2.6978,2.8031,2.9203,3.0552,3.219,3.3285,3.3862,3.4826,3.5339,3.5401,3.5339,3.5175,3.4911,3.4324,3.2658,3.0136,2.715,2.5218,2.4054,0.0,0.0,0.0,0.0,2.4292,2.5104,2.6701,2.7694,2.831,2.8838,0.0,0.0,0.0,0.0,0.0,0.0,0.0,0.0,0.0,0.0,3.2923,3.3629,3.444,3.5029,3.4999,3.4582,3.3357,0.0,3.0094,2.9733,2.8125,0.0,0.0,0.0,0.0,2.9591,3.0995,3.1742,3.2232,3.2541,3.1549,3.0568,2.9758,2.8799,2.8125,2.7831,2.7311,2.7108,2.7317,2.7325,2.7325,0.0,0.0,0.0,0.0,0.0,0.0,0.0,0.0,0.0,0.0,0.0,0.0,0.0,0.0,0.0,0.0,0.0,0.0,0.0,0.0,0.0,0.0,0.0,0.0,0.0,0.0,0.0,0.0,2.0509,2.2451,2.3206,2.4026,2.3717,0.0,0.0,0.0,0.0,0.0,0.0,2.7078,2.8181,2.9654,3.1602,3.2984,3.3972,3.4572,3.578,3.6597,3.7036,3.7034,3.7248,3.7625,3.721,3.6971,3.6783,3.6334,3.6018,3.5477,3.0999,2.8335,2.7047,2.6832,2.6505,2.6351,2.7929,2.8823,2.9513,3.1256,3.207,3.2397,3.2675,3.1913,3.0566,2.9054,0.0,0.0,0.0,0.0,3.001,3.1858,3.3378,3.4731,3.5889,3.7003,3.7719,3.7397,3.7576,3.6805,0.0,3.2846,3.2391,3.0695,0.0,0.0,0.0,0.0,3.1615,3.2846,3.3397,3.3609,3.3413,3.2425,3.1393,3.0453,2.9525,2.8747,2.8137,2.7748,2.7604,2.7781,2.7993,2.8205,2.8382,0.0,0.0,0.0,0.0,0.0,0.0,0.0,0.0,0.0,0.0,0.0,0.0,0.0,0.0,0.0,0.0,0.0,0.0,0.0,0.0,0.0,0.0,0.0,0.0,0.0,0.0,0.0,0.0,0.0,2.6278,2.8318,0.0,0.0,0.0,0.0,2.6605,2.777,2.9682,3.256,3.3242,3.4793,3.7501,3.7664,3.799,3.8605,3.868,3.8743,3.8768,3.8768,3.8781,3.8806,3.8781,3.8467,3.7927,3.7902,3.8252,3.8523,3.3909,3.165,3.1062,3.0608,3.041,3.0625,3.2478,3.3174,3.3403,3.4768,3.4859,3.4561,3.5833,3.5341,3.3874,3.1914,3.0837,0.0,0.0,3.1316,3.266,3.415,3.5484,3.6658,3.7495,3.7746,3.7976,3.8655,3.8267,3.7367,0.0,3.6104,3.5684,3.3,0.0,3.3564,3.1681,3.2451,3.3533,3.4304,3.4427,3.4178,3.3463,3.3328,3.2713,3.1268,2.983,2.8976,2.8942,2.7562,2.7072,2.7773,2.8535,2.9271,2.998,3.0014,0.0,0.0,0.0,0.0,0.0,0.0,0.0,0.0,0.0,0.0,0.0,0.0,0.0,0.0,0.0,0.0,0.0,0.0,0.0,0.0,0.0,0.0,0.0,0.0,0.0,0.0,0.0,0.0,3.0041,3.2178,0.0,3.0566,3.0425,3.0732,3.1394,3.2823,3.4587,3.6733,3.7324,3.8404,4.0073,4.0123,4.0223,4.0437,4.0111,3.9936,3.9923,3.9572,3.9421,3.9421,3.9421,3.9283,3.912,3.9601,3.995,4.01,3.8876,3.7399,3.5866,3.5533,3.5403,3.555,3.6831,3.7567,3.7961,3.799,3.7836,3.7464,3.6252,3.5251,3.4384,3.3664,3.326,3.3352,3.4744,3.5492,3.6199,3.7734,3.884,3.9509,3.9312,3.9649,3.9927,3.9711,3.9467,3.9143,3.8663,3.7968,3.7157,3.6208,3.6006,3.556,3.4314,3.452,3.4731,3.4533,3.4912,3.4917,3.4184,3.3677,3.2983,3.1995,3.098,3.0219,2.9736,2.9194,2.8999,2.927,2.9567,3.0057,3.0784,3.0818,3.0345,0.0,0.0,0.0,0.0,0.0,0.0,0.0,0.0,0.0,0.0,0.0,0.0,0.0,0.0,0.0,0.0,0.0,0.0,0.0,0.0,0.0,0.0,0.0,0.0,0.0,2.8196,3.1499,3.2879,3.5343,3.6295,3.4648,3.4999,3.5454,3.583,3.7211,3.8718,4.02,4.0627,4.1229,4.2118,4.2143,4.1967,4.1618,4.1254,4.089,4.0513,4.0149,3.9873,3.9697,3.9697,3.9929,4.0364,4.0864,4.1569,4.2361,4.26,4.204,4.0992,4.0201,3.9752,3.9663,4.0681,4.107,4.0984,4.0307,3.9933,3.9406,3.7447,3.6357,3.5825,3.5907,3.5911,3.6315,3.8278,3.8811,3.9109,4.0398,4.1141,4.1413,4.0951,4.104,4.1068,4.0574,4.0282,4.0096,4.0096,3.9277,3.8433,3.7974,3.7483,3.6806,3.5763,3.5391,3.5053,3.4567,3.4928,3.4962,3.4201,3.3694,3.3102,3.2361,3.1176,3.0362,3.0115,2.9608,2.9557,3.0081,2.9871,3.0074,3.0818,3.0835,3.0591,3.011,0.0,0.0,0.0,0.0,0.0,0.0,0.0,0.0,0.0,0.0,0.0,0.0,0.0,0.0,0.0,0.0,0.0,0.0,0.0,0.0,0.0,0.0,0.0,2.7137,3.1141,3.4261,3.4841,3.7826,3.9182,3.755,3.8868,3.9823,3.9823,4.08,4.1879,4.3002,4.3052,4.3303,4.3815,4.3815,4.3288,4.2248,4.2225,4.1645,4.0512,4.0499,4.0224,3.9697,3.9736,4.044,4.1604,4.1665,4.3122,4.5345,4.4741,4.5208,4.6149,4.4348,4.3242,4.2792,4.3885,4.3494,4.2336,4.1658,4.1014,4.0352,3.9675,3.9038,3.8544,3.8725,3.8803,3.9121,4.0641,4.1083,4.1254,4.2073,4.2265,4.2272,4.2328,4.1779,4.1258,4.1238,4.0658,4.013,4.013,4.013,3.9643,3.821,3.7961,3.7454,3.5921,3.5098,0.0,3.4584,3.4567,3.4286,3.3558,3.3463,3.3169,3.2395,3.0364,2.9424,3.0081,2.8737,2.8584,3.0065,2.9457,2.9424,3.0149,3.0166,3.0886,3.2327,0.0,0.0,0.0,0.0,0.0,0.0,0.0,0.0,0.0,0.0,0.0,0.0,0.0,0.0,0.0,0.0,0.0,0.0,0.0,0.0,0.0,2.9409,3.132,3.1402,3.4575,3.7513,3.9282,4.1379,4.2497,4.202,4.2396,4.2672,4.2672,4.3325,4.3824,4.4154,4.4166,4.4242,4.4364,4.4003,4.3652,4.335,4.2587,4.1833,4.1089,4.0688,4.0224,3.9723,4.0642,4.1269,4.169,4.3551,4.4757,4.5457,4.6212,4.6707,4.6877,4.5408,4.4421,4.3864,4.418,4.3773,4.2951,4.2331,4.2006,4.1733,4.1074,4.0828,4.0791,4.0851,4.0989,4.131,4.2366,4.266,4.2858,4.3734,4.3936,4.3808,4.323,4.2932,4.2645,4.2117,4.1407,4.0899,4.0899,4.0472,3.9977,3.9559,3.9491,3.9169,3.821,3.7889,0.0,3.6321,3.6169,3.587,3.5087,3.5002,3.4478,3.3203,3.2544,3.1816,3.0954,3.0497,3.0463,3.0886,3.071,3.0946,3.1674,3.1691,3.2165,0.0,0.0,0.0,0.0,0.0,0.0,0.0,0.0,0.0,0.0,0.0,0.0,0.0,0.0,0.0,0.0,0.0,0.0,0.0,0.0,0.0,0.0,3.3119,3.5653,3.7047,3.8479,4.0198,4.2419,4.3536,4.4242,4.448,4.4505,4.4405,4.4166,4.4669,4.4982,4.4982,4.4982,4.4982,4.4982,4.4669,4.4279,4.3802,4.319,4.2487,4.1681,4.1102,4.084,4.085,4.1349,4.2168,4.3266,4.4757,4.5711,4.6255,4.6997,4.7309,0.0,0.0,0.0,0.0,0.0,4.3638,4.3265,4.2895,4.2876,4.2925,4.2529,4.234,4.2352,4.2722,4.2687,4.2739,4.3606,4.3844,4.3962,4.4471,4.4615,4.4482,4.4012,4.3643,4.3288,4.2861,4.2185,4.166,4.166,4.1068,0.0,4.0557,4.0049,3.9389,3.865,3.829,3.7765,3.6902,3.6795,3.6496,3.5695,3.56,3.5137,3.3964,3.3288,0.0,0.0,0.0,3.1657,3.1657,3.1657,0.0,0.0,0.0,3.2977,3.4326,0.0,0.0,0.0,3.367,3.3383,0.0,0.0,0.0,0.0,0.0,0.0,0.0,0.0,0.0,0.0,0.0,0.0,0.0,0.0,0.0,0.0,3.6772,3.9685,4.2926,4.2459,4.2507,4.4464,4.474,4.4991,4.5535,4.5635,4.5434,4.4828,4.5347,4.5648,4.5585,4.5585,0.0,0.0,0.0,4.497,4.3903,4.3827,4.335,4.2433,4.1886,4.1979,4.2637,4.2294,4.3321,4.5403,4.5539,4.6255,4.7309,4.7309,4.7309,4.7294,4.7219,4.6411,4.5155,4.3878,4.3429,4.3472,4.3472,0.0,0.0,4.4071,4.3801,4.3622,4.4404,4.419,4.3838,4.4535,4.477,4.4818,4.4635,4.4651,4.4702,4.4632,4.4045,4.3541,4.3541,4.2946,4.2422,4.2422,4.1762,4.1204,4.1204,4.0037,3.8903,3.8261,3.7596,3.7151,3.7066,3.7049,3.6716,3.5831,0.0,0.0,3.4584,3.3383,3.2875,3.3362,3.2791,3.2462,3.2547,3.2632,3.2706,3.2801,3.2886,3.3897,3.5853,3.5853,3.6558,3.7843,3.5825,3.5233,0.0,0.0,0.0,0.0,0.0,0.0,0.0,0.0,0.0,0.0,0.0,0.0,0.0,0.0,0.0,3.7424,4.025,4.2873,4.5321,4.5095,4.4844,4.5271,4.5711,4.6024,4.6137,4.6522,4.6559,4.6024,4.6471,4.6597,4.6175,4.615,4.615,4.615,4.5723,4.5158,4.4439,4.4028,4.3787,4.3807,0.0,0.0,4.4134,4.5057,4.5449,4.5471,4.6491,4.7062,4.7309,4.7309,4.7309,4.7249,4.6689,4.5986,4.52,4.4386,4.428,4.451,4.451,4.5059,4.5752,4.5752,4.5783,4.5864,4.6042,4.6115,0.0,4.5609,4.5923,4.6107,4.4905,4.5041,4.5331,4.4736,4.4482,4.4364,4.4364,4.3758,4.3186,4.3186,4.2104,4.1204,4.1204,4.0472,3.9829,3.9694,3.9554,3.9237,3.8645,3.8577,3.807,3.6716,3.7094,3.6654,3.4669,3.4776,3.4512,3.3463,3.3271,3.3457,3.406,3.4658,3.5267,3.5915,3.6502,3.7043,3.7454,3.7454,3.7606,3.7877,3.7449,3.733,0.0,0.0,0.0,0.0,0.0,0.0,0.0,0.0,0.0,0.0,0.0,3.054,3.1604,0.0,3.8442,4.0927,4.3426,4.5535,4.6916,4.7117,4.6858,4.5999,4.6389,4.6584,4.6338,4.6785,4.6873,4.6351,4.6534,4.6572,4.6326,4.6313,4.6313,4.6313,4.605,4.5485,4.4602,4.4326,4.4334,4.4586,4.4322,4.4957,4.6349,4.6393,4.6563,4.6858,4.7167,4.7309,4.7309,4.7309,4.7309,4.7307,4.7491,4.6624,4.5214,4.4556,4.4508,4.4793,4.4793,4.5724,4.6901,4.6901,4.7046,4.7189,4.7189,4.7012,4.6718,4.6346,4.653,4.6631,4.5887,4.5971,4.616,4.5785,4.57,4.5599,4.5227,4.484,4.4437,4.4079,4.3068,4.2307,4.2307,4.1677,4.0946,4.0214,4.0096,3.9977,3.9592,3.9542,3.9136,3.8019,3.8227,3.7838,3.6332,3.6541,3.6439,3.5695,3.5645,3.5825,3.618,3.6558,3.693,3.733,3.7719,3.8079,3.8447,3.8447,3.8633,3.9,3.9305,3.9093,0.0,0.0,0.0,0.0,0.0,0.0,0.0,2.71,2.8976,2.9854,3.2503,3.509,3.6397,3.9282,4.2133,4.4129,4.6007,4.7437,4.8008,4.8385,4.8071,4.664,4.6923,4.7036,4.6496,4.6936,4.6986,4.6363,4.6414,4.6396,4.6326,4.6313,4.6313,4.6313,4.6313,4.5867,4.501,4.4998,4.5292,4.5806,4.5241,4.6192,4.8382,4.7268,4.7262,4.8094,4.7534,4.7309,4.7309,4.7309,4.7424,4.7658,4.8486,4.7691,4.6006,4.5318,4.5284,4.5544,4.5403,4.6452,4.7868,4.7868,4.7968,4.8107,4.8107,4.7699,4.7192,4.7056,4.7107,4.7173,4.6868,4.6904,4.6972,4.6834,4.68,4.6648,4.6041,4.5923,4.5737,4.5142,4.4384,4.3846,4.3846,4.3234,4.2249,4.0756,4.0405,4.0303,4.0303,4.0185,3.9812,3.9085,3.9,3.87,3.7973,3.7893,3.7893,3.7893,3.7893,3.8004,3.8253,3.8168,3.8296,3.8646,3.8443,3.8732,3.9546,3.9443,3.9732,4.0429,4.0937,4.0504,2.2508,2.2194,2.2847,2.4757,2.5728,2.7474,0.0,3.3649,3.4439,3.6459,3.8755,4.0449,4.0611,4.3011,4.5334,4.6534,4.7324,4.8021,4.863,4.8284,4.7757,4.7086,4.7475,4.7588,4.7061,4.7488,4.7405,4.6389,4.6735,4.6798,4.6338,4.6313,4.6313,4.6313,4.6313,4.6344,4.6455,4.6469,4.7244,4.8713,4.806,4.8248,4.9148,4.8417,4.7843,4.7414,4.7339,4.7309,4.7309,4.7309,4.7828,4.8636,4.8764,4.885,4.8837,4.8115,4.8033,4.8174,4.7519,4.7966,4.8845,4.8845,4.8856,4.8883,4.8883,4.8832,4.8629,4.7954,4.8242,4.846,4.7141,4.7293,4.7616,4.6955,4.68,4.6783,4.6684,4.6682,4.665,4.658,4.5957,4.5449,4.5449,4.4823,4.3822,4.2283,4.1491,4.1085,4.1085,4.0506,3.9812,3.9085,3.9,3.87,3.7973,3.7893,3.7893,3.7893,3.7893,3.8409,3.9542,3.9133,3.966,4.1324,4.0377,4.0388,4.1494,4.0943,4.1006,4.1617,4.1682,4.1327,2.6159,2.6397,2.7105,2.8976,3.0608,3.2516,3.5479,3.7388,3.8806,3.9734,4.2206,4.41,4.3815,4.5748,4.7574,4.8008,4.8535,4.8975,4.9213,4.8473,4.7688,4.7161,4.7011,4.6891,4.6647,4.7111,4.7111,4.6376,4.6496,4.6522,4.6326,4.7116,4.7593,4.7593,4.8403,4.8577,4.7975,4.7988,4.8401,4.921,4.8912,4.9333,5.0361,4.9352,4.8304,4.7309,4.7309,4.7309,4.7337,4.7925,4.8424,4.8927,5.0133,5.0717,5.0695,4.9394,4.9102,4.9287,4.899,4.9492,5.0271,5.0271,4.9999,4.9644,4.9644,4.934,4.8934,4.8631,4.8749,4.8866,4.824,4.8308,4.8462,4.8156,4.8088,4.7953,4.7515,4.743,4.731,4.687,4.6549,4.6346,4.6346,4.6075,4.5667,4.5024,4.3538,4.2324,4.1897,4.1572,4.1267,4.0946,4.0929,4.0612,3.9872,3.9821,3.9648,3.922,3.9471,3.9875,4.0424,4.0555,4.1004,4.1782,4.1331,4.1319,4.181,4.1545,4.1556,4.1821,4.2162,4.2183,2.8618,2.9546,3.0696,3.262,3.5017,3.7225,3.8492,4.0814,4.2682,4.2682,4.484,4.6539,4.5849,4.7255,4.8567,4.8567,4.9,4.9314,4.9151,4.8297,4.735,4.6509,4.5919,4.5623,4.5623,4.6371,4.671,4.6338,4.6313,4.6481,4.6891,4.7919,4.8705,4.9108,4.9965,5.0116,4.9488,4.9293,4.9388,4.9752,4.9562,4.991,5.0631,4.9352,4.8229,4.7309,4.7309,4.7452,4.7764,4.8507,4.9135,4.9801,5.1322,5.2082,5.2192,5.0988,5.0512,5.0473,5.0257,5.0626,5.1201,5.1201,5.0845,5.0371,5.0167,4.9864,4.951,4.912,4.9154,4.9306,4.9306,4.9306,4.9402,4.9835,4.9947,4.9854,4.9529,4.9436,4.9213,4.8458,4.8321,4.818,4.7761,4.7854,4.7857,4.7437,4.6158,4.4741,4.342,4.2861,4.2591,4.2591,4.2422,4.2159,4.181,4.1784,4.1519,4.0942,4.1267,4.1455,4.1391,4.1653,4.1958,4.2266,4.1969,4.194,4.2266,4.2114,4.2124,4.2276,4.2714,4.292,2.8618,3.0105,3.2001,3.4705,3.7902,4.0789,4.2462,4.4543,4.6163,4.6163,4.7067,4.7544,4.6476,4.7192,4.7933,4.7933,4.8422,4.863,4.8033,4.7462,4.6522,4.4865,4.4217,4.3878,4.3878,4.5372,4.6326,4.6313,4.6313,4.6921,4.8371,4.8474,4.9152,5.0588,5.0051,5.0117,5.0937,5.0291,5.0368,5.1129,5.0478,4.9882,4.9307,4.7967,4.7339,4.7309,4.7309,4.7855,4.8764,4.8784,4.9977,5.1814,5.1885,5.254,5.345,5.3382,5.2893,5.2115,5.1405,5.1185,5.1201,5.1201,5.1184,5.1032,5.0321,5.0591,5.0829,4.9392,4.9509,5.0066,5.0066,5.0066,5.0455,5.1946,5.2297,5.2483,5.3194,5.3326,5.3082,5.2281,5.2139,5.1664,5.0156,5.0502,5.0475,4.9056,4.9394,4.8776,4.5954,4.4285,4.3372,4.3372,4.2726,4.2555,4.3182,4.3232,4.3131,4.2928,4.293,4.2846,4.2661,4.2101,4.2316,4.3427,4.2356,4.2337,4.3444,4.293,4.2939,4.3444,4.3462,4.3489,3.1185,3.342,3.5906,3.8668,4.1302,4.346,4.443,4.6062,4.6954,4.5455,4.5183,4.4731,4.3247,4.3285,4.3874,4.5008,4.5974,4.6778,4.7287,4.6898,4.5686,4.3303,4.3165,4.2823,4.1731,4.3124,4.4556,4.5686,4.6354,4.7239,4.8434,5.0393,5.1714,5.22,5.2526,5.2624,5.2442,5.1792,5.1374,5.1191,5.0533,4.965,4.8618,4.8162,4.7713,4.7352,4.8009,4.8486,4.8907,5.0304,5.1545,5.2653,5.288,5.3481,5.416,5.3687,5.3331,5.3061,5.2807,5.2739,5.2739,5.2739,5.2351,5.1975,5.2272,5.22,5.1994,5.1998,5.2158,5.2368,5.2368,5.2368,5.2477,5.3007,5.3134,5.3185,5.3445,5.3499,5.3429,5.3149,5.31,5.2927,5.2404,5.2081,5.1547,5.0502,4.974,4.8922,4.7953,4.7377,4.6839,4.6307,4.6028,4.5532,4.4701,4.4636,4.4394,4.3831,4.4174,4.4122,4.3515,4.4161,4.4208,4.3506,4.4162,4.4171,4.3506,4.3852,4.3852,4.3506,4.3506,4.3506,3.4356,3.6912,3.9333,4.2105,4.415,4.5643,4.6225,4.6866,4.6702,4.4493,4.3288,4.198,3.9935,3.9546,4.0161,4.2032,4.3112,4.4305,4.5969,4.5585,4.4455,4.2688,4.3083,4.3156,4.2285,4.342,4.46,4.5569,4.7065,4.8431,4.9675,5.1817,5.3241,5.3768,5.3817,5.3623,5.3198,5.2291,5.1513,5.0832,5.0189,4.9329,4.8304,4.8042,4.7901,4.7876,4.8527,4.9235,4.9997,5.1359,5.2549,5.3591,5.3819,5.4346,5.4938,5.4465,5.4126,5.3856,5.3602,5.3501,5.3501,5.3501,5.3328,5.3173,5.3429,5.3547,5.3567,5.3509,5.3695,5.3894,5.3894,5.3894,5.4032,5.4576,5.4701,5.478,5.504,5.5122,5.502,5.4737,5.4683,5.4499,5.3968,5.322,5.2574,5.2328,5.1233,5.0247,4.9755,4.9456,4.9102,4.8568,4.8292,4.7684,4.6576,4.648,4.6116,4.5292,4.5596,4.5449,4.4639,4.5434,4.5406,4.4387,4.5369,4.5388,4.4369,4.4874,4.4856,4.4369,4.4369,4.4369,3.7919,4.0423,4.2278,4.4924,4.6363,4.7199,4.7606,4.6853,4.5409,4.314,4.1254,3.9194,3.6497,3.6094,3.6897,3.9157,4.0136,4.1541,4.4288,4.3938,4.3315,4.3214,4.4115,4.4903,4.5289,4.6127,4.6497,4.6152,4.8355,5.0421,5.1966,5.2725,5.3727,5.5109,5.3887,5.3183,5.3154,5.1858,5.0862,5.0181,4.9583,4.8947,4.8289,4.7659,4.7898,4.8805,4.8958,5.0107,5.1903,5.204,5.3109,5.4651,5.4651,5.5108,5.575,5.5751,5.5295,5.4567,5.3889,5.3618,5.3568,5.3602,5.4076,5.4528,5.3862,5.4642,5.5475,5.4113,5.4233,5.4756,5.4756,5.4756,5.5147,5.6611,5.6951,5.7147,5.7851,5.7997,5.7776,5.7012,5.6866,5.6401,5.4961,5.4038,5.3703,5.436,5.3794,5.2768,5.1386,5.0607,5.0158,5.0122,4.9484,4.896,4.8731,4.8667,4.8247,4.7286,4.7186,4.681,4.5993,4.5993,4.5975,4.5902,4.5975,4.5975,4.5902,4.5938,4.5938,4.5902,4.5902,4.5902,4.0925,4.3697,4.6171,4.6584,4.6898,4.6697,4.5196,4.3661,4.1716,3.8705,3.5766,3.3119,3.1165,3.1838,3.3693,3.6733,3.9786,4.2738,4.5485,4.7349,4.7845,4.6191,4.8,4.8744,4.7131,4.8841,4.9812,4.9223,4.9788,5.0909,5.2646,5.3954,5.4571,5.4451,5.3623,5.2974,5.2456,5.1609,5.0862,5.0181,4.9583,4.8947,4.8296,4.8377,4.8569,4.8917,5.1025,5.1923,5.204,5.3953,5.4998,5.5411,5.5411,5.5868,5.6532,5.6574,5.6102,5.5477,5.5892,5.5272,5.4414,5.495,5.5257,5.5503,5.5904,5.6309,5.6631,5.68,5.6982,5.7134,5.7134,5.7134,5.7225,5.7636,5.7726,5.7762,5.7962,5.7997,5.7941,5.7721,5.7685,5.7382,5.6408,5.6045,5.5772,5.5361,5.4601,5.3759,5.2794,5.2498,5.2152,5.1544,5.1318,5.0946,5.0294,4.9694,4.9242,4.8985,4.8361,4.7636,4.6828,4.7361,4.7131,4.592,4.7076,4.7095,4.5902,4.6498,4.648,4.5902,4.5902,4.5902,4.4637,4.6991,4.9039,4.824,4.7372,4.6136,4.3806,4.1328,3.8366,3.4334,3.162,2.9365,2.7451,2.8656,3.0959,3.4057,3.817,4.1964,4.4793,4.7888,4.938,4.8221,5.0409,5.1474,5.0136,5.1566,5.2536,5.2463,5.2173,5.2457,5.3455,5.4595,5.488,5.4236,5.3533,5.2725,5.1783,5.1385,5.0862,5.0196,4.9868,4.9606,4.9446,4.9643,5.0056,5.0764,0.0,5.3331,5.323,5.4982,5.5885,5.6172,5.6172,5.6844,5.7809,5.7854,5.7619,5.7401,5.8174,5.7659,5.6555,5.5909,5.5952,5.6313,5.6765,5.7134,5.7462,5.7886,5.7997,5.7997,5.7997,5.7997,5.7997,5.7997,5.7997,5.7997,5.7997,5.7997,5.7997,5.7997,5.7997,5.785,5.7409,5.7031,5.6645,5.6198,5.5445,5.4748,5.4308,5.3636,5.3031,5.2564,5.2527,5.2197,5.1389,5.0904,5.05,5.0151,4.9344,4.8673,4.8214,4.8269,4.7884,4.6966,4.7838,4.7865,4.6948,4.7416,4.7397,4.6948,4.6948,4.6948,4.8346,4.9907,5.102,4.9456,4.7439,4.5184,4.2614,3.9078,3.4987,3.0218,2.8222,2.6779,2.4929,2.6385,2.8888,3.1938,3.6395,4.0601,4.3856,4.7404,4.9801,5.0157,5.2222,5.3605,5.3518,5.4088,5.467,5.5149,5.4655,5.4341,5.4341,5.488,5.485,5.4102,5.3324,5.2381,5.1206,5.1191,5.0907,5.0338,5.0409,5.0642,5.1049,5.1236,5.1989,5.3194,5.4082,5.4565,5.4803,5.5648,5.6325,5.6816,5.6917,5.7841,5.9111,5.9228,5.9357,5.9544,6.0312,6.0078,5.909,5.7001,5.6716,5.7203,5.7203,5.7577,5.7997,5.7997,5.7997,5.7997,5.7997,5.7997,5.7997,5.7997,5.7997,5.7997,5.7997,5.7997,5.7997,5.7997,5.7997,5.7997,5.7997,5.7428,5.6957,5.6957,5.6271,5.5768,5.5768,5.4344,5.3361,5.3361,5.3269,5.292,5.2226,5.206,5.1712,5.1004,5.0206,4.9747,4.9747,4.9022,4.8572,4.8471,4.8471,4.8406,4.8296,4.8296,4.8296,4.8296,4.8296,4.8296,5.048,5.1075,5.1649,4.9025,4.5933,4.2781,3.9749,3.5275,3.0701,2.708,2.472,2.3323,2.3384,2.5247,2.8278,3.2855,3.7108,4.151,4.6352,4.9995,5.2587,5.3748,5.5389,5.6214,5.5708,5.578,5.5683,5.5224,5.5089,5.5029,5.5029,5.5134,5.4625,5.3423,5.2187,5.143,5.1191,5.1191,5.1131,5.1035,5.1429,5.1635,5.1763,5.2993,5.3678,5.3989,5.5632,0.0,5.5614,5.6951,5.7222,5.6867,5.7459,5.8286,5.9178,5.9912,6.0187,6.0321,6.1124,6.0864,6.0139,5.9732,5.9227,5.8792,5.8792,5.8435,5.7997,5.7997,5.7997,5.7997,5.7997,5.7997,5.7997,5.7997,5.7997,5.7997,5.7997,5.7997,5.7997,5.7997,5.7997,5.7997,5.7997,5.7886,5.7795,5.7795,5.7116,5.6602,5.6602,5.5188,5.4197,5.4197,5.3599,5.3141,5.2994,5.238,5.195,5.1803,5.1041,5.0582,5.0582,5.0453,5.005,4.938,4.9362,4.9031,4.8296,4.8296,4.8296,4.8296,4.8296,4.8296,5.0744,5.167,5.2855,4.9288,4.5587,4.1811,3.8062,3.31,2.8197,2.4268,2.2611,2.1882,2.1857,2.4145,2.7142,3.0554,3.5083,3.9708,4.4115,4.8612,5.2027,5.357,5.5471,5.6521,5.6222,5.6192,5.5923,5.5239,5.5534,5.5578,5.5209,5.4521,5.3872,5.3228,5.1902,5.1191,5.1191,5.1191,5.1191,5.1214,5.2028,5.2732,5.3344,5.4632,5.5305,5.5576,5.6838,5.6951,5.6358,5.7442,5.7679,5.7408,5.7764,5.8668,5.9832,6.026,6.0927,6.1688,6.2088,6.1967,6.1642,6.1644,6.0827,5.9747,5.9325,5.8939,5.8547,5.8125,5.7997,5.7997,5.7997,5.7997,5.7997,5.7997,5.7997,5.7997,5.7997,5.7997,5.7997,5.7997,5.7997,5.7997,5.7997,5.7997,5.7997,5.7997,5.7666,5.7428,5.7428,5.64,5.5482,5.506,5.4675,5.4454,5.4454,5.3702,5.3243,5.3243,5.2087,5.1426,5.1426,5.1022,5.0618,5.0225,4.9802,4.938,4.8976,4.8976,4.8746,4.8315,4.9177,4.9122,5.1146,5.2267,5.3532,4.9798,4.5578,4.1251,3.6968,3.1874,2.6833,2.2409,2.1528,2.1408,2.0959,2.3197,2.5882,2.8309,3.2595,3.7191,4.1672,4.6378,5.0247,5.2612,5.4595,5.5833,5.5968,5.6117,5.5923,5.5239,5.5698,5.5758,5.5224,5.4042,5.3423,5.3423,5.2112,5.14,5.14,5.1265,5.1316,5.158,5.2893,5.4013,5.5002,5.6231,5.6888,5.707,5.7663,5.756,5.707,5.7645,5.79,5.79,5.79,5.8909,6.0399,6.0399,6.1421,6.2793,6.2793,6.2793,6.2793,6.2793,6.171,6.0279,5.9655,5.9214,5.8811,5.818,5.7997,5.7997,5.7997,5.7997,5.7997,5.7997,5.7997,5.7997,5.7997,5.8143,5.8217,5.8033,5.8143,5.8198,5.8033,5.7997,5.7997,5.7997,5.7997,5.7997,5.7997,5.7446,5.6804,5.6191,5.5805,5.5603,5.5603,5.5023,5.4583,5.4418,5.3206,5.2446,5.2252,5.1646,5.1242,5.1059,5.0445,5.0033,4.9858,4.9858,4.9509,4.8875,5.0196,5.0095,5.3411,5.3283,5.2608,5.0277,4.5601,4.0492,3.6267,3.1499,2.6775,2.2399,2.1602,2.1631,2.1464,2.257,2.4797,2.868,3.1122,3.5025,4.2253,4.5235,4.8275,5.2645,5.3893,5.4625,5.5224,5.5848,5.5923,5.5239,5.5254,5.5279,5.5194,5.4506,5.4117,5.4117,5.2815,5.2112,5.2112,5.149,5.1727,5.2776,5.4583,5.5656,5.6123,5.7926,5.8398,5.7797,5.7883,5.7866,0.0,5.7883,5.79,5.79,5.79,5.8909,6.0399,6.0399,6.1421,6.2793,6.2793,6.2793,6.2793,6.2793,6.171,6.0389,6.0297,5.9281,5.8088,5.8015,5.7997,5.7997,5.7997,5.7997,5.7997,5.7997,5.7997,5.7997,5.7997,5.8572,5.8866,5.8143,5.8591,5.8866,5.8125,5.7997,5.7997,5.7997,5.7997,5.7997,5.7997,5.7941,5.785,5.7776,5.6466,5.5603,5.5603,5.553,5.5181,5.4454,5.4252,5.3849,5.3122,5.3012,5.2637,5.1895,5.1822,5.1408,5.0692,5.0692,5.0655,5.0582,5.0729,5.0729,4.9806,5.0755,5.135,4.9237,4.4589,3.9727,3.6582,3.1224,2.6142,2.3338,2.1907,2.138,2.2084,2.2587,2.4069,2.7717,2.8894,3.166,3.8304,4.0579,4.3703,4.9561,5.1169,5.2686,5.497,5.6147,5.6795,5.6944,5.6226,5.5803,5.5803,5.4775,5.4027,5.3608,5.268,5.2007,5.1618,5.1325,5.1758,5.2923,5.4348,5.5445,5.6243,5.7691,5.8169,5.79,5.79,5.79,0.0,5.79,5.79,5.7954,5.8441,5.9345,6.046,6.0938,6.1829,6.2793,6.2793,6.2793,6.2719,6.2236,6.1649,6.1025,6.0548,5.996,5.9245,5.8272,5.8345,5.8719,5.8719,5.8719,5.8719,5.8719,5.8345,5.8125,5.8609,5.8976,5.8958,5.8162,5.9043,5.9673,5.8866,5.9116,5.9281,5.8792,5.8719,5.8535,5.8052,5.7997,5.7997,5.7997,5.7428,5.7053,5.7053,5.6602,5.6198,5.5856,5.539,5.4748,5.3959,5.3922,5.3537,5.2747,5.2262,5.184,5.1518,5.1518,5.1261,5.082,5.1783,5.1728,4.6703,4.8492,4.9926,4.8439,4.4168,3.9585,3.6675,3.1136,2.6038,2.4019,2.2411,2.1576,2.2278,2.2825,2.4003,2.6618,2.7455,2.9667,3.5139,3.7347,4.043,4.5909,4.8042,5.0353,5.3698,5.5882,5.7468,5.8324,5.7019,5.6282,5.6462,5.5029,5.3982,5.3503,5.2845,5.2172,5.149,5.1624,5.2275,5.3412,5.4776,5.5883,5.6737,5.7754,5.8101,5.79,5.79,5.79,0.0,5.79,5.8046,5.8299,5.8892,5.9783,6.082,6.1389,6.2121,6.2793,6.2793,6.2793,6.2701,6.2144,6.163,6.1135,6.0566,6.0236,5.9802,5.8676,5.8921,5.9545,5.9545,5.938,5.9269,5.9508,5.8939,5.8584,5.938,5.9747,5.9673,5.8877,5.9813,6.0511,5.9692,6.0022,6.0205,5.9636,5.9545,5.9343,5.8786,5.851,5.8345,5.8345,5.8143,5.7997,5.7997,5.7483,5.706,5.6811,5.6271,5.5592,5.4785,5.4528,5.4124,5.3563,5.2766,5.2344,5.2344,5.2344,5.2068,5.1544,5.2664,5.259,4.5427,4.7302,4.8327,4.8312,4.4825,4.033,3.624,3.1308,2.6816,2.4144,2.311,2.2475,2.1828,2.3233,2.4759,2.559,2.7211,2.9828,3.393,3.6763,3.9412,4.2141,4.4751,4.7631,5.0922,5.4805,5.7648,5.8994,5.73,5.6462,5.7049,5.5254,5.4206,5.4206,5.3533,5.2884,5.2202,5.2642,5.3455,5.4589,5.6478,5.7543,5.7915,5.8641,5.8592,5.79,5.79,5.79,0.0,5.79,5.837,5.9077,5.9094,6.0129,6.1604,6.1604,6.2121,6.2793,6.2793,6.2793,6.2793,6.2793,6.171,6.0419,6.0401,5.9838,5.9214,5.9184,5.9765,6.0389,6.0389,5.9802,5.9398,6.0187,5.9765,5.9416,6.0205,6.1006,6.1337,6.0529,6.1025,6.1318,6.0529,6.0389,6.0401,6.0389,6.0389,6.0382,6.0382,5.9673,5.9196,5.9196,5.8492,5.7997,5.7997,5.7997,5.7648,5.6847,5.6792,5.6436,5.5622,5.4821,5.4399,5.4399,5.3599,5.3196,5.3196,5.3196,5.3177,5.3177,5.3196,5.3196,3.8512,3.9835,4.0785,4.0848,3.8032,3.4795,3.3092,2.9694,2.6419,2.4655,2.3435,2.2892,2.357,2.3785,2.4867,2.7884,2.8465,2.9765,3.332,3.6073,3.92,4.321,4.9224,5.3817,5.5722,5.663,5.7468,5.8339,5.7034,5.6282,5.6477,5.5029,5.3997,5.3518,5.286,5.256,5.2687,5.2824,5.3833,5.5694,5.6313,5.7046,5.7917,5.8135,5.8118,5.79,5.79,5.79,5.79,5.79,5.837,5.9161,5.9768,6.0638,6.1673,6.2214,6.2579,6.2793,6.2793,6.2793,6.2701,6.2163,6.2016,6.1838,6.0719,5.9838,5.9306,5.9875,6.0603,6.108,6.0548,6.0621,6.0896,6.1153,6.0621,6.0242,6.1043,6.141,6.1355,6.0566,6.149,6.2163,6.1355,6.1686,6.1838,6.13,6.1208,6.1025,6.0474,6.0169,5.9802,5.9269,5.8976,5.8591,5.8052,5.7997,5.7886,5.7648,5.7611,5.7262,5.6455,5.5647,5.495,5.4418,5.3599,5.3196,5.3196,5.3196,5.3196,5.3196,5.3196,5.3196,3.332,3.4898,3.5942,3.6216,3.4175,3.1844,3.098,2.8245,2.5635,2.4789,2.3593,2.3006,2.4026,2.4092,2.487,2.7634,2.8382,2.9475,3.2003,3.528,3.9287,4.4446,5.075,5.5089,5.6152,5.7004,5.7558,5.7723,5.6541,5.5833,5.5833,5.4311,5.3249,5.2854,5.2411,5.2416,5.2894,5.3324,5.4431,5.6204,5.6644,5.7206,5.79,5.79,5.79,5.79,5.79,5.79,0.0,5.79,5.8564,5.9638,6.018,6.1088,6.2103,6.2623,6.2793,6.2793,6.2793,6.2793,6.2719,6.2218,6.2199,6.2108,6.0805,6.0272,6.015,6.0346,6.1208,6.1942,6.1447,6.1447,6.1679,6.1979,6.1447,6.1062,6.1887,6.2053,6.1906,6.1398,6.2114,6.2646,6.2144,6.2462,6.2627,6.2126,6.2053,6.1869,6.1361,6.1043,6.0658,6.015,5.9563,5.8994,5.851,5.8162,5.7997,5.7997,5.7997,5.7776,5.7281,5.6473,5.5812,5.5317,5.4528,5.3959,5.3654,5.3343,5.3196,5.3196,5.3196,5.3361,0.0,3.1809,3.3021,3.3634,3.2392,3.0703,2.9505,2.6884,0.0,2.4547,2.3598,2.296,2.3616,2.4201,2.4889,2.5737,2.7485,2.9175,3.0462,3.4876,4.0109,4.5897,5.0122,5.2755,5.3303,5.6152,5.7708,5.7019,5.5822,5.5104,5.5044,5.3234,5.2202,5.2202,5.2237,5.2495,5.3011,5.4147,5.5252,5.6321,5.7391,5.79,5.79,5.79,5.79,0.0,5.79,5.79,5.79,5.79,5.8892,6.0399,6.0399,6.1393,6.2793,6.2793,6.2793,6.2793,6.2793,6.2793,6.2793,6.2793,6.2291,6.1539,6.0731,6.1006,6.1429,6.0694,6.16,6.2793,6.2793,6.2254,6.1869,6.2627,6.2236,6.1887,6.2646,6.2793,6.2793,6.2793,6.2793,6.2793,6.2793,6.2793,6.2793,6.2793,6.2793,6.2793,6.2793,6.2144,6.1649,6.1606,6.0205,5.9269,5.9196,5.8455,5.7997,5.7997,5.7997,5.7997,5.7997,5.7226,5.6792,5.6792,5.5996,5.5236,5.4473,5.3728,5.3343,5.3287,5.3343,5.371,2.3535,0.0,2.6727,2.6889,2.6563,2.6144,0.0,2.5184,2.4461,2.3936,2.3606,2.3755,2.4907,2.4829,2.5486,2.8216,2.9445,3.0522,3.1839,3.8616,4.49,4.8828,5.3249,5.5628,5.4805,5.5908,5.6387,5.5688,5.4895,5.4206,5.3707,5.274,5.2202,5.2202,5.2543,5.321,5.419,5.5292,5.6376,5.75,5.7773,5.79,5.79,5.79,5.79,5.79,5.79,5.79,5.79,5.79,5.8892,6.0399,6.0399,6.1393,6.2793,6.2793,6.2793,6.2793,6.2793,6.2793,6.2793,6.2793,6.2664,6.2383,6.1557,6.1447,6.1557,6.1374,6.2034,6.2793,6.2793,6.2664,6.2572,6.2756,6.2664,6.2572,6.2756,6.2793,6.2793,6.2793,6.2793,6.2793,6.2793,6.2793,6.2793,6.2793,6.2793,6.2793,6.2793,6.2627,6.2291,6.1667,6.0713,5.9875,5.9251,5.8455,5.7997,5.7997,5.7997,5.7997,5.7997,5.7226,5.6792,5.6792,5.5996,5.5511,5.5328,5.5126,5.4711,5.4124,5.4748,5.4473,2.1066,2.2885,2.4593,2.4593,2.4829,2.5053,2.5053,2.4575,2.4033,2.367,2.3595,2.3924,2.496,2.5098,2.5962,2.8697,3.0163,3.2273,3.6043,4.1609,4.6756,5.0652,5.3877,5.5733,5.5683,5.5998,5.5803,5.4805,5.4117,5.3443,5.2794,5.2112,5.1982,5.2496,5.3264,5.3977,5.4589,5.5674,5.6758,5.79,5.7561,5.7391,5.7391,5.7391,5.7205,5.6917,5.7239,5.7391,5.7391,5.7391,5.8582,6.0399,6.0399,6.1159,6.2291,6.2664,6.2572,6.231,6.2664,6.2793,6.2793,6.2793,6.2793,6.2719,6.2291,6.2144,6.2071,6.1686,6.2181,6.2793,6.2793,6.2793,6.2793,6.2793,6.2793,6.2793,6.2793,6.2793,6.2793,6.2793,6.2793,6.2892,6.3109,6.3156,6.3243,6.3502,6.3516,6.3516,6.3516,6.3516,6.3379,6.2924,6.2143,6.1454,6.1026,5.9901,5.8968,5.8358,5.8318,5.8418,5.8632,5.8224,5.8001,5.8001,5.7192,5.6792,5.6792,5.6411,5.603,5.5602,5.6049,5.5965,2.0772,2.2841,2.4679,2.438,2.5049,2.5693,2.5498,2.4657,2.3909,2.3909,2.3909,2.4197,2.5173,2.5827,2.6919,2.9146,3.1301,3.492,4.1268,4.4481,4.7653,5.1588,5.3578,5.4925,5.5668,5.5938,5.5504,5.4147,5.3503,5.2869,5.2097,5.1505,5.1589,5.245,5.3755,5.4365,5.4289,5.5621,5.6777,5.773,5.6985,5.6697,5.6799,5.6681,5.6274,5.5733,0.0,0.0,5.663,5.663,5.8047,6.022,6.0098,6.0764,6.1851,6.2407,6.2273,6.1887,6.2554,6.2793,6.2793,6.2793,6.2793,6.2793,6.2793,6.2793,6.2664,6.1979,6.2273,6.2793,6.2793,6.2793,6.2793,6.2793,6.2793,6.2818,6.2898,6.2923,6.2959,6.3038,6.3044,6.3191,6.3637,6.3713,6.3882,6.4332,6.4398,6.4398,6.4398,6.4398,6.4398,6.4398,6.3615,6.3096,6.3096,6.1746,6.0376,5.9195,5.892,5.8999,5.9381,5.9389,5.9389,5.9389,5.8727,5.8369,5.8369,5.7695,5.7297,5.7183,5.7316,5.7609,2.1909,2.3894,2.5049,2.3396,2.4728,2.6153,2.5008,2.5023,2.5289,2.5289,2.5289,2.6019,2.8395,2.8919,2.9997,3.3081,3.6178,3.9915,4.485,4.8289,5.0548,5.1265,5.4491,5.5867,5.3857,5.4695,5.4815,5.3453,5.3258,5.265,5.1415,5.1251,5.103,5.0629,5.2594,5.34,5.2833,5.5411,5.6807,5.6968,5.6206,5.6189,5.6782,5.6139,5.58,5.5716,0.0,5.5868,5.5868,5.5868,5.7305,5.9398,5.873,6.0148,6.2554,6.1998,6.2144,6.2627,6.2756,6.2793,6.2793,6.2793,6.2793,6.2793,6.2793,6.2793,6.2774,6.2646,6.2701,6.2793,6.2793,6.2793,6.2793,6.2793,6.2793,6.2923,6.3374,6.3487,6.3612,6.4078,6.4148,6.4187,6.4265,6.4284,6.4313,6.4389,6.4398,6.4398,6.4398,6.4398,6.4398,6.4398,6.3615,6.3096,6.3096,6.2255,6.1508,6.1026,5.9925,5.9319,5.9389,5.9389,5.9389,5.9389,5.9285,5.9228,5.9228,5.9096,5.8671,5.8027,5.8708,5.8367,2.0831,2.3026,2.4855,2.3943,2.5719,2.741,2.6437,2.6183,2.6243,2.6614,2.6674,2.7378,2.9683,3.097,3.335,3.8437,4.1425,4.4252,4.7459,4.9501,5.1056,5.2157,5.3563,5.4401,5.4281,5.4162,5.3872,5.3258,5.2869,5.2232,5.1251,5.1781,5.2066,5.1989,5.3533,5.4127,5.363,5.4955,5.5801,5.6189,5.5463,5.5277,5.5598,5.526,5.5108,5.5141,0.0,5.5919,5.6274,5.6274,5.7449,5.919,5.9294,6.0221,6.1514,6.1568,6.2108,6.2793,6.2793,6.2793,6.2793,6.2793,6.2793,6.2793,6.2793,6.2793,6.2793,6.2793,6.2793,6.2793,6.2793,6.2793,6.2793,6.2793,6.2793,6.2947,6.3487,6.3601,6.3755,6.4303,6.4398,6.4491,6.4722,6.4784,6.4869,6.5161,6.5219,6.5219,6.5219,6.5219,6.5219,6.5219,6.4845,6.4615,6.4615,6.3833,6.2795,6.1479,6.0623,6.0154,6.0154,6.0154,6.0154,6.0154,6.0154,6.0154,6.0154,6.0154,5.997,5.9614,5.9989,5.9767,2.0492,2.2447,2.4395,2.456,2.662,2.8635,2.8725,2.8351,2.8306,2.9457,2.9681,3.0177,3.1824,3.4024,3.733,4.2666,4.5613,4.7923,4.9935,5.0885,5.1938,5.3498,5.3219,5.3443,5.482,5.3877,5.3139,5.2989,5.2336,5.1678,5.0996,5.1877,5.2479,5.2635,5.3909,5.4398,5.3968,5.421,5.4718,5.5428,5.4685,5.4431,5.4583,5.4414,5.4329,5.4363,5.4938,5.5496,5.6038,5.6207,5.7192,5.8657,5.9304,5.99,6.0517,6.151,6.2273,6.2793,6.2793,6.2793,6.2793,6.2793,6.2793,6.2793,6.2793,6.2793,6.2793,6.2793,6.2793,6.2793,6.2793,6.2793,6.283,6.2972,6.299,6.3168,6.3811,6.3948,6.4109,6.4645,6.476,6.4871,6.5238,6.5291,6.5425,6.584,6.5904,6.5904,6.5904,6.5904,6.5904,6.5904,6.5904,6.5904,6.5904,6.5109,6.3809,6.1955,6.1377,6.1018,6.0806,6.0806,6.0806,6.0806,6.0806,6.0806,6.0806,6.0806,6.0806,6.0806,6.0806,6.0806,2.2832,2.349,2.3808,2.444,2.662,2.922,3.16,3.2108,3.2796,3.5341,3.5865,3.6058,3.6776,3.9562,4.2286,4.3953,4.7437,5.0622,5.2645,5.4037,5.488,5.5029,5.4999,5.479,5.4326,5.3608,5.2944,5.2321,5.1663,5.0981,5.03,5.0701,5.0685,5.0086,5.2011,5.2741,5.2094,5.3091,5.3957,5.4668,5.3923,5.394,5.4583,5.389,5.3585,5.3585,5.3653,5.3687,5.3788,5.4482,5.5654,5.7063,5.7063,5.8431,6.0589,6.2137,6.2756,6.2793,6.2793,6.2793,6.2793,6.2793,6.2793,6.2793,6.2793,6.2793,6.2793,6.2793,6.2793,6.2793,6.2793,6.2793,6.2923,6.3419,6.3535,6.3811,6.4782,6.4992,6.5157,6.5683,6.5788,6.5795,6.584,6.5846,6.5853,6.5897,6.5904,6.5904,6.5904,6.5904,6.5904,6.5904,6.5904,6.5904,6.5904,6.5109,6.4192,6.3225,6.2448,6.1633,6.0819,6.0806,6.0806,6.0806,6.0806,6.0806,6.0806,6.0806,6.0806,6.0806,6.0806,6.0806,2.1475,2.3285,2.5199,2.6709,2.8457,3.0148,3.1555,3.317,3.5011,3.721,3.8003,3.8631,3.9679,4.2256,4.4771,4.6501,4.9419,5.2007,5.3593,5.4266,5.4581,5.4581,5.3847,5.3399,5.3548,5.2591,5.2022,5.2187,5.1191,5.0473,5.0196,5.0629,5.0845,5.0792,5.2194,5.2935,5.2904,5.3314,5.3653,5.3907,5.3636,5.3653,5.3907,5.3636,5.3754,5.4177,5.4177,5.4448,5.4887,5.5175,5.5892,5.697,5.8463,5.99,6.1271,6.2393,6.2793,6.2793,6.2793,6.2793,6.2793,6.2793,6.2793,6.2793,6.2793,6.2793,6.2793,6.2793,6.305,6.3301,6.3301,6.3301,6.3431,6.3966,6.4098,6.4284,6.496,6.5107,6.5268,6.5795,6.5904,6.5904,6.5904,6.5904,6.5904,6.5904,6.5904,6.5904,6.5904,6.5904,6.5904,6.5904,6.5904,6.5904,6.5904,6.559,6.5032,6.4166,6.2845,6.171,6.0845,6.0806,6.0806,6.0806,6.0806,6.0806,6.0806,6.0806,6.0806,6.0806,6.0806,6.0806,2.0832,2.2941,2.5393,2.72,2.9564,3.1839,3.3335,3.5099,3.727,4.0277,4.11,4.1489,4.2177,4.3943,4.5888,4.7683,5.0526,5.283,5.3758,5.4072,5.4132,5.3907,5.289,5.2381,5.2854,5.1678,5.1071,5.152,5.0338,4.9591,4.9591,5.0002,5.049,5.1074,5.2111,5.2933,5.3484,5.3501,5.3501,5.3501,5.3501,5.3501,5.3501,5.3501,5.3788,5.4245,5.4245,5.4532,5.5023,5.5259,5.5919,5.7029,5.9209,6.0532,6.1347,6.2407,6.2793,6.2793,6.2793,6.2793,6.2848,6.3123,6.3196,6.3251,6.3508,6.3582,6.3632,6.3782,6.4114,6.4464,6.4778,6.4351,6.4118,6.5161,6.5223,6.5233,6.5979,6.6139,6.6258,6.6621,6.6474,6.6288,6.6288,6.6077,6.5904,6.5904,6.5904,6.5904,6.5904,6.5904,6.5904,6.5904,6.5904,6.5904,6.5904,6.5904,6.5416,6.4256,6.3108,6.2095,6.1248,6.096,6.0806,6.0806,6.0806,6.0806,6.0806,6.0806,6.0806,6.0806,6.0806,6.0806,2.153,2.2652,2.3969,2.5319,2.9624,3.4382,3.7676,3.8424,3.9918,4.5209,4.5783,4.5125,4.4446,4.4885,4.5753,4.71,5.0601,5.3183,5.3198,5.3758,5.3937,5.3273,5.2576,5.2172,5.2172,5.0966,5.0181,5.0181,4.903,4.8304,4.8304,4.8598,4.9276,5.0374,5.1375,5.2417,5.3484,5.3501,5.3501,5.3501,5.3501,5.3501,5.3501,5.3501,5.3501,5.3501,5.3501,5.3501,5.3568,5.4313,5.548,5.6961,5.8628,5.9737,6.0595,6.22,6.2793,6.2793,6.2793,6.2793,6.2939,6.3796,6.4103,6.4249,6.5044,6.5301,6.5419,6.5952,6.6097,6.6355,6.7348,6.6037,6.4962,6.7103,6.7003,6.6789,6.8106,6.8391,6.8391,6.8391,6.7705,6.7096,6.7096,6.6423,6.5904,6.5904,6.5904,6.5904,6.5904,6.5904,6.5904,6.5904,6.5904,6.5904,6.5904,6.5904,6.5166,6.3429,6.3314,6.2935,6.2114,6.1268,6.0806,6.0806,6.0806,6.0806,6.0806,6.0806,6.0806,6.0806,6.0806,6.0806,2.2453,2.438,2.6944,2.9192,3.2347,3.5774,3.905,4.0157,4.1609,4.5493,4.689,4.7226,4.6531,4.6965,4.7534,4.7938,5.0137,5.1962,5.2426,5.2665,5.2546,5.1872,5.1191,5.0622,5.0205,4.9801,4.9576,4.9576,4.8783,4.8304,4.8304,4.7949,4.8563,5.0339,5.0684,5.1685,5.3484,5.3501,5.3501,5.3501,5.3501,5.3501,5.3501,5.3501,5.3501,5.3501,5.3501,5.3501,5.3568,5.4313,5.5145,5.6187,5.7813,5.925,6.0538,6.158,6.2297,6.2793,6.2793,6.2793,6.2848,6.3086,6.3178,6.3337,6.42,6.4734,6.5176,6.5892,6.6611,6.7357,6.828,6.7875,6.7368,6.8021,6.7985,6.7917,6.8314,6.8391,6.8391,6.8391,6.7705,6.7096,6.7096,6.6423,6.5904,6.5904,6.5904,6.5904,6.5904,6.5904,6.5904,6.5904,6.5904,6.5904,6.5904,6.5904,6.5686,6.5166,6.4551,6.3301,6.1268,6.0941,6.0806,6.0806,6.0806,6.0806,6.0806,6.0806,6.0806,6.0806,6.0806,6.0806,2.334,2.5686,2.8755,3.1913,3.489,3.7971,4.1534,4.3484,4.525,4.7721,4.8686,4.9015,4.8858,4.8551,4.8461,4.897,5.0496,5.1663,5.1798,5.1813,5.1535,5.0892,5.0234,4.9703,4.9337,4.9052,4.8902,4.8902,4.8267,4.7893,4.7893,4.7519,4.8261,5.032,5.0397,5.1245,5.301,5.3027,5.2892,5.2604,5.2604,5.2604,5.2604,5.323,5.3501,5.3501,5.3501,5.3501,5.3534,5.3974,5.4767,5.5832,5.7113,5.8752,6.0499,6.1291,6.2108,6.2793,6.2793,6.2793,6.2866,6.3209,6.3319,6.3466,6.4328,6.5163,6.6001,6.6702,6.7468,6.8333,6.9413,6.9316,6.9007,6.9314,6.8872,6.8487,6.8834,6.8641,6.8391,6.8391,6.7705,6.7096,6.7096,6.6423,6.5904,6.5904,6.5904,6.5904,6.5904,6.5904,6.5904,6.5904,6.5904,6.5904,6.5904,6.5904,6.5743,6.5416,6.4897,6.3762,6.1877,6.1499,6.1325,6.1325,6.0979,6.0979,6.1325,6.0979,6.0806,6.0806,6.0806,6.0806,2.4201,2.6695,2.9744,3.3754,3.736,4.0917,4.4706,4.7555,4.9681,5.0735,5.0592,5.0488,5.1086,4.9703,4.8865,5.0099,5.1251,5.1813,5.1191,5.1056,5.0772,5.0114,4.9538,4.9172,4.9112,4.8573,4.8214,4.8214,4.7638,4.7309,4.7309,4.7309,4.8261,5.032,5.0316,5.0908,5.2283,5.22,5.1846,5.1201,5.1201,5.1201,5.1252,5.2638,5.3331,5.3399,5.3467,5.3501,5.3501,5.3568,5.4437,5.5768,5.6594,5.829,6.0381,6.1115,6.1942,6.2683,6.2683,6.2738,6.2921,6.3723,6.3992,6.4139,6.4998,6.6142,6.7274,6.7885,6.8456,6.9155,7.0366,7.0244,6.9975,7.0629,6.9622,6.8718,6.9436,6.8949,6.8391,6.8391,6.7763,6.7192,6.7116,6.65,6.5981,6.5904,6.5904,6.5904,6.5904,6.5904,6.5904,6.5904,6.5904,6.5904,6.5904,6.5904,6.5551,6.4762,6.4724,6.4339,6.3448,6.2647,6.221,6.221,6.1441,6.1383,6.2095,6.1383,6.0993,6.0921,6.0993,6.0993,2.5139,2.7682,3.1165,3.5654,4.0427,4.4676,4.7085,4.888,4.98,4.9075,5.0032,5.1026,5.1161,5.0428,5.0054,5.0847,5.0787,5.0592,5.0443,5.0002,4.9471,4.879,4.8581,4.8319,4.7773,4.7593,4.7519,4.7519,4.7384,4.7309,4.7309,4.7309,4.8261,5.032,4.9575,5.0162,5.2283,5.1528,5.1144,5.1201,5.1201,5.1201,5.1218,5.1539,5.1996,5.2587,5.323,5.3501,5.3534,5.4121,5.4892,5.5785,5.6577,5.7954,5.9487,5.965,6.0639,6.1851,6.1851,6.2273,6.2829,6.3013,6.3086,6.3315,6.4542,6.5397,6.6208,6.7392,6.8586,6.9411,6.9044,6.9783,7.0533,7.0071,6.9687,6.9276,6.8795,6.8526,6.8391,6.8391,6.8257,6.7898,6.7231,6.6962,6.6635,6.5994,6.5904,6.5904,6.5904,6.5904,6.5904,6.5904,6.5904,6.5904,6.5904,6.5904,6.582,6.5628,6.5609,6.5224,6.4359,6.3493,6.3045,6.3045,6.2852,6.2531,6.2095,6.2551,6.2435,6.1845,6.2474,6.2416,2.6045,2.8727,3.2392,3.832,4.2806,4.6217,4.7893,4.8805,4.9194,4.8858,5.0062,5.1101,5.0787,5.0189,4.9883,5.0227,5.0002,4.9778,4.9778,4.9209,4.8693,4.8349,4.8034,4.7683,4.7339,4.7309,4.7309,4.7309,4.7309,4.7309,4.7309,4.7309,4.7872,4.9123,4.8611,4.9034,5.056,5.0054,4.9909,5.0153,5.0153,5.0153,5.017,5.088,5.159,5.2317,5.2739,5.3145,5.3534,5.3913,5.4713,5.5734,5.6159,5.751,5.9196,5.9196,5.9967,6.108,6.1465,6.1869,6.2341,6.2974,6.318,6.3352,6.4324,6.5256,6.6122,6.6826,6.7721,6.8456,6.841,6.8744,6.9071,6.909,6.909,6.8949,6.8507,6.7776,6.7205,6.7205,6.7205,6.7051,6.6596,6.6538,6.6385,6.5961,6.5904,6.5904,6.5904,6.5904,6.5904,6.5904,6.5904,6.5904,6.5904,6.5904,6.5904,6.5904,6.5904,6.5705,6.5243,6.4397,6.391,6.391,6.3506,6.3083,6.2666,6.2704,6.23,6.1499,6.1916,6.2089,2.6432,2.9759,3.3948,4.058,4.4182,4.6435,4.7683,4.8117,4.8423,4.8858,4.9883,5.0563,5.0129,4.9538,4.9179,4.9284,4.9187,4.9082,4.8962,4.8379,4.7908,4.781,4.7399,4.713,4.713,4.7234,4.7249,4.7145,4.7234,4.7249,4.7123,4.713,4.7341,4.7793,4.7529,4.7807,4.8676,4.8523,4.863,4.9001,4.9001,4.8934,4.8866,5.0203,5.1218,5.1928,5.2046,5.257,5.3314,5.3579,5.447,5.572,5.5986,5.7281,5.8994,5.8994,5.9508,6.0297,6.1117,6.155,6.195,6.3186,6.3648,6.384,6.436,6.5295,6.6183,6.63,6.6686,6.7269,6.7987,6.7744,6.7513,6.8237,6.8295,6.818,6.818,6.709,6.6077,6.5923,6.5904,6.5936,6.6077,6.5994,6.5904,6.5904,6.5904,6.5904,6.5904,6.5904,6.5904,6.5904,6.5904,6.5904,6.5904,6.5904,6.5904,6.5904,6.5904,6.5904,6.5904,6.5205,6.482,6.482,6.3968,6.3372,6.3083,6.273,6.2018,6.1037,6.1166,6.1608,2.5285,3.0731,3.6746,4.058,4.3514,4.5633,4.639,4.7474,4.8147,4.7668,4.8147,4.8843,4.9337,4.8873,4.8618,4.9224,4.8813,4.8244,4.7653,4.6995,4.6345,4.5768,4.6121,4.6435,4.6435,4.6958,4.7048,4.648,4.6958,4.7055,4.6465,4.6435,4.6836,4.7778,4.6386,4.6625,4.8676,4.7848,4.7941,4.9001,4.9001,4.8665,4.809,4.8901,4.9695,5.0422,5.1082,5.1759,5.255,5.3913,5.4949,5.5819,5.7173,5.7875,5.8162,5.8162,5.8676,5.949,6.0279,6.1318,6.2445,6.3318,6.3905,6.437,6.4869,6.5136,6.5368,6.5842,6.65,6.7135,6.725,6.7744,6.8257,6.8372,6.7821,6.7269,6.7269,6.7096,6.6731,6.6038,6.5904,6.6115,6.6827,6.6365,6.5904,6.5904,6.5904,6.5904,6.5904,6.5904,6.5904,6.5904,6.5904,6.5904,6.5904,6.5904,6.5904,6.5904,6.5904,6.5904,6.5904,6.5788,6.5731,6.5731,6.4878,6.3705,6.2268,6.3608,6.3461,6.1941,6.2647,6.3025,2.6452,3.0702,3.513,3.8796,4.1433,4.3479,4.485,4.5933,4.6636,4.6719,4.6958,4.7384,4.8064,4.7938,4.7833,4.8117,4.7623,4.7085,4.6779,4.6151,4.5633,4.5334,4.5559,4.5753,4.5753,4.6007,4.6067,4.5768,4.6007,4.6052,4.5768,4.5753,4.5787,4.5839,4.5116,4.5564,4.7268,4.6445,4.6614,4.7767,4.7767,4.7597,4.731,4.8039,4.9018,5.0117,5.0439,5.1014,5.1789,5.3348,5.4414,5.5243,5.679,5.7643,5.7997,5.7997,5.8217,5.8639,5.9453,6.0618,6.1898,6.2963,6.3992,6.4885,6.5396,6.5556,6.5603,6.5821,6.6154,6.6423,6.6423,6.7051,6.7782,6.8276,6.8103,6.784,6.784,6.709,6.6327,6.5981,6.5904,6.6019,6.6365,6.6134,6.5904,6.5904,6.5904,6.5904,6.5904,6.5904,6.5904,6.5904,6.5904,6.5904,6.5904,6.5904,6.5904,6.5904,6.5904,6.5904,6.5904,6.5436,6.5166,6.5166,6.5263,6.4724,6.3493,6.3743,6.3262,6.2114,6.246,6.2627,2.6946,2.952,3.2168,3.5953,3.8544,4.0715,4.2836,4.4092,4.5005,4.5657,4.5927,4.6196,4.6696,4.6935,4.6995,4.6815,4.6381,4.5986,4.5822,4.5364,4.499,4.4811,4.4945,4.505,4.505,4.52,4.5229,4.5065,4.52,4.5229,4.505,4.505,4.4825,4.4311,4.3988,4.4492,4.5916,4.5657,4.586,4.6515,4.6716,4.6701,4.6549,4.7481,4.8496,4.9543,4.9729,5.0362,5.1312,5.2857,5.4045,5.504,5.6569,5.7528,5.7997,5.7997,5.7997,5.813,5.9058,6.0117,6.1274,6.2566,6.3875,6.5044,6.5455,6.5724,6.5904,6.5904,6.5904,6.5961,6.6154,6.6654,6.7327,6.818,6.8391,6.8334,6.8129,6.6936,6.5904,6.5904,6.5904,6.5904,6.5904,6.5904,6.5904,6.5904,6.5904,6.5904,6.5904,6.5904,6.5904,6.5904,6.5904,6.5904,6.5904,6.5904,6.5904,6.5904,6.5904,6.5904,6.5904,6.5282,6.4936,6.4936,6.557,6.5359,6.4282,6.3833,6.3205,6.2403,6.2403,6.2518,2.5349,2.6782,2.8663,3.1974,3.4801,3.7437,4.0008,4.2102,4.3673,4.4267,4.4915,4.5364,4.5394,4.5912,4.6136,4.5514,4.5364,4.5125,4.4491,4.4371,4.4117,4.3489,4.3967,4.4341,4.4341,4.493,4.5035,4.4386,4.4945,4.502,4.4386,4.4341,4.4326,4.4296,4.3125,4.3344,4.5144,4.6193,4.6376,4.5771,4.6464,4.643,4.5821,4.7244,4.7938,4.8056,4.8749,4.9871,5.1318,5.2856,5.4349,5.5806,5.7338,5.7973,5.7997,5.7997,5.7997,5.8169,5.943,6.0235,6.0931,6.2213,6.3535,6.4622,6.466,6.5243,6.5904,6.5904,6.5904,6.6077,6.6846,6.7077,6.7327,6.818,6.8391,6.816,6.734,6.65,6.5904,6.5904,6.5904,6.5904,6.5904,6.5904,6.5904,6.5904,6.5904,6.5904,6.5904,6.5904,6.5904,6.5904,6.5904,6.5904,6.5904,6.5904,6.5904,6.5904,6.5904,6.5904,6.5904,6.5865,6.582,6.582,6.5878,6.5051,6.3372,6.4141,6.4083,6.3237,6.3237,6.3679,2.4709,2.5618,2.7006,2.9909,3.2302,3.4517,3.6746,3.8781,4.0487,4.1579,4.2327,4.293,4.3349,4.4646,4.5589,4.5334,4.4945,4.4566,4.4326,4.3923,4.3579,4.3319,4.3499,4.3668,4.3668,4.3524,4.3514,4.3653,4.3509,4.3514,4.3653,4.3284,4.308,4.308,4.2211,4.2411,4.3738,4.4761,4.5171,4.5007,4.5261,4.5244,4.5024,4.6041,4.6737,4.7255,4.8433,4.9499,5.0561,5.2087,5.362,5.514,5.6648,5.7556,5.7997,5.7997,5.819,5.85,5.8977,6.0012,6.1213,6.1686,6.3098,6.4609,6.4609,6.5205,6.5904,6.5904,6.5904,6.5981,6.6269,6.6712,6.7173,6.7494,6.7571,6.734,6.6513,6.6096,6.5904,6.5904,6.5904,6.5904,6.5904,6.5904,6.5904,6.5904,6.5904,6.5904,6.5904,6.5904,6.5904,6.5904,6.5904,6.5904,6.5904,6.5904,6.5904,6.5904,6.5904,6.5904,6.5904,6.5904,6.5904,6.5904,6.5904,6.559,6.4974,6.4724,6.4436,6.4122,6.4122,6.4006,2.4141,2.4586,2.557,2.8261,2.9907,3.1495,3.3948,3.6013,3.7734,3.8856,4.0127,4.1209,4.1643,4.2975,4.3993,4.3993,4.3813,4.3658,4.3658,4.309,4.2741,4.2965,4.2786,4.2651,4.2651,4.2301,4.2226,4.2622,4.2301,4.2241,4.2636,4.2286,4.1976,4.1733,4.1854,4.2175,4.2669,4.3859,4.4503,4.4615,4.4615,4.4615,4.4618,4.5365,4.6109,4.6878,4.8288,4.9458,5.0487,5.1997,5.3539,5.5037,5.6015,5.7042,5.796,5.7703,5.8064,5.8725,5.8884,5.9827,6.0998,6.1145,6.2528,6.4166,6.4166,6.4974,6.5904,6.5904,6.6096,6.625,6.5981,6.65,6.7173,6.7475,6.7301,6.6942,6.6423,6.6096,6.5904,6.5904,6.5904,6.5904,6.5904,6.5904,6.5904,6.5904,6.5904,6.5904,6.5904,6.5904,6.5904,6.5904,6.5904,6.5904,6.5904,6.5904,6.5904,6.5904,6.5904,6.5904,6.5904,6.5904,6.5904,6.5904,6.5904,6.5904,6.5904,6.532,6.5032,6.5032,6.5032,6.4724,0.0,0.0,0.0,2.6881,2.757,2.8453,3.1675,3.3933,3.5549,3.6269,3.8437,4.0232,4.0277,4.0849,4.1298,4.1283,4.1901,4.2366,4.2366,4.1807,4.1628,4.2291,4.1792,4.1403,4.1403,4.1388,4.1373,4.1403,4.1388,4.1373,4.1403,4.1358,4.1025,4.0367,4.1999,4.2573,4.1933,4.366,4.4536,4.453,4.4567,4.4598,4.4584,4.5331,4.609,4.6908,4.8296,4.9751,5.123,5.2676,5.4176,5.5567,5.5567,5.6539,5.7831,5.7079,5.7594,5.8757,5.923,5.9717,6.0208,6.0647,6.1916,6.3275,6.3295,6.4493,6.5865,6.5878,6.6462,6.6885,6.6096,6.6481,6.7289,6.8122,6.7686,6.7058,6.7058,6.6442,6.5904,6.5904,6.5904,6.5904,6.5904,6.5904,6.5904,6.5904,6.5904,6.5904,6.5904,6.5904,6.5904,6.5904,6.5904,6.5904,6.5904,6.5904,6.5904,6.5904,6.5904,6.5904,6.5904,6.5904,6.5904,6.5904,6.5904,6.5904,6.5904,6.5904,6.5904,6.5904,6.5904,6.5904,2.3595,0.0,0.0,0.0,0.0,0.0,2.9982,3.1165,3.2347,3.3978,3.5296,3.6434,3.7407,3.8484,3.9083,3.8586,4.0296,4.1673,4.1673,4.1508,4.1463,4.1643,4.1508,4.1403,4.1403,4.0969,4.0894,4.1358,4.0954,4.0894,4.1373,4.0472,3.9649,3.896,3.9524,4.0038,4.0478,4.2073,4.2891,4.2959,4.4059,4.4296,4.3775,4.455,4.586,4.7565,4.8505,5.001,5.1844,5.2258,5.3335,5.473,5.473,5.5365,5.6319,5.6675,5.7458,5.844,5.9147,5.9924,6.0628,6.0757,6.1537,6.2531,6.3121,6.4083,6.5089,6.5724,6.6051,6.6192,6.5961,6.6077,6.6288,6.6532,6.6417,6.6224,6.6224,6.6051,6.5904,6.5904,6.5904,6.5904,6.5904,6.5904,6.5904,6.5904,6.5904,6.5904,6.5904,6.5904,6.5904,6.5904,6.5904,6.5904,6.5904,6.5904,6.5904,6.5904,6.5904,6.5904,6.5904,6.5904,6.5904,6.5904,6.5904,6.5904,6.5904,6.5904,6.5904,6.5904,6.5904,6.5904,0.0,0.0,0.0,2.6123,0.0,0.0,2.8874,2.9683,3.0522,3.1943,3.2991,3.3994,3.5056,3.5865,3.6402,3.6582,3.7913,3.9233,4.0041,3.9921,3.9846,4.0116,3.9906,3.9723,3.9723,3.9379,3.932,3.9694,3.9364,3.932,3.9709,3.899,3.8535,3.8491,3.8911,3.9532,4.0352,4.1613,4.2269,4.2317,4.3213,4.3555,4.3423,4.3893,4.5272,4.7332,4.8083,4.9615,5.1619,5.1937,5.2977,5.4363,5.4032,5.4601,5.5691,5.6353,5.7273,5.8346,5.9352,6.0175,6.0806,6.0806,6.1383,6.2191,6.2666,6.3647,6.4705,6.5205,6.5609,6.5981,6.6308,6.6154,6.5904,6.5904,6.5904,6.5904,6.5904,6.5904,6.5904,6.5904,6.5904,6.5904,6.5904,6.5904,6.5904,6.5904,6.5904,6.5904,6.5904,6.5904,6.5904,6.5904,6.5904,6.6038,6.6365,6.6096,6.6038,6.6385,6.6096,6.5904,6.5904,6.5904,6.5904,6.5904,6.5904,6.5904,6.5904,6.5904,6.5904,6.5904,6.5904,6.5904,0.0,0.0,0.0,0.0,2.721,0.0,2.8353,2.9069,2.9653,3.0268,3.136,3.2377,3.3036,3.323,3.3664,3.486,3.513,3.5908,3.7988,3.7778,3.7629,3.823,3.7764,3.7387,3.7387,3.7387,3.7387,3.7387,3.7387,3.7387,3.7387,3.7345,3.7624,3.8339,3.9218,3.9976,4.0635,4.1667,4.2147,4.2063,4.2215,4.2642,4.3288,4.3437,4.4683,4.676,4.7488,4.8983,5.0932,5.1595,5.2803,5.4197,5.3471,5.4101,5.5461,5.5959,5.7002,5.8313,5.9535,6.0334,6.0806,6.0806,6.1325,6.196,6.2076,6.3134,6.4359,6.4551,6.5224,6.6051,6.6789,6.6442,6.5904,6.5904,6.5904,6.5904,6.5904,6.5904,6.5904,6.5904,6.5904,6.5904,6.5904,6.5904,6.5904,6.5904,6.5904,6.5904,6.5904,6.5904,6.5904,6.5904,6.5904,6.6192,6.6904,6.6385,6.6346,6.7058,6.6519,6.6186,6.6186,6.6186,6.6128,6.6038,6.5961,6.5904,6.5904,6.5904,6.5904,6.5904,6.5904,6.5904,0.0,0.0,0.0,0.0,2.7902,0.0,2.8667,2.8697,2.8981,2.9638,2.9982,3.0356,3.0971,3.1525,3.1974,3.2243,3.2721,3.4142,3.718,3.7477,3.7464,3.7584,3.7479,3.7387,3.7387,3.7387,3.7387,3.7387,3.7387,3.7387,3.7387,3.6941,3.674,3.6892,3.7761,3.828,3.8409,4.0417,4.1119,4.0553,4.1724,4.2384,4.255,4.3688,4.5398,4.7525,4.8142,4.9347,5.0832,5.0971,5.1977,5.3416,5.3269,5.3594,5.424,5.4987,5.6303,5.7856,5.874,5.983,6.0806,6.0806,6.0921,6.1172,6.1883,6.2326,6.2864,6.4224,6.5224,6.5936,6.6096,6.6019,6.5904,6.5904,6.5904,6.5904,6.5904,6.5904,6.5904,6.5904,6.5904,6.5904,6.5904,6.5904,6.5904,6.5904,6.5904,6.5904,6.5904,6.5904,6.5904,6.5904,6.5904,6.5961,6.6115,6.6577,6.6923,6.7096,6.7609,6.791,6.791,6.791,6.759,6.6885,6.6231,6.5904,6.5904,6.5904,6.5904,6.5904,6.5904,6.5904,0.0,0.0,0.0,2.7512,0.0,0.0,0.0,2.8338,2.8291,2.8964,2.883,2.88,2.9445,2.9549,2.9774,3.0433,3.0836,3.1854,3.4142,3.5024,3.5444,3.5444,3.5444,3.5444,3.5444,3.5759,3.5938,3.5938,3.5639,3.5594,3.5955,3.567,3.582,3.6541,3.7363,3.7978,3.836,3.9874,4.0472,4.0113,4.0857,4.1403,4.1788,4.2788,4.4432,4.6531,4.7146,4.8473,5.0206,5.0206,5.0912,5.204,5.2435,5.2844,5.3385,5.4824,5.6061,5.715,5.8189,5.926,6.0146,6.0146,6.0454,6.0883,6.1325,6.2037,6.2954,6.4243,6.5224,6.5904,6.5904,6.5904,6.5904,6.5904,6.5904,6.5904,6.5904,6.5551,6.5378,6.582,6.5551,6.5397,6.582,6.5904,6.5904,6.5904,6.5904,6.5904,6.5904,6.5904,6.5904,6.5904,6.5904,6.6244,6.709,6.7109,6.7481,6.834,6.8398,6.8391,6.8391,6.8391,6.7987,6.7116,6.6692,6.6308,6.5904,6.5904,6.5904,6.5904,6.5904,6.5904,0.0,0.0,0.0,0.0,0.0,2.8199,0.0,0.0,0.0,2.8321,2.7976,2.7764,2.8321,2.7974,2.7914,2.8859,2.9234,2.9683,3.0448,3.1704,3.2691,3.3066,3.311,3.317,3.329,3.3919,3.4308,3.4308,3.3814,3.3739,3.4278,3.4555,3.5231,3.6368,3.745,3.8288,3.8894,3.9705,4.0096,4.0096,4.0096,4.0548,4.1393,4.1995,4.3372,4.5287,4.5876,4.7183,4.8885,4.8885,4.942,5.0307,5.143,5.2204,5.2937,5.4703,5.5845,5.6658,5.7701,5.8588,5.93,5.9454,6.0089,6.0806,6.0806,6.1858,6.3224,6.3916,6.4859,6.5647,6.5647,6.5763,6.5904,6.5904,6.5904,6.5846,6.5686,6.5224,6.5013,6.5551,6.5224,6.507,6.5788,6.5904,6.5904,6.5904,6.5904,6.5904,6.5904,6.5904,6.5904,6.5904,6.5904,6.6513,6.8026,6.7667,6.8013,6.961,6.918,6.8872,6.8872,6.8737,6.8321,6.7616,6.7443,6.6955,6.6134,6.6134,6.6051,6.5904,6.5904,6.5904,0.0,0.0,0.0,0.0,2.9385,0.0,0.0,0.0,2.8338,2.7824,0.0,2.7615,2.7705,0.0,0.0,2.7003,2.7946,2.8353,2.729,2.8308,2.979,3.1525,3.1735,3.1959,3.2557,3.3215,3.3604,3.3604,3.3529,3.3529,3.3604,3.4805,3.5549,3.5701,3.7707,3.8813,3.8894,3.9705,4.0096,4.0096,4.0096,4.0757,4.2013,4.2616,4.369,4.5065,4.5666,4.6067,4.6324,4.6324,4.7009,4.8262,5.0505,5.2097,5.3193,5.3798,5.525,5.6959,5.7102,5.7703,5.855,5.9281,6.0089,6.0806,6.0806,6.1479,6.2268,6.2364,6.3538,6.4743,6.4743,6.532,6.5904,6.5904,6.5904,6.5686,6.4916,6.5282,6.5551,6.4878,6.5282,6.5788,6.5878,6.5904,6.5904,6.5904,6.5904,6.5904,6.5904,6.5904,6.5904,6.5904,6.5904,6.6269,6.7173,6.7878,6.866,6.9648,7.0283,7.0629,7.0629,6.9937,6.9513,6.9417,6.8641,6.784,6.6962,6.6962,6.6596,6.5904,6.5904,6.5904,0.0,0.0,0.0,0.0,0.0,0.0,2.8455,0.0,2.7931,0.0,0.0,0.0,0.0,0.0,0.0,0.0,2.7078,2.7111,2.6153,2.65,2.7455,2.9041,2.9235,2.9654,3.0702,3.0371,3.0401,3.118,3.124,3.1575,3.2364,3.3656,3.4758,3.5581,3.7326,3.8258,3.8258,3.9487,4.0096,4.0096,4.0096,4.0568,4.1423,4.2027,4.3062,4.4393,4.4948,4.548,4.5902,4.5902,4.6307,4.7116,4.8874,5.0907,5.2938,5.358,5.4846,5.6247,5.6247,5.6824,5.7761,5.9069,6.0089,6.0806,6.0806,6.1402,6.2095,6.2095,6.2935,6.3852,6.3852,6.4122,6.4397,6.4397,6.4782,6.5051,6.4686,6.4897,6.5186,6.532,6.5243,6.5301,6.5801,6.5904,6.5904,6.5904,6.5904,6.5904,6.5904,6.5904,6.5904,6.5904,6.5904,6.6231,6.7039,6.7436,6.8013,6.8891,6.9257,6.9687,7.0187,6.9879,6.9706,6.9706,6.8834,6.7975,6.7096,6.6635,6.6224,6.5904,6.5904,6.5904,3.027,0.0,0.0,0.0,0.0,0.0,0.0,0.0,0.0,0.0,0.0,0.0,0.0,0.0,0.0,0.0,0.0,2.624,2.5196,2.5214,2.5764,2.6914,2.721,2.772,2.868,2.8064,2.8053,2.9201,2.9275,2.9833,3.1153,3.2659,3.4048,3.5291,3.695,3.7823,3.7823,3.9139,3.9795,3.9808,4.0152,4.0613,4.1167,4.1761,4.2669,4.3811,4.419,4.4709,4.525,4.525,4.5774,4.6681,4.7615,4.9796,5.2515,5.3332,5.4361,5.5401,5.5612,5.6439,5.7555,5.8781,5.9915,6.0806,6.0806,6.1248,6.1749,6.1749,6.2339,6.2974,6.2974,6.3121,6.3295,6.3295,6.3775,6.4185,6.3955,6.4089,6.4436,6.5051,6.4878,6.4878,6.5743,6.5904,6.5904,6.5904,6.5904,6.5904,6.5904,6.5904,6.5904,6.5904,6.5904,6.6231,6.7039,6.7096,6.7475,6.8334,6.8622,6.9045,6.9667,6.9917,7.0033,7.0033,6.918,6.834,6.7455,6.6628,6.6115,6.5904,6.5904,6.5904,0.0,0.0,0.0,3.1666,0.0,0.0,0.0,0.0,2.8382,0.0,0.0,0.0,0.0,0.0,0.0,0.0,0.0,0.0,0.0,2.4216,2.4889,2.5588,2.6243,2.6644,2.6689,2.7228,2.7838,2.8405,2.8441,2.8972,3.0176,3.2317,3.3846,3.4601,3.6755,3.7903,3.7903,3.8654,3.9051,3.9051,4.0293,4.1189,4.18,4.241,4.2985,4.3507,4.3543,4.3543,4.3579,4.3579,4.4965,4.7085,4.7118,4.9104,5.2028,5.2894,5.3769,5.4645,5.5439,5.6819,5.828,5.8313,5.9454,6.0806,6.0806,6.0825,6.0845,6.0845,6.146,6.2133,6.2133,6.2724,6.3295,6.3295,6.3314,6.3121,6.2345,6.2781,6.3352,6.3372,6.4045,6.4878,6.5743,6.5904,6.5904,6.5904,6.5904,6.5904,6.5904,6.5904,6.5904,6.5904,6.5904,6.6231,6.7039,6.7096,6.7475,6.8334,6.918,6.9667,6.9706,7.0456,7.086,7.086,7.0071,6.9218,6.8353,6.7494,6.6654,6.5904,6.5904,6.5904,0.0,0.0,3.4458,3.3263,0.0,0.0,0.0,0.0,0.0,0.0,0.0,0.0,0.0,0.0,0.0,0.0,0.0,0.0,0.0,2.3804,2.4018,2.4253,2.4477,2.4792,2.5229,2.5076,2.5361,2.6339,2.6821,2.7812,2.9512,3.1631,3.3308,3.4499,3.6257,3.7173,3.7173,3.7905,3.8514,3.9,3.98,4.0734,4.1821,4.2412,4.2995,4.3506,4.3506,4.3506,4.3513,4.3742,4.4786,4.6312,4.7118,4.8578,5.0491,5.2467,5.376,5.4626,5.542,5.6459,5.7536,5.8107,5.905,6.005,6.0633,6.0806,6.0806,6.0806,6.1018,6.1248,6.1248,6.1435,6.1647,6.1647,6.2089,6.2422,6.2153,6.3185,6.4166,6.4166,6.4859,6.5551,6.5846,6.5904,6.5904,6.5904,6.5904,6.5904,6.5904,6.5904,6.5904,6.5904,6.5904,6.6019,6.6288,6.6308,6.6436,6.6724,6.7013,6.7686,6.8795,6.9103,6.9763,7.0879,7.011,6.9552,6.9263,6.7802,6.6962,6.6673,6.6154,6.5904,3.6114,3.5983,0.0,3.4006,3.2964,0.0,2.9731,0.0,2.9416,0.0,0.0,0.0,0.0,0.0,0.0,0.0,0.0,0.0,0.0,2.3595,2.3595,2.3595,2.3595,2.3774,2.4201,2.379,2.4003,2.5238,2.5648,2.6808,2.908,3.0973,3.2621,3.4055,3.5571,3.6366,3.6366,3.7127,3.7973,3.8902,3.974,4.0827,4.2142,4.2714,4.3178,4.3506,4.3506,4.3506,4.3522,4.3857,4.4896,4.6344,4.7259,4.8525,5.013,5.2375,5.3933,5.4991,5.5516,5.6266,5.7132,5.8011,5.8838,5.9665,6.0531,6.0806,6.0806,6.0806,6.0806,6.0806,6.0806,6.0806,6.0806,6.0806,6.1229,6.1633,6.1633,6.273,6.3801,6.4089,6.4839,6.5532,6.5846,6.5904,6.5904,6.5904,6.5904,6.5904,6.5904,6.5904,6.5904,6.5904,6.5904,6.5904,6.5904,6.5904,6.5904,6.5904,6.6173,6.6801,6.7898,6.8237,6.918,7.086,6.9494,6.9071,6.9706,6.7667,6.6673,6.6654,6.6134,6.5904]}]]